[[{"header":{"parameterUnit":"m.s-1","parameterCategory":1,"la1":31.0,"la2":29.5877,"lo1":-88.7671,"lo2":-86.6584,"dy":0.0162,"dx":0.0185,"nx":115,"ny":88,"refTime":"2023-10-18T12:00:00:Z","depth":0,"parameterNumber":2,"parameterNumberName":"U-component_of_WINDS"},"data":[0.0,0.0,0.0,0.0,0.0,0.0,0.0,0.0,0.0,0.0,0.0,0.0,0.0,0.0,0.0,0.0,0.0,0.0,0.0,0.0,0.0,0.0,0.0,0.0,0.0,0.0,0.0,0.0,0.0,0.0,0.0,0.0,0.0,0.0,0.0,0.0,0.0,0.0,0.0,0.0,0.0,0.0,0.0,0.0,0.0,0.0,0.0,0.0,0.0,0.0,0.0,0.0,0.0,0.0,0.0,0.0,0.0,0.0,0.0,0.0,0.0,0.0,0.0,0.0,0.0,0.0,0.0,0.0,0.0,0.0,0.0,0.0,0.0,0.0,0.0,0.0,0.0,0.0,0.0,0.0,0.0,0.0,0.0,0.0,0.0,0.0,0.0,0.0,0.0,0.0,0.0,0.0,0.0,0.0,0.0,0.0,0.0,0.0,0.0,0.0,0.0,0.0,0.0,0.0,0.0,0.0,0.0,0.0,0.0,0.0,0.0,0.0,0.0,0.0,0.0,0.0,0.0,0.0,0.0,0.0,0.0,0.0,0.0,0.0,0.0,0.0,0.0,0.0,0.0,0.0,0.0,0.0,0.0,0.0,0.0,0.0,0.0,0.0,0.0,0.0,0.0,0.0,0.0,0.0,0.0,0.0,0.0,0.0,0.0,0.0,0.0,0.0,0.0,0.0,0.0,0.0,0.0,0.0,0.0,0.0,0.0,0.0,0.0,0.0,0.0,0.0,0.0,0.0,0.0,0.0,0.0,0.0,0.0,0.0,0.0,0.0,0.0,0.0,0.0,0.0,0.0,0.0,0.0,0.0,0.0,0.0,0.0,0.0,0.0,0.0,0.0,0.0,0.0,0.0,0.0,0.0,0.0,0.0,0.0,0.0,0.0,0.0,0.0,0.0,0.0,0.0,0.0,0.0,0.0,0.0,0.0,0.0,0.0,0.0,0.0,0.0,0.0,0.0,0.0,0.0,0.0,0.0,0.0,0.0,0.0,0.0,0.0,0.0,0.0,0.0,0.0,0.0,0.0,0.0,0.0,0.0,0.0,0.0,0.0,0.0,0.0,0.0,0.0,0.0,0.0,0.0,0.0,0.0,0.0,0.0,0.0,0.0,0.0,0.0,0.0,0.0,0.0,0.0,0.0,0.0,0.0,0.0,0.0,0.0,0.0,0.0,0.0,0.0,0.0,0.0,0.0,0.0,0.0,0.0,0.0,0.0,0.0,0.0,0.0,0.0,0.0,0.0,0.0,0.0,0.0,0.0,0.0,0.0,0.0,0.0,0.0,0.0,0.0,0.0,0.0,0.0,0.0,0.0,0.0,0.0,0.0,0.0,0.0,0.0,0.0,0.0,0.0,0.0,0.0,0.0,0.0,0.0,0.0,0.0,0.0,0.0,0.0,0.0,0.0,0.0,0.0,0.0,0.0,0.0,0.0,0.0,0.0,0.0,0.0,0.0,0.0,0.0,0.0,0.0,0.0,0.0,0.0,0.0,0.0,0.0,0.0,0.0,0.0,0.0,0.0,0.0,0.0,0.0,0.0,0.0,0.0,0.0,0.0,0.0,0.0,0.0,0.0,0.0,0.0,0.0,0.0,0.0,0.0,0.0,0.0,0.0,0.0,0.0,0.0,0.0,0.0,0.0,0.0,0.0,0.0,0.0,0.0,0.0,0.0,0.0,0.0,0.0,0.0,0.0,0.0,0.0,0.0,0.0,0.0,0.0,0.0,0.0,0.0,0.0,0.0,0.0,0.0,0.0,0.0,0.0,0.0,0.0,0.0,0.0,0.0,0.0,0.0,0.0,0.0,0.0,0.0,0.0,0.0,0.0,0.0,0.0,0.0,0.0,0.0,0.0,0.0,0.0,0.0,0.0,0.0,0.0,0.0,0.0,0.0,0.0,0.0,0.0,0.0,0.0,0.0,0.0,0.0,0.0,0.0,0.0,0.0,0.0,0.0,0.0,0.0,0.0,0.0,0.0,0.0,0.0,0.0,0.0,0.0,0.0,0.0,0.0,0.0,0.0,0.0,0.0,0.0,0.0,0.0,0.0,0.0,0.0,0.0,0.0,0.0,0.0,0.0,0.0,0.0,0.0,0.0,0.0,0.0,0.0,0.0,0.0,0.0,0.0,0.0,0.0,0.0,0.0,0.0,0.0,0.0,0.0,0.0,0.0,0.0,0.0,0.0,0.0,0.0,0.0,0.0,0.0,0.0,0.0,0.0,0.0,0.0,0.0,0.0,0.0,0.0,0.0,0.0,0.0,0.0,0.0,0.0,0.0,0.0,0.0,0.0,0.0,0.0,0.0,0.0,0.0,0.0,0.0,0.0,0.0,0.0,0.0,0.0,0.0,0.0,0.0,0.0,0.0,0.0,0.0,0.0,0.0,0.0,0.0,0.0,0.0,0.0,0.0,0.0,0.0,0.0,0.0,0.0,0.0,0.0,0.0,0.0,0.0,0.0,0.0,0.0,0.0,0.0,0.0,0.0,0.0,0.0,0.0,0.0,0.0,0.0,0.0,0.0,0.0,0.0,0.0,0.0,0.0,0.0,0.0,0.0,0.0,0.0,0.0,0.0,0.0,0.0,0.0,0.0,0.0,0.0,0.0,0.0,0.0,0.0,0.0,0.0,0.0,0.0,0.0,0.0,0.0,0.0,0.0,0.0,0.0,0.0,0.0,0.0,0.0,0.0,0.0,0.0,0.0,0.0,0.0,0.0,0.0,0.0,0.0,0.0,0.0,0.0,0.0,0.0,0.0,0.0,0.0,0.0,0.0,0.0,0.0,0.0,0.0,0.0,0.0,0.0,0.0,0.0,0.0,0.0,0.0,0.0,0.0,0.0,0.0,0.0,0.0,0.0,0.0,0.0,0.0,0.0,0.0,0.0,0.0,0.0,0.0,0.0,0.0,0.0,0.0,0.0,0.0,0.0,0.0,0.0,0.0,0.0,0.0,0.0,0.0,0.0,0.0,0.0,0.0,0.0,0.0,0.0,0.0,0.0,0.0,0.0,0.0,0.0,0.0,0.0,0.0,0.0,0.0,0.0,0.0,0.0,0.0,0.0,0.0,0.0,0.0,0.0,0.0,0.0,0.0,0.0,0.0,0.0,0.0,0.0,0.0,0.0,0.0,0.0,0.0,0.0,0.0,0.0,0.0,0.0,0.0,0.0,0.0,0.0,0.0,0.0,0.0,0.0,0.0,0.0,0.0,0.0,0.0,0.0,0.0,0.0,0.0,0.0,0.0,0.0,0.0,0.0,0.0,0.0,0.0,0.0,0.0,0.0,0.0,0.0,0.0,0.0,0.0,0.0,0.0,0.0,0.0,0.0,0.0,0.0,0.0,0.0,0.0,0.0,0.0,0.0,0.0,0.0,0.0,0.0,0.0,0.0,0.0,0.0,0.0,0.0,0.0,0.0,0.0,0.0,0.0,0.0,0.0,0.0,0.0,0.0,0.0,0.0,0.0,0.0,0.0,0.0,0.0,0.0,0.0,0.0,0.0,0.0,0.0,0.0,0.0,0.0,0.0,0.0,0.0,0.0,0.0,0.0,0.0,0.0,0.0,0.0,0.0,0.0,0.0,0.0,0.0,0.0,0.0,0.0,0.0,0.0,0.0,0.0,0.0,0.0,0.0,0.0,0.0,0.0,0.0,0.0,0.0,0.0,0.0,0.0,0.0,0.0,0.0,0.0,0.0,0.0,0.0,0.0,0.0,0.0,0.0,0.0,0.0,0.0,0.0,0.0,0.0,0.0,0.0,0.0,0.0,0.0,0.0,0.0,0.0,0.0,0.0,0.0,0.0,0.0,0.0,0.0,0.0,0.0,0.0,0.0,0.0,0.0,0.0,0.0,0.0,0.0,0.0,0.0,0.0,0.0,0.0,0.0,0.0,0.0,0.0,0.0,0.0,0.0,0.0,0.0,0.0,0.0,0.0,0.0,0.0,0.0,0.0,0.0,0.0,0.0,0.0,0.0,0.0,0.0,0.0,0.0,0.0,0.0,0.0,0.0,0.0,0.0,0.0,0.0,0.0,0.0,0.0,0.0,0.0,0.0,0.0,0.0,0.0,0.0,0.0,0.0,0.0,0.0,0.0,0.0,0.0,0.0,0.0,0.0,0.0,0.0,0.0,0.0,0.0,0.0,0.0,0.0,0.0,0.0,0.0,0.0,0.0,0.0,0.0,0.0,0.0,0.0,0.0,0.0,0.0,0.0,0.0,0.0,0.0,0.0,0.0,0.0,0.0,0.0,0.0,0.0,0.0,0.0,0.0,0.8939,0.0,0.0,0.0,0.0,0.0,0.0,0.0,0.0,0.0,0.0,0.0,0.0,0.0,0.0,0.0,0.0,0.0,0.0,0.0,0.0,0.0,0.0,0.0,0.0,0.0,0.0,0.0,0.0,0.0,0.0,0.0,0.0,0.0,0.0,0.0,0.0,0.0,0.0,0.0,0.0,0.0,0.0,0.0,0.0,0.0,0.0,0.0,0.0,0.0,0.0,0.0,0.0,0.0,0.0,0.0,0.0,0.0,0.0,0.0,0.0,0.0,0.0,0.0,0.0,0.0,0.0,0.0,0.0,0.0,0.0,0.0,0.0,0.0,0.0,0.0,0.0,0.0,0.0,0.0,0.0,0.0,0.0,0.0,0.0,0.0,0.0,0.0,0.0,0.0,0.0,0.0,0.0,0.0,0.0,0.0,0.0,0.0,0.0,0.0,0.0,0.0,0.0,0.0,0.0,0.0,0.0,0.0,0.0,0.0,0.0,0.9021,0.9002,0.8855,0.8827,0.8999,0.0,0.0,0.0,0.0,0.0,0.0,0.0,0.0,0.0,0.0,0.0,0.0,0.0,0.0,0.0,0.0,0.0,0.0,0.0,0.0,0.0,0.0,0.0,0.0,0.0,0.0,0.0,0.0,0.0,0.0,0.0,0.0,0.0,0.0,0.0,0.0,0.0,0.0,0.0,0.0,0.0,0.0,0.0,0.0,0.0,0.0,0.0,0.0,0.0,0.0,0.0,0.0,0.0,0.0,0.0,0.0,0.0,0.0,0.0,0.0,0.0,0.0,0.0,0.0,0.0,0.0,0.0,0.0,0.0,0.0,0.0,0.0,0.0,0.0,0.0,0.0,0.0,0.0,0.0,0.0,0.0,0.0,0.0,0.0,0.0,0.0,0.0,0.0,0.0,0.0,0.0,0.0,0.0,0.0,0.0,0.0,0.0,0.0,0.0,0.0,0.0,0.0,0.0,0.0,0.0,0.0,0.0,0.0,0.0,0.0,0.0,0.0,0.9213,0.9165,0.9263,0.0,0.0,0.0,0.0,0.0,0.0,0.0,0.0,0.0,0.0,0.0,0.0,0.0,0.0,0.0,0.0,0.0,0.0,0.0,0.0,0.0,0.0,0.0,0.0,0.0,0.0,0.0,0.0,0.0,0.0,0.0,0.0,0.0,0.0,0.0,0.0,0.0,0.0,0.0,0.0,0.0,0.0,0.0,0.0,0.0,0.0,0.0,0.0,0.0,0.0,0.0,0.0,0.0,0.0,0.0,0.0,0.0,0.0,0.0,0.0,0.0,0.0,0.0,0.0,0.0,0.0,0.0,0.0,0.0,0.0,0.0,0.0,0.0,0.0,0.0,0.0,0.0,0.0,0.0,0.0,0.0,0.0,0.0,0.0,0.0,0.0,0.0,0.0,0.0,0.0,0.0,0.0,0.0,0.0,0.0,0.0,0.0,0.0,0.0,0.0,0.0,0.0,0.0,0.0,0.0,0.0,0.0,0.0,0.0,0.0,0.9412,1.0086,1.008,0.0,1.009,0.0,0.0,0.0,0.0,0.0,0.0,0.0,0.0,0.0,0.0,0.0,0.0,0.0,0.0,0.0,0.0,0.0,0.0,0.0,0.0,0.0,0.0,0.0,0.0,0.0,0.0,0.0,0.0,0.0,0.0,0.0,0.0,0.0,0.0,0.0,0.0,0.0,0.0,0.0,0.0,0.0,0.0,0.0,0.0,0.0,0.0,0.0,0.0,0.0,0.0,0.0,0.0,0.0,0.0,0.0,0.0,0.0,0.0,0.0,0.0,0.0,0.0,0.0,0.0,0.0,0.0,0.0,0.0,0.0,0.0,0.0,0.0,0.0,0.0,0.0,0.0,0.0,0.0,0.0,0.0,0.0,0.0,0.0,0.0,0.0,0.0,0.0,0.0,0.0,0.0,0.0,0.0,0.0,0.0,0.0,0.0,0.0,0.0,0.0,0.0,0.0,0.0,0.0,0.0,0.0,0.0,0.0,0.0,0.0,0.0,0.989,1.0183,1.0201,1.0186,0.0,0.0,0.0,0.0,0.0,0.0,0.0,0.0,0.0,0.0,0.0,0.0,0.0,0.0,0.0,0.0,0.0,0.0,0.0,0.0,0.0,0.0,0.0,0.0,0.0,0.0,0.0,0.0,0.0,0.0,0.0,0.0,0.0,0.0,0.0,0.0,0.0,0.0,0.0,0.0,0.0,0.0,0.0,0.0,0.0,0.0,0.0,0.0,0.0,0.0,0.0,0.0,0.0,0.0,0.0,0.0,0.0,0.0,0.0,0.0,0.0,0.0,0.0,0.0,0.0,0.0,0.0,0.0,0.0,0.0,0.0,0.0,0.0,0.0,0.0,0.0,0.0,0.0,0.0,0.0,0.0,0.0,0.0,0.0,0.0,0.0,0.0,0.0,0.0,0.0,0.0,0.0,0.0,0.0,0.0,0.0,0.0,0.0,0.0,0.0,0.0,0.0,0.0,0.0,0.0,0.0,0.0,0.0,0.0,0.0,1.008,1.0324,1.05,1.0535,1.0436,1.0214,0.0,0.0,0.0,0.0,0.0,0.0,0.0,0.0,0.0,0.0,0.0,0.0,0.0,0.0,0.0,0.0,0.0,0.0,0.0,0.0,0.0,0.0,0.0,0.0,0.0,0.0,0.0,0.0,0.0,0.0,0.0,0.0,0.0,0.0,0.0,0.0,0.0,0.0,0.0,0.0,0.0,0.0,0.0,0.0,0.0,0.0,0.0,0.0,0.0,0.0,0.0,0.0,0.0,0.0,0.0,0.0,0.0,0.0,0.0,0.0,0.0,0.0,0.0,0.0,0.0,0.0,0.0,0.0,0.0,0.0,0.0,0.0,0.0,0.0,0.0,0.0,0.0,0.0,0.0,0.0,0.0,0.0,0.0,0.0,0.0,0.0,0.0,0.0,0.0,0.0,0.0,0.0,0.0,0.0,0.0,0.0,0.0,0.0,0.0,0.0,0.0,0.0,0.0,0.0,0.0,0.0,0.0,0.0,1.1258,1.0667,1.0647,1.1322,1.1353,1.0991,0.0,0.0,0.0,0.0,0.0,0.0,0.0,0.0,0.0,0.0,0.0,0.0,0.0,0.0,0.0,0.0,0.0,0.0,0.0,0.0,0.0,0.0,0.0,0.0,0.0,0.0,0.0,0.0,0.0,0.0,0.0,0.0,0.0,0.0,0.0,0.0,0.0,0.0,0.0,0.0,0.0,0.0,0.0,0.0,0.0,0.0,0.0,0.0,0.0,0.0,0.0,0.0,0.0,0.0,0.0,0.0,0.0,0.0,0.0,0.0,0.0,0.0,0.0,0.0,0.0,0.0,0.0,0.0,0.0,0.0,0.0,0.0,0.0,0.0,0.0,0.0,0.0,0.0,0.0,0.0,0.0,0.0,0.0,0.0,0.0,0.0,0.0,0.0,0.0,0.0,0.0,0.0,0.0,0.0,0.0,0.0,0.0,0.0,0.0,0.0,0.0,0.0,0.0,0.0,0.0,0.0,0.0,0.0,0.0,1.0009,1.0218,1.0893,1.2023,1.1156,1.0712,0.0,0.0,0.0,0.0,0.0,0.0,0.0,0.0,0.0,0.0,0.0,0.0,0.0,0.0,0.0,0.0,0.0,0.0,0.0,0.0,0.0,0.0,0.0,0.0,0.0,0.0,0.0,0.0,0.0,0.0,0.0,0.0,0.0,0.0,0.0,0.0,0.0,0.0,0.0,0.0,0.0,0.0,0.0,0.0,0.0,0.0,0.0,0.0,0.0,0.0,0.0,0.0,0.0,0.0,0.0,0.0,0.0,0.0,0.0,0.0,0.0,0.0,0.0,0.0,0.0,0.0,0.0,0.0,0.0,0.0,0.0,0.0,0.0,0.0,0.0,0.0,0.0,0.0,0.0,0.0,0.0,0.0,0.0,0.0,0.0,0.0,0.0,0.0,0.0,0.0,0.0,0.0,0.0,0.0,0.0,0.0,0.0,0.0,0.0,0.0,0.0,0.0,0.0,0.0,0.0,0.0,0.0,0.0,0.0,0.9942,0.0,1.1416,1.2072,1.1141,1.0586,0.0,0.0,0.0,0.0,0.0,0.0,0.0,0.0,0.0,0.0,0.0,0.0,0.0,0.0,0.0,0.0,0.0,0.0,0.0,0.0,0.0,0.0,0.0,0.0,0.0,0.0,0.0,0.0,0.0,0.0,0.0,0.0,0.0,0.0,0.0,0.0,0.0,0.0,0.0,0.0,0.0,0.0,0.0,0.0,0.0,0.0,0.0,0.0,0.0,0.0,0.0,0.0,0.0,0.0,0.0,0.0,0.0,0.0,0.0,0.0,0.0,0.0,0.0,0.0,0.0,0.0,0.0,0.0,0.0,0.0,0.0,0.0,0.0,0.0,0.0,0.0,0.0,0.0,0.0,0.0,0.0,0.0,0.0,0.0,0.0,0.0,0.0,0.0,0.0,0.0,0.0,0.0,0.0,0.0,0.0,0.0,0.0,0.0,0.0,0.0,0.0,0.0,0.0,0.0,0.0,0.0,0.0,0.0,1.0035,1.1416,1.22,1.2229,1.1485,1.1381,1.0669,0.0,0.0,0.0,0.0,0.0,0.0,0.0,0.0,0.0,0.0,0.0,0.0,0.0,0.0,0.0,0.0,0.0,0.0,0.0,0.0,0.0,0.0,0.0,0.0,0.0,0.0,0.0,0.0,0.0,0.0,0.0,0.0,0.0,0.0,0.0,0.0,0.0,0.0,0.0,0.0,0.0,0.0,0.0,0.0,0.0,0.0,0.0,0.0,0.0,0.0,0.0,0.0,0.0,0.0,0.0,0.0,0.0,0.0,0.0,0.0,0.0,0.0,0.0,0.0,0.0,0.0,0.0,0.0,0.0,0.0,0.0,0.0,0.0,0.0,0.0,0.0,0.0,0.0,0.0,0.0,0.0,0.0,0.0,0.0,0.0,0.0,0.0,0.0,0.0,0.0,0.0,0.0,0.0,0.0,0.0,0.0,0.0,0.0,0.0,0.0,0.0,0.0,0.0,0.0,0.0,0.0,0.0,0.0,0.0,1.0744,1.1476,1.2253,1.2955,1.1479,1.0919,0.0,0.0,0.0,0.0,0.0,0.0,0.0,0.0,0.0,0.0,0.0,0.0,0.0,0.0,0.0,0.0,0.0,0.0,0.0,0.0,0.0,0.0,0.0,0.0,0.0,0.0,0.0,0.0,0.0,0.0,0.0,0.0,0.0,0.0,0.0,0.0,0.0,0.0,0.0,0.0,0.0,0.0,0.0,0.0,0.0,0.0,0.0,0.0,0.0,0.0,0.0,0.0,0.0,0.0,0.0,0.0,0.0,0.0,0.0,0.0,0.0,0.0,0.0,0.0,0.0,0.0,0.0,0.0,0.0,0.0,0.0,0.0,0.0,0.0,0.0,0.0,0.0,0.0,0.0,0.0,0.0,0.0,0.0,0.0,0.0,0.0,0.0,0.0,0.0,0.0,0.0,0.0,0.0,0.0,0.0,0.0,0.0,0.0,0.0,0.0,0.0,0.0,0.0,0.0,0.0,0.0,0.0,0.0,0.0,1.1394,1.2255,1.307,1.3777,1.2093,1.1364,1.17,0.0,0.0,0.0,0.0,0.0,0.0,0.0,0.0,0.0,0.0,0.0,0.0,0.0,0.0,0.0,0.0,0.0,0.0,0.0,0.0,0.0,0.0,0.0,0.0,0.0,0.0,0.0,0.0,0.0,0.0,0.0,0.0,0.0,0.0,0.0,0.0,0.0,0.0,0.0,0.0,0.0,0.0,0.0,0.0,0.0,0.0,0.0,0.0,0.0,0.0,0.0,0.0,0.0,0.0,0.0,0.0,0.0,0.0,0.0,0.0,0.0,0.0,0.0,0.0,0.0,0.0,0.0,0.0,0.0,0.0,0.0,0.0,0.0,0.0,0.0,0.0,0.0,0.0,0.0,0.0,0.0,0.0,0.0,0.0,0.0,0.0,0.0,0.0,0.0,0.0,0.0,0.0,0.0,0.0,0.0,0.0,0.0,0.0,0.0,0.0,0.0,0.0,0.0,0.0,0.0,0.0,0.0,0.0,1.2969,1.4298,1.4696,1.4049,1.3148,1.1989,0.0,0.0,0.0,0.0,0.0,0.0,0.0,0.0,0.0,0.0,0.0,0.0,0.0,0.0,0.0,0.0,0.0,0.0,0.0,0.0,0.0,0.0,0.0,0.0,0.0,0.0,0.0,0.0,0.0,0.0,0.0,0.0,0.0,0.0,0.0,0.0,0.0,0.0,0.0,0.0,0.0,0.0,0.0,0.0,0.0,0.0,0.0,0.0,0.0,0.0,0.0,0.0,0.0,0.0,0.0,0.0,0.0,0.0,0.0,0.0,0.0,0.0,0.0,0.0,0.0,0.0,0.0,0.0,0.0,0.0,0.0,0.0,0.0,0.0,0.0,0.0,0.0,0.0,0.0,0.0,0.0,0.0,0.0,0.0,0.0,0.0,0.0,0.0,0.0,0.0,0.0,0.0,0.0,0.0,0.0,0.0,0.0,0.0,0.0,0.0,0.0,0.0,0.0,0.0,0.0,0.0,0.0,0.0,0.0,1.377,1.6251,1.7192,1.6299,1.3977,1.2683,0.0,0.0,0.0,0.0,0.0,0.0,0.0,0.0,0.0,0.0,0.0,0.0,0.0,0.0,0.0,0.0,0.0,0.0,0.0,0.0,0.0,0.0,0.0,0.0,0.0,0.0,0.0,0.0,0.0,0.0,0.0,0.0,0.0,0.0,0.0,0.0,0.0,0.0,0.0,0.0,0.0,0.0,0.0,0.0,0.0,0.0,0.0,0.0,0.0,0.0,0.0,0.0,0.0,0.0,0.0,0.0,0.0,0.0,0.0,0.0,0.0,0.0,0.0,0.0,0.0,0.0,0.0,0.0,0.0,0.0,0.0,0.0,0.0,0.0,0.0,0.0,0.0,0.0,0.0,0.0,0.0,0.0,0.0,0.0,0.0,0.0,0.0,0.0,0.0,0.0,0.0,0.0,0.0,0.0,0.0,0.0,0.0,0.0,0.0,0.0,0.0,0.0,0.0,0.0,0.0,0.0,0.0,0.0,1.3701,1.4553,1.7196,1.8303,1.7677,1.5709,1.4149,0.0,0.0,0.0,0.0,0.0,0.0,0.0,0.0,0.0,0.0,0.0,0.0,0.0,0.0,0.0,0.0,0.0,0.0,0.0,0.0,0.0,0.0,0.0,0.0,0.0,0.0,0.0,0.0,0.0,0.0,0.0,0.0,0.0,0.0,0.0,0.0,0.0,0.0,0.0,0.0,0.0,0.0,0.0,0.0,0.0,0.0,0.0,0.0,0.0,0.0,0.0,0.0,0.0,0.0,0.0,0.0,0.0,0.0,0.0,0.0,0.0,0.0,0.0,0.0,0.0,0.0,0.0,0.0,0.0,0.0,0.0,0.0,0.0,0.0,0.0,0.0,0.0,0.0,0.0,0.0,0.0,0.0,0.0,0.0,0.0,0.0,0.0,0.0,0.0,0.0,0.0,0.0,0.0,0.0,0.0,0.0,0.0,0.0,0.0,0.0,0.0,0.0,0.0,0.0,0.0,0.0,0.0,0.0,1.4553,1.5425,1.7591,1.8616,1.8311,1.7493,1.5718,0.0,0.0,0.0,0.0,0.0,0.0,0.0,0.0,0.0,0.0,0.0,0.0,0.0,0.0,0.0,0.0,0.0,0.0,0.0,0.0,0.0,0.0,0.0,0.0,0.0,0.0,0.0,0.0,0.0,0.0,0.0,0.0,0.0,0.0,0.0,0.0,0.0,0.0,0.0,0.0,0.0,0.0,0.0,0.0,0.0,0.0,0.0,0.0,0.0,0.0,0.0,0.0,0.0,0.0,0.0,0.0,0.0,0.0,0.0,0.0,0.0,0.0,0.0,0.0,0.0,0.0,0.0,0.0,0.0,0.0,0.0,0.0,0.0,0.0,0.0,0.0,0.0,0.0,0.0,0.0,0.0,0.0,0.0,0.0,0.0,0.0,0.0,0.0,0.0,0.0,0.0,0.0,0.0,0.0,0.0,0.0,0.0,0.0,0.0,0.0,0.0,0.0,0.0,0.0,0.0,0.0,0.0,0.0,1.5533,1.6269,1.8494,1.9341,1.8542,1.6563,1.4767,0.0,0.0,0.0,0.0,0.0,0.0,0.0,0.0,0.0,0.0,0.0,0.0,0.0,0.0,0.0,0.0,0.0,0.0,0.0,0.0,0.0,0.0,0.0,0.0,0.0,0.0,0.0,0.0,0.0,0.0,0.0,0.0,0.0,0.0,0.0,0.0,0.0,0.0,0.0,0.0,0.0,0.0,0.0,0.0,0.0,0.0,0.0,0.0,1.1243,0.0,0.0,0.0,0.0,0.0,0.0,0.0,0.0,0.0,0.0,0.0,0.0,0.0,0.0,0.0,0.0,0.0,0.0,0.0,0.0,0.0,0.0,0.0,0.0,0.0,0.0,0.0,0.0,0.0,0.0,0.0,0.0,0.0,0.0,0.0,0.0,0.0,0.0,0.0,0.0,0.0,0.0,0.0,0.0,0.0,0.0,0.0,0.0,0.0,0.0,0.0,0.0,0.0,0.0,0.0,0.0,0.0,0.0,0.0,1.5699,1.6876,1.8461,1.9043,1.8476,1.6936,1.5262,0.0,0.0,0.0,0.0,0.0,0.0,0.0,0.0,0.0,0.0,0.0,0.0,0.0,0.0,0.0,0.0,0.0,0.0,0.0,0.0,0.0,0.0,0.0,0.0,0.0,0.0,0.0,0.0,0.0,0.0,0.0,0.0,0.0,0.0,0.0,0.0,0.0,0.0,0.0,0.0,0.0,0.0,0.0,0.0,0.0,0.0,0.0,0.0,0.0,0.0,0.0,0.0,0.0,0.0,0.0,0.0,0.0,0.0,0.0,0.0,0.0,0.0,0.0,0.0,0.0,0.0,0.0,0.0,0.0,0.0,0.0,0.0,0.0,0.0,0.0,0.0,0.0,0.0,0.0,0.0,0.0,0.0,0.0,0.0,0.0,0.0,0.0,0.0,0.0,0.0,0.0,0.0,0.0,0.0,0.0,0.0,0.0,0.0,0.0,0.0,0.0,0.0,0.0,0.0,0.0,0.0,0.0,1.4149,1.5658,1.742,1.8151,1.8427,1.8358,1.7715,1.6202,1.3802,0.0,0.0,0.0,0.0,0.0,0.0,0.0,0.0,0.0,0.0,0.0,0.0,0.0,0.0,0.0,0.0,0.0,0.0,0.0,0.0,0.0,0.0,0.0,0.0,0.0,0.0,0.0,0.0,0.0,0.0,0.0,0.0,0.0,0.0,0.0,0.0,0.0,0.0,1.2043,1.4269,0.0,0.0,0.0,0.0,0.0,0.0,0.0,0.0,1.2392,0.0,0.0,0.0,0.0,0.0,0.0,0.0,0.0,0.0,0.0,0.0,0.0,0.0,0.0,0.0,0.0,0.0,0.0,0.0,0.0,0.0,0.0,0.0,0.0,0.0,0.0,0.0,0.0,0.0,0.0,0.0,0.0,0.0,0.0,0.0,0.0,0.0,0.0,0.0,0.0,0.0,0.0,0.0,0.0,0.0,0.0,0.0,0.0,0.0,0.0,0.0,0.0,0.0,0.0,0.0,0.0,1.4491,1.4906,1.6177,1.8306,1.835,1.8305,1.8213,1.7917,1.6428,1.3791,0.0,0.0,0.0,0.0,0.0,0.0,0.0,0.0,0.0,0.0,0.0,0.0,0.0,0.0,0.0,0.0,0.0,0.0,0.0,0.0,0.0,0.0,0.0,0.0,0.0,0.0,0.0,0.0,0.0,0.0,0.0,0.0,0.0,0.0,0.0,0.0,0.0,0.0,0.0,1.6397,1.7042,0.0,0.0,0.0,0.0,0.0,0.0,0.0,0.0,1.2171,0.0,0.0,0.0,0.0,0.0,0.0,0.0,0.0,0.0,0.0,0.0,0.0,0.0,0.0,0.0,0.0,0.0,0.0,0.0,0.0,0.0,0.0,0.0,0.0,0.0,0.0,0.0,0.0,0.0,0.0,0.0,0.0,0.0,0.0,0.0,0.0,0.0,0.0,0.0,0.0,0.0,0.0,0.0,0.0,0.0,0.0,0.0,0.0,0.0,0.0,0.0,0.0,0.0,0.0,0.0,1.4198,1.5084,1.6447,1.8365,1.8383,1.8307,1.8203,1.7398,1.5926,0.0,0.0,0.0,0.0,0.0,0.0,0.0,0.0,0.0,0.0,0.0,0.0,0.0,0.0,0.0,0.0,0.0,0.0,0.0,0.0,0.0,0.0,0.0,0.0,0.0,0.0,0.0,0.0,0.0,0.0,0.0,0.0,0.0,0.0,0.0,0.0,0.0,0.0,0.0,0.0,1.7296,1.8369,1.7548,0.0,0.0,0.0,0.0,0.0,0.0,1.4299,1.3591,0.0,0.0,0.0,0.0,0.0,0.0,0.0,0.0,0.0,0.0,0.0,0.0,0.0,0.0,0.0,0.0,0.0,0.0,0.0,0.0,0.0,0.0,0.0,0.0,0.0,0.0,0.0,0.0,0.0,0.0,0.0,0.0,0.0,0.0,0.0,0.0,0.0,0.0,0.0,0.0,0.0,0.0,0.0,0.0,0.0,0.0,0.0,0.0,0.0,0.0,0.0,0.0,0.0,0.0,0.0,1.3681,1.4929,1.6443,1.818,1.8309,1.8274,1.8133,1.6983,1.5501,0.0,0.0,0.0,0.0,0.0,0.0,0.0,0.0,0.0,0.0,0.0,0.0,0.0,0.0,0.0,0.0,0.0,0.0,0.0,0.0,0.0,0.0,0.0,0.0,0.0,0.0,0.0,0.0,0.0,0.0,0.0,0.0,0.0,0.0,0.0,0.0,0.0,0.0,0.0,0.0,0.0,1.969,1.9331,1.8675,0.0,0.0,0.0,0.0,1.6579,1.6337,0.0,0.0,0.0,0.0,0.0,0.0,0.0,0.0,0.0,0.0,0.0,0.0,0.0,0.0,0.0,0.0,0.0,0.0,0.0,0.0,0.0,0.0,0.0,0.0,0.0,0.0,0.0,0.0,0.0,0.0,0.0,0.0,0.0,0.0,0.0,0.0,0.0,0.0,0.0,0.0,0.0,0.0,0.0,0.0,0.0,0.0,0.0,0.0,0.0,0.0,0.0,0.0,0.0,0.0,0.0,0.0,1.3621,1.4396,1.5863,1.805,1.8097,1.8037,1.8004,1.718,1.579,0.0,0.0,0.0,0.0,0.0,0.0,0.0,0.0,0.0,0.0,0.0,0.0,0.0,0.0,0.0,0.0,0.0,0.0,0.0,0.0,0.0,0.0,0.0,0.0,0.0,0.0,0.0,0.0,0.0,0.0,0.0,0.0,0.0,0.0,0.0,0.0,0.0,0.0,0.0,0.0,0.0,2.0964,1.9421,1.9126,1.9243,0.0,0.0,1.8422,2.0603,1.9733,0.0,0.0,0.0,0.0,0.0,0.0,0.0,0.0,0.0,0.0,0.0,0.0,0.0,0.0,0.0,0.0,0.0,0.0,0.0,0.0,0.0,0.0,0.0,0.0,0.0,0.0,0.0,0.0,0.0,0.0,0.0,0.0,0.0,0.0,0.0,0.0,0.0,0.0,0.0,0.0,0.0,0.0,0.0,0.0,0.0,0.0,0.0,0.0,0.0,0.0,0.0,0.0,0.0,0.0,0.0,1.2143,1.3619,1.517,1.6689,1.8126,1.8102,1.8037,1.8011,1.6443,1.4984,0.0,0.0,0.0,0.0,0.0,0.0,0.0,0.0,0.0,0.0,0.0,0.0,0.0,0.0,0.0,0.0,0.0,0.0,0.0,0.0,0.0,0.0,0.0,0.0,0.0,0.0,0.0,0.0,0.0,0.0,0.0,0.0,0.0,0.0,0.0,0.0,0.0,0.0,0.0,0.0,0.0,0.0,2.1368,2.1423,0.0,0.0,0.0,2.0501,2.1593,0.0,0.0,0.0,0.0,0.0,0.0,0.0,0.0,0.0,0.0,0.0,0.0,0.0,0.0,0.0,0.0,0.0,0.0,0.0,0.0,0.0,0.0,0.0,0.0,0.0,0.0,0.0,0.0,0.0,0.0,0.0,0.0,0.0,0.0,0.0,0.0,0.0,0.0,0.0,0.0,0.0,0.0,0.0,0.0,0.0,0.0,0.0,0.0,0.0,0.0,0.0,0.0,0.0,0.0,0.0,0.0,0.0,1.3647,1.5791,1.7338,1.8101,1.8064,1.8004,1.7943,1.5982,0.0,0.0,0.0,0.0,0.0,0.0,0.0,0.0,0.0,0.0,0.0,0.0,0.0,0.0,0.0,0.0,0.0,0.0,0.0,0.0,0.0,0.0,0.0,0.0,0.0,0.0,0.0,0.9926,0.0,0.0,0.0,0.0,0.0,0.0,0.0,0.0,0.0,0.0,0.0,0.0,0.0,0.0,2.1375,2.2856,2.3283,2.3258,0.0,0.0,2.2495,2.2695,2.2146,2.0914,0.0,0.0,0.0,0.0,0.0,0.0,0.0,0.0,0.0,0.0,0.0,0.0,0.0,0.0,0.0,0.0,0.0,0.0,0.0,0.0,0.0,0.0,0.0,0.0,0.0,0.0,0.0,0.0,0.0,0.0,0.0,0.0,0.0,0.0,0.0,0.0,0.0,0.0,0.0,0.0,0.0,0.0,0.0,0.0,0.0,0.0,0.0,0.0,0.0,0.0,0.0,0.0,0.0,0.0,0.0,1.3717,1.568,1.7152,1.7965,1.7883,1.785,1.7877,1.6316,1.484,0.0,0.0,0.0,0.0,0.0,0.0,0.0,0.0,0.0,0.0,0.0,0.0,0.0,0.0,0.0,0.0,0.0,0.0,0.0,0.0,0.0,0.0,0.0,0.0,0.0,0.0,0.0,0.0,0.0,0.0,0.0,0.0,0.0,0.0,0.0,0.0,0.0,0.0,0.0,0.0,0.0,2.2044,2.2892,2.3753,2.4547,0.0,0.0,2.4404,2.5115,2.5215,2.3864,1.979,0.0,0.0,0.0,0.0,0.0,0.0,0.0,0.0,0.0,0.0,0.0,0.0,0.0,0.0,0.0,0.0,0.0,0.0,0.0,0.0,0.0,0.0,0.0,0.0,0.0,0.0,0.0,0.0,0.0,0.0,0.0,0.0,0.0,0.0,0.0,0.0,0.0,0.0,0.0,0.0,0.0,0.0,0.0,0.0,0.0,0.0,0.0,0.0,0.0,0.0,0.0,0.0,0.0,1.3219,1.3417,1.6131,1.7654,1.7822,1.7883,1.7917,1.7894,1.6817,1.5303,0.0,0.0,0.0,0.0,0.0,0.0,0.0,0.0,0.0,0.0,0.0,0.0,0.0,0.0,0.0,0.0,0.0,0.0,0.0,0.0,0.0,0.0,0.0,0.0,0.0,0.0,0.0,0.0,1.0416,1.0572,1.0149,0.0,0.0,0.0,0.0,0.0,0.0,0.0,0.0,0.0,0.0,2.2967,2.4345,2.4851,0.0,0.0,2.5229,2.5157,2.5457,2.4611,2.3205,2.103,1.9503,0.0,0.0,0.0,0.0,0.0,0.0,0.0,0.0,0.0,0.0,0.0,0.0,0.0,0.0,0.0,0.0,0.0,0.0,0.0,0.0,0.0,0.0,0.0,0.0,0.0,0.0,0.0,0.0,0.0,0.0,0.0,0.0,0.0,0.0,0.0,0.0,0.0,0.0,0.0,0.0,0.0,0.0,0.0,0.0,0.0,0.0,0.0,0.0,0.0,0.0,0.0,0.0,1.3299,1.3191,1.622,1.7732,1.7607,1.776,1.7839,1.7838,1.6996,1.5553,0.0,0.0,0.0,0.0,0.0,0.0,0.0,0.0,0.0,0.0,0.0,0.0,0.0,0.0,0.0,0.0,0.0,0.0,0.0,0.0,0.0,0.0,0.0,0.0,0.0,0.0,0.0,0.0,1.063,1.0633,1.0139,0.0,0.0,0.0,0.0,0.0,0.0,0.0,0.0,0.0,0.0,2.3533,2.5217,2.5482,2.552,2.5508,2.5491,2.5461,2.5478,2.4447,2.3268,2.2132,0.0,0.0,0.0,0.0,0.0,0.0,0.0,0.0,0.0,0.0,0.0,0.0,0.0,0.0,0.0,0.0,0.0,0.0,0.0,0.0,0.0,0.0,0.0,0.0,0.0,0.0,0.0,0.0,0.0,0.0,0.5535,0.0,0.0,0.0,0.0,0.0,0.0,0.0,0.0,0.0,0.0,0.0,0.0,0.0,0.0,0.0,0.0,0.0,0.0,0.0,0.0,0.0,0.0,1.3112,1.3151,1.5791,1.7234,1.7417,1.7419,1.7559,1.7755,1.6724,1.556,1.4368,0.0,0.0,0.0,0.0,0.0,0.0,0.0,0.0,0.0,0.0,0.0,0.0,0.0,0.0,0.0,0.0,0.0,0.0,0.0,0.0,0.0,0.0,0.0,0.0,0.0,0.0,1.1152,1.0476,1.0048,0.0,0.0,0.0,0.0,0.0,0.0,0.0,0.0,0.0,0.0,2.2342,2.3578,2.5176,2.5452,2.5531,2.5519,2.5454,2.5402,2.5391,2.534,2.4777,0.0,0.0,0.0,0.0,0.0,0.0,0.0,0.0,0.0,0.0,0.0,0.0,0.0,0.0,0.0,0.0,0.0,0.0,0.0,0.0,0.0,0.0,0.0,0.0,0.0,0.0,0.0,0.6349,0.5966,0.0,0.0,0.0,0.0,0.0,0.0,0.0,0.0,0.0,0.0,0.0,1.2779,1.2706,0.0,0.0,0.0,0.0,0.0,0.0,0.0,0.0,0.0,0.0,0.0,0.0,1.3216,1.3665,1.6322,1.7711,1.76,1.7769,1.7659,1.7222,1.6832,1.5733,1.386,0.0,0.0,0.0,0.0,0.0,0.0,0.0,0.0,0.0,0.0,0.0,0.0,0.0,0.0,0.0,0.0,0.0,0.0,0.0,0.0,0.0,0.0,0.0,0.0,0.0,1.1142,0.0,0.0,0.0,0.0,0.0,0.0,0.0,0.0,0.0,0.0,0.0,2.0463,2.214,2.3662,2.4776,2.5274,2.5849,2.6025,0.0,0.0,0.0,0.0,0.0,0.0,0.0,0.0,0.0,0.0,0.0,0.0,0.0,0.0,2.2353,1.8409,1.7247,1.695,1.7219,0.0,0.0,0.0,0.0,0.0,0.0,0.0,0.0,0.0,0.0,0.0,0.0,0.0,0.0,0.6852,0.0,0.6687,0.0,0.0,0.0,0.0,0.0,0.0,0.0,0.0,1.2478,1.3432,1.4045,1.4039,1.4062,0.0,1.3644,1.2727,0.0,0.0,0.0,0.0,0.0,0.0,0.0,0.0,1.3388,1.4405,1.6648,1.7876,1.8002,1.7927,1.7682,1.7252,1.6706,1.5518,1.3599,1.2378,1.1109,0.0,0.0,0.0,0.0,0.0,0.0,0.0,0.0,0.0,0.0,0.0,0.0,0.0,0.0,0.0,0.0,0.0,0.0,0.0,0.0,0.0,0.0,0.0,1.1773,0.0,0.0,0.0,0.0,0.0,0.0,0.0,0.0,0.0,1.7782,2.0176,2.2439,2.3896,2.4805,2.5457,2.5714,0.0,0.0,0.0,0.0,0.0,0.0,0.0,2.5587,2.612,2.5777,2.5491,2.5712,2.6464,2.6774,2.5906,0.0,0.0,2.1156,1.9863,1.9575,1.9863,1.9961,2.0248,2.103,2.1708,2.2494,0.0,0.0,0.0,0.0,0.0,0.0,0.0,0.0,0.6808,0.6893,0.0,0.7546,0.0,0.0,0.0,0.0,0.0,1.0589,0.0,0.0,1.3896,1.4888,1.4942,1.5233,1.5503,1.5739,1.6135,1.5614,1.4253,1.2025,0.0,0.0,0.0,0.0,0.0,0.0,1.3627,1.5418,1.6739,1.7761,1.8556,1.7896,1.7629,1.7743,1.631,1.4945,1.3706,1.3313,1.2417,1.0912,0.985,0.0,0.0,0.0,0.0,0.0,0.0,0.0,0.0,0.0,0.0,0.0,0.0,0.0,0.0,0.0,0.0,0.0,0.0,0.0,0.0,1.3282,0.0,0.0,0.0,0.0,0.0,0.0,0.0,0.0,0.0,0.0,2.0463,2.1806,2.3729,2.6198,0.0,0.0,0.0,0.0,2.6676,2.6637,2.7371,2.7912,2.7871,2.7893,2.7934,2.7972,0.0,0.0,2.6871,2.7428,2.772,2.6849,2.739,2.7393,2.5632,2.3966,2.324,2.3954,2.405,2.4416,2.5231,2.6205,2.7407,0.4911,0.0,0.0,0.0,0.0,0.75,0.7934,0.8259,0.8138,0.7963,0.7726,0.7752,0.0,0.0,0.0,0.0,0.0,0.0,1.2006,1.2902,1.3876,1.4716,1.5387,1.5597,1.5868,1.6196,1.6242,1.6068,1.5685,1.4692,1.3269,1.1448,0.0,0.0,0.0,0.0,1.4723,1.662,1.7874,1.8631,1.8876,1.8208,1.7379,1.6428,1.5878,1.5149,1.4266,1.4155,1.3437,1.2009,1.1227,0.0,0.0,0.0,0.0,0.0,0.0,0.0,0.0,0.0,0.0,0.0,0.0,0.0,0.0,0.0,0.0,0.0,0.0,0.0,1.2336,1.2995,1.3535,0.0,0.0,0.0,0.0,0.0,0.0,0.0,0.0,0.0,2.4476,2.5072,2.5909,0.0,0.0,2.7199,2.7503,2.8008,2.8181,2.7623,2.8222,0.0,0.0,2.8376,2.897,2.9577,3.0195,3.0314,2.9462,2.9522,2.9407,2.8547,2.8604,2.8393,2.739,2.6794,2.6529,2.6741,2.6335,2.6178,2.6948,2.7121,2.7343,0.4694,0.5018,0.6083,0.6876,0.7466,0.7983,0.8438,0.8831,0.8725,0.8664,0.8656,0.8674,0.8574,0.8372,0.8828,0.0,0.0,0.0,1.2737,1.3587,1.4204,1.4843,1.549,1.5814,1.6122,1.6445,1.6498,1.6588,1.674,1.6372,1.5362,1.3706,0.0,0.0,1.3889,1.4575,1.5898,1.7839,1.8621,1.9131,1.9369,1.843,1.7346,1.6152,1.575,1.5345,1.4884,1.4862,1.4301,1.3122,1.2305,1.1198,0.0,0.0,0.0,0.0,0.0,0.0,0.0,0.0,0.0,0.0,0.0,1.0074,0.0,0.0,0.0,0.0,1.2047,1.3267,1.4078,1.4965,0.0,0.0,0.0,0.0,0.0,0.0,0.0,2.28,2.4267,2.5658,2.7063,2.7281,2.7525,2.8188,2.7967,2.7908,2.8291,0.0,2.9007,2.8853,2.9564,3.0025,2.9888,3.0233,3.0643,3.0844,3.1321,3.1368,3.0577,3.0404,3.0212,2.9772,2.9621,2.9467,2.8986,2.8863,2.8475,2.7599,2.7255,2.7217,2.7373,2.7467,2.7912,0.4766,0.5278,0.6187,0.7048,0.7854,0.8095,0.8357,0.8621,0.874,0.9046,0.9505,0.9955,1.0228,1.0437,1.1291,0.0,1.2748,1.3141,1.3556,1.4027,1.4742,1.5153,1.5346,1.5915,1.6286,1.6513,1.6831,1.7128,1.7365,1.7257,1.6977,1.6552,1.5566,1.5426,1.6069,1.6105,1.7089,1.9033,1.9042,1.9336,1.986,1.8569,1.7452,1.6611,1.5935,1.5529,1.5418,1.5374,1.5015,1.417,1.3076,1.2086,1.1246,0.0,0.0,0.0,0.0,0.0,0.0,0.0,0.0,0.0,0.0,0.0,0.0,0.0,0.0,0.0,1.5,0.0,1.7348,1.8196,0.0,0.0,0.0,1.8956,2.0596,2.2337,2.4046,2.5689,0.0,0.0,2.8539,2.8651,2.8746,2.9059,2.839,2.8211,2.9088,2.9267,2.951,3.0365,3.1138,3.1931,3.232,3.2656,3.2568,3.1978,3.1802,3.1507,3.0738,3.0417,3.0398,3.0343,3.0379,3.0359,3.0382,3.0223,2.9564,2.7184,2.7346,2.7657,2.7305,2.7909,2.8701,0.5104,0.5965,0.6194,0.6691,0.7327,0.7949,0.8364,0.8593,0.8732,0.9032,0.9432,0.9599,0.9851,1.0213,1.1177,1.1782,1.2077,1.3023,1.3672,1.4111,1.4525,1.5006,1.5524,1.5792,1.6089,1.6448,1.681,1.7086,1.7274,1.7775,1.8021,1.8006,1.8034,1.7717,1.7096,1.7164,1.798,1.9504,1.9486,1.9301,1.8923,1.8593,1.7825,1.6641,1.6379,1.5985,1.5426,1.5351,1.5127,1.4624,1.3495,1.2512,1.1769,1.0001,0.0,0.0,0.0,0.0,0.0,0.0,0.0,0.0,0.0,1.3116,1.152,0.0,1.3659,0.0,1.595,1.7375,1.8341,1.8641,0.0,0.0,2.069,2.1708,2.3884,2.4708,2.5705,2.7264,2.7906,2.854,2.934,2.9606,2.9737,2.9818,2.9695,2.9937,3.0832,3.0992,3.1216,3.184,3.2267,3.2521,3.2657,3.328,3.3705,3.3527,3.2955,3.2268,3.1456,3.0753,3.0316,3.0316,3.0316,3.0336,3.0316,3.0311,2.9624,2.7978,2.7679,2.8178,2.9125,2.828,2.7775,0.5301,0.6019,0.6085,0.6714,0.7718,0.8127,0.8439,0.8711,0.895,0.9305,0.9761,1.0276,1.0613,1.085,1.181,1.2358,1.2562,1.3295,1.372,1.3899,1.4317,1.4711,1.5107,1.5175,1.549,1.6001,1.614,1.6441,1.69,1.74,1.7841,1.8228,1.8639,1.853,1.7987,1.8244,1.8826,1.9684,1.965,1.9459,1.9096,1.8778,1.8098,1.7102,1.6675,1.617,1.5433,1.5366,1.5123,1.459,1.3677,1.2917,1.2353,1.0997,1.0142,0.0,0.0,0.0,0.0,0.0,0.0,0.0,0.0,0.0,0.0,0.0,1.5387,1.6338,1.7835,1.9167,2.0137,2.0531,2.1253,2.2552,2.2893,2.3832,2.5837,2.631,2.6971,2.816,2.8505,2.883,2.9323,2.9514,2.9808,3.0262,3.0387,3.0695,3.1399,3.1767,3.2205,3.2864,3.3016,3.3132,3.3332,3.3916,3.4224,3.3913,3.323,3.2423,3.1703,3.0881,3.0302,3.0302,3.0302,3.0308,3.0285,2.9966,2.9378,2.8616,2.7752,2.7486,2.7931,2.7629,2.7698,0.5425,0.5861,0.5966,0.6957,0.8428,0.8452,0.8644,0.8965,0.9312,0.9733,1.0248,1.1274,1.1691,1.1659,1.2576,1.3095,1.3295,1.361,1.3716,1.3665,1.4157,1.4444,1.4534,1.4525,1.4824,1.5378,1.5355,1.572,1.6461,1.6784,1.7245,1.7899,1.8317,1.8562,1.8669,1.9139,1.9487,1.9654,1.9652,1.9676,1.9663,1.9033,1.8359,1.7622,1.6963,1.6228,1.5455,1.5462,1.5183,1.4501,1.3971,1.3509,1.308,1.1945,1.1431,0.0,1.1482,0.0,0.0,0.0,0.0,0.0,0.0,0.0,0.0,1.6643,1.7653,1.8619,2.0079,2.1295,2.2054,2.271,2.3435,2.4241,2.465,2.5427,2.6845,2.7392,2.7912,2.8609,2.8718,2.8815,2.9147,2.9169,2.9597,3.0567,3.0966,3.1289,3.169,3.2195,3.2793,3.3564,3.3529,3.3652,3.4229,3.4491,3.4396,3.3842,3.3196,3.2435,3.2018,3.1172,3.051,3.0326,3.0384,3.0356,3.0171,2.9459,2.9015,2.8799,2.7713,2.6661,2.6224,2.6668,2.7582,0.5744,0.6132,0.6151,0.7082,0.8564,0.8683,0.9086,0.9686,0.9664,1.004,1.0703,1.1172,1.1477,1.1643,1.2204,1.2477,1.254,1.3243,1.3667,1.3853,1.4217,1.4516,1.474,1.4679,1.4721,1.4892,1.5599,1.6071,1.6366,1.7139,1.7686,1.7992,1.8387,1.8693,1.8922,0.0,0.0,0.0,1.944,1.9467,1.9459,1.9308,1.8714,1.7652,1.7358,0.0,1.5506,1.5818,1.5854,1.5459,1.5319,0.0,0.0,0.0,0.0,0.0,0.0,0.0,0.0,0.0,0.0,0.0,1.5755,1.6214,1.7137,1.9324,2.0539,2.0335,2.1597,2.2592,2.2867,2.3002,2.3455,2.4361,2.5186,2.6084,2.7061,2.7923,2.853,2.8595,2.8791,2.9188,2.9751,3.0066,3.0526,3.1353,3.2097,3.2601,3.2799,3.2985,3.3355,3.3945,3.3982,3.4103,3.4438,3.4497,3.4446,3.4257,3.3693,3.318,3.3087,3.2375,3.1287,3.0418,3.0582,3.0544,2.9351,2.8935,2.8759,2.8115,2.7744,2.7502,2.7322,2.6485,2.6213,0.5895,0.0,0.6178,0.7024,0.0,0.8086,0.8879,1.0296,1.0332,1.0589,1.1012,1.121,1.1428,1.1732,1.212,1.2349,1.244,1.2958,1.3297,1.352,1.3888,1.4221,1.4498,1.4291,1.4308,1.4467,1.4789,1.5309,1.5963,1.6441,1.6982,1.7595,1.7834,1.8024,1.8157,1.8416,1.8812,1.9349,1.938,1.9408,1.9409,1.9409,1.895,1.8037,1.7888,0.0,0.0,0.0,0.0,0.0,0.0,0.0,0.0,1.4618,0.0,1.3971,1.4349,1.4678,1.4832,1.5382,1.6303,1.7667,1.8414,1.8907,1.9125,2.0535,2.1519,2.1765,2.2521,2.3001,2.3095,2.3107,2.3485,2.4404,2.5341,2.6245,2.7111,2.8043,2.8619,2.8612,2.8713,2.9089,2.9861,3.0064,3.0681,3.1789,3.2366,3.2846,3.3315,3.3577,3.3805,3.3968,3.4004,3.4042,3.413,3.4166,3.4226,3.4221,3.3646,3.3272,3.3423,3.2789,3.1986,3.1309,3.1308,3.1013,3.0276,2.9494,2.882,2.8406,2.8016,2.7785,2.777,2.7122,2.6749,0.6088,0.5982,0.6292,0.7029,0.7973,0.7626,0.8761,1.0869,0.0,0.0,0.0,1.1344,1.1553,1.1864,1.2212,1.2446,1.2604,1.2799,1.3006,1.3177,1.3531,1.3847,1.4104,1.3946,1.3954,1.4138,1.4068,1.4521,1.5421,1.5545,1.6086,1.6976,1.7115,1.724,1.735,1.7635,1.8209,1.904,1.9198,1.9297,1.9376,1.9376,1.9067,1.8408,1.8326,1.7885,1.7076,1.7199,1.6966,1.6233,1.6438,1.6326,1.5903,1.616,1.6244,1.6087,1.6961,1.7434,1.725,1.8018,1.8826,1.958,2.0543,2.1026,2.0815,2.115,2.1763,2.271,2.2908,2.3055,2.3264,2.3318,2.3743,2.4755,2.5607,2.6441,2.7277,2.8077,2.86,2.86,2.8606,2.8968,2.9924,3.0082,3.062,3.2089,3.2567,3.2724,3.3423,3.3773,3.3892,3.3822,3.382,3.3807,3.3802,3.384,3.3888,3.4062,3.3537,3.3194,3.3309,3.2999,3.258,3.2175,3.1971,3.1656,3.1188,3.0067,2.92,2.8996,2.8291,2.7707,2.7782,2.7902,2.7916,0.6515,0.6515,0.6724,0.7397,0.8339,0.8453,0.9675,1.1506,1.1298,1.1268,1.1477,1.166,1.184,1.2081,1.2406,1.2681,1.2921,1.2903,1.3067,1.3356,1.3584,1.3717,1.3794,1.4268,1.4283,1.4015,1.4659,1.4935,1.4892,1.5354,1.5886,1.6387,1.661,1.6946,1.7435,1.7628,1.776,1.7871,1.8431,1.8903,1.9302,1.9311,1.9004,1.8352,1.8264,1.7896,1.7218,1.7529,1.7585,1.73,1.7693,1.7578,1.6868,1.685,1.6642,1.6163,1.6823,1.7503,1.8074,1.8828,1.9612,2.0416,2.0672,2.0902,2.1202,2.1737,2.2143,2.2392,2.2747,2.3219,2.3937,2.4107,2.469,2.6004,2.6595,2.7158,2.7895,2.8332,2.86,2.86,2.86,2.9179,3.0484,3.0781,3.1354,3.2792,3.3132,3.3299,3.3451,3.3605,3.3671,3.3698,3.3712,3.3739,3.3787,3.3788,3.3834,3.386,3.3751,3.3676,3.3924,3.3734,3.3177,3.2149,3.247,3.2109,3.0544,3.0037,2.9653,2.9131,2.838,2.7892,2.794,2.839,2.8638,0.6753,0.6791,0.6984,0.7326,0.7821,0.9012,1.0083,1.1107,1.1739,1.2038,1.2016,1.1883,1.2063,1.2468,1.2724,1.2882,1.301,1.3113,1.321,1.3255,1.3556,1.3659,1.3661,1.4264,1.4413,1.4084,1.4639,1.4987,1.5089,1.5268,1.5567,1.6008,1.6193,1.6441,1.6786,1.6859,1.7052,1.7456,1.8179,1.8658,1.8874,1.9082,1.9036,1.8735,1.8708,1.8495,1.8092,1.8345,1.8299,1.7896,1.8179,1.809,1.7532,1.7692,1.7593,1.7157,1.8005,1.8605,1.8713,1.9537,2.0224,2.0704,2.0752,2.0917,2.1278,2.1712,2.2328,2.3175,2.3456,2.3925,2.4741,2.4879,2.5207,2.5971,2.661,2.7172,2.7626,2.8237,2.8593,2.86,2.86,2.9222,3.081,3.1009,3.1607,3.3049,3.3393,3.3408,3.3444,3.3462,3.3527,3.3608,3.3643,3.3671,3.3714,3.3728,3.3766,3.38,3.3807,3.386,3.3997,3.3953,3.3734,3.3194,3.2964,3.2248,3.0992,3.0383,2.9923,2.9619,2.9322,2.9065,2.9135,2.9403,2.9477,0.6953,0.709,0.7211,0.7335,0.7653,0.9482,1.0415,1.0765,1.1953,1.2524,1.2544,1.2136,1.2224,1.2632,1.2888,1.3042,1.3129,1.3319,1.3334,1.3232,1.353,1.3607,1.3568,1.4327,1.4554,1.4307,1.47,1.5024,1.5183,1.5167,1.5383,1.5768,1.5918,1.6001,1.6113,1.6133,1.6445,1.7011,1.7764,1.8297,1.8563,1.8884,1.904,1.9106,1.9092,1.9021,1.8903,1.8964,1.8803,1.8376,1.8404,1.829,1.8013,1.8205,1.8274,1.8145,1.8993,1.9536,1.9475,2.0118,2.0611,2.0802,2.0818,2.1013,2.1472,2.1763,2.2476,2.3708,2.4149,2.4693,2.5439,2.5655,2.5776,2.6054,2.6783,2.7357,2.7497,2.8143,2.86,2.86,2.8744,2.9439,3.0629,3.1161,3.1861,3.3049,3.3393,3.3393,3.3393,3.3393,3.3444,3.3513,3.3552,3.3587,3.3657,3.3678,3.3698,3.3753,3.3734,3.3766,3.382,3.3966,3.4055,3.3864,3.3298,3.2524,3.2052,3.1229,3.0384,2.9956,2.9758,2.9924,2.9863,3.0028,3.0169,0.7026,0.7582,0.7501,0.7791,0.8411,0.9824,1.0658,1.1044,1.1642,1.2308,1.28,1.2578,1.2331,1.2266,1.2783,1.3179,1.3442,1.3421,1.3436,1.3469,1.3621,1.3577,1.3426,1.4599,1.4986,1.4648,1.5207,1.5219,1.4736,1.5153,1.5509,1.5773,1.5818,1.5836,1.5847,1.5946,1.6054,1.6141,1.6795,1.7673,1.8707,1.8812,1.8907,1.9106,1.9092,1.9092,1.9035,1.8917,1.8803,1.8731,1.841,1.8209,1.8166,1.8043,1.8109,1.8426,1.8888,1.9493,2.0272,2.056,2.0711,2.0802,2.0834,2.1212,2.2069,2.224,2.2578,2.3502,2.4509,2.5386,2.6175,2.6383,2.6675,2.7224,2.7709,2.8094,2.8103,2.8398,2.86,2.86,2.9154,3.0031,3.0846,3.1607,3.2415,3.3248,3.3393,3.3393,3.3393,3.3393,3.3411,3.3422,3.3473,3.3527,3.3598,3.3612,3.3626,3.3615,3.3626,3.3643,3.3712,3.3739,3.3773,3.3871,3.3815,3.3212,3.224,3.1685,3.1298,3.0157,2.9832,2.9775,2.9726,3.002,3.0261,0.7379,0.7853,0.7611,0.7775,0.8368,0.9483,1.0057,1.0266,1.1052,1.1537,1.1785,1.198,1.2302,1.2719,1.3125,1.3486,1.3795,1.3972,1.3928,1.3756,1.3711,1.352,1.3314,1.405,1.435,1.4278,1.502,1.5298,1.5144,1.5456,1.5781,1.5997,1.5887,1.5803,1.5803,1.5859,1.5979,1.6183,1.6441,1.7008,1.7811,1.8108,1.8319,1.8528,1.8567,1.8639,1.8716,1.8654,1.8567,1.8454,1.828,1.8144,1.8013,1.7872,1.7902,1.8145,1.876,1.9393,2.0041,2.0385,2.0627,2.0744,2.118,2.1705,2.2279,2.3073,2.3815,2.4313,2.4931,2.5667,2.6447,2.6718,2.7011,2.7447,2.7716,2.7897,2.8056,2.8235,2.8393,2.8519,2.9194,3.0024,3.0953,3.2107,3.2958,3.3357,3.3393,3.3393,3.3393,3.3393,3.3393,3.3411,3.3422,3.3466,3.3531,3.3553,3.3556,3.3584,3.3598,3.3608,3.3622,3.3678,3.3712,3.3758,3.3567,3.3007,3.1746,3.1668,3.1462,3.0502,3.0745,3.1019,3.1014,3.0762,3.0767,0.768,0.8024,0.782,0.7933,0.8331,0.9232,0.9641,0.9759,1.0476,1.0858,1.1118,1.1478,1.2076,1.2843,1.3314,1.3686,1.4039,1.4363,1.4385,1.414,1.3965,1.362,1.3301,1.3816,1.4015,1.4069,1.4899,1.5505,1.573,1.5763,1.5951,1.6135,1.5996,1.5858,1.5738,1.5781,1.5902,1.614,1.6205,1.6452,1.694,1.7242,1.77,1.8218,1.8218,1.8307,1.8571,1.8523,1.8429,1.8301,1.8232,1.8143,1.7993,1.7811,1.7842,1.8205,1.885,1.9475,1.9962,2.0308,2.0639,2.0993,2.1582,2.2131,2.2769,2.3715,2.4495,2.494,2.5282,2.5789,2.6497,2.6857,2.7085,2.7269,2.7453,2.7664,2.777,2.7908,2.8127,2.8515,2.9294,3.0245,3.1415,3.2553,3.329,3.3378,3.3393,3.3393,3.3393,3.3393,3.3465,3.3665,3.3737,3.3651,3.3513,3.3473,3.3509,3.3531,3.3534,3.3553,3.3581,3.3626,3.3657,3.362,3.3119,3.2677,3.2086,3.1869,3.173,3.1221,3.1381,3.188,3.1575,3.133,3.1391,0.7751,0.8265,0.8263,0.8382,0.8721,0.9316,0.9688,0.9763,0.993,1.0506,1.1268,1.1318,1.1617,1.235,1.321,1.3725,1.4077,1.4396,1.4649,1.4768,1.4449,1.4,1.3552,1.4207,1.4323,1.396,1.5016,1.5962,1.6594,1.6109,1.592,1.6202,1.6169,1.5927,1.5642,1.5752,1.5815,1.5859,1.5993,1.6066,1.6109,1.6371,1.7131,1.8216,1.8274,1.8337,1.8693,1.8581,1.8469,1.8478,1.8282,1.8183,1.8153,1.7872,1.8036,1.8746,1.9338,1.9871,2.0299,2.0482,2.0866,2.1579,2.1914,2.2462,2.3536,2.3935,2.4344,2.4931,2.5328,2.5821,2.6352,2.6707,2.6938,2.7013,2.7353,2.7413,2.7268,2.7405,2.7904,2.8697,2.9556,3.0764,3.2601,3.3037,3.3155,3.3271,3.3364,3.3378,3.3371,3.3378,3.3675,3.4237,3.4418,3.428,3.3628,3.3614,3.356,3.3564,3.364,3.3437,3.3481,3.3531,3.3574,3.3591,3.3462,3.3147,3.2623,3.2286,3.2098,3.1857,3.1812,3.1987,3.2188,3.1972,3.2021,0.7923,0.8203,0.8447,0.8541,0.8551,0.8885,0.9005,0.8971,0.9355,0.9806,1.0376,1.1185,1.198,1.2701,1.3753,1.4017,1.3836,1.4656,1.5131,1.5181,1.4986,1.4639,1.4241,1.4192,1.3915,1.3688,1.4684,1.5792,1.668,1.651,1.6455,1.653,1.6169,1.5833,1.5777,1.5974,1.5969,1.5708,1.6092,1.6252,1.6049,1.611,1.6571,1.7356,1.7506,1.7835,1.8392,1.8208,1.8099,1.8113,1.8053,1.8013,1.8003,1.7892,1.7955,1.8334,1.8827,1.9347,1.9872,2.0593,2.1221,2.1722,2.2661,2.3313,2.3866,2.4318,2.4717,2.4981,2.523,2.5586,2.5877,2.6253,2.6564,2.6733,2.6858,2.7014,2.707,2.7135,2.7505,2.8486,2.9668,3.1066,3.2006,3.2536,3.2677,3.2774,3.3006,3.3155,3.3244,3.3311,3.3638,3.4356,3.4617,3.4689,3.5033,3.4454,3.4146,3.4009,3.3908,3.3553,3.3437,3.3488,3.3531,3.3527,3.3549,3.334,3.2739,3.2568,3.2428,3.2783,3.2739,3.2642,3.2911,3.2601,3.2662,0.8144,0.8341,0.8594,0.8634,0.8527,0.8646,0.8703,0.8729,0.9143,0.9512,1.0095,1.1353,1.2212,1.2723,1.3855,1.4007,1.3524,1.4805,1.5616,1.5811,1.5619,1.5364,1.5046,1.4566,1.4088,1.3784,1.4371,1.5381,1.6387,1.6513,1.6573,1.6627,1.6292,1.6083,1.5996,1.6089,1.6045,1.6032,1.6171,1.6271,1.6383,1.6306,1.6574,1.7186,1.7529,1.7787,1.804,1.7953,1.7912,1.7912,1.7912,1.7977,1.8085,1.798,1.816,1.8628,1.8897,1.93,1.9984,2.0939,2.1686,2.212,2.3158,2.3951,2.4239,2.4732,2.4977,2.5113,2.5288,2.5489,2.5689,2.6007,2.6266,2.6459,2.6529,2.6623,2.6742,2.6936,2.7649,2.8767,2.9885,3.0854,3.1402,3.154,3.1676,3.1861,3.228,3.2517,3.2719,3.2898,3.3475,3.4497,3.4809,3.5465,3.5899,3.5685,3.4718,3.4436,3.3846,3.352,3.34,3.3444,3.3473,3.3481,3.3375,3.3193,3.3028,3.2839,3.3065,3.3496,3.3456,3.325,3.3275,3.3189,3.3183,0.8332,0.8649,0.8689,0.8698,0.8675,0.8723,0.8956,0.9207,0.933,0.9811,1.0499,1.1717,1.2141,1.2249,1.3466,1.3638,1.364,1.4962,1.5981,1.6475,1.6271,1.6098,1.5938,1.5328,1.4827,1.4399,1.4358,1.4867,1.5879,1.6052,1.6162,1.6342,1.6574,1.6437,1.616,1.6063,1.6273,1.6524,1.6091,1.6218,1.7147,1.6843,1.7036,1.7912,1.8239,1.8161,1.7763,1.7889,1.7984,1.797,1.7916,1.8112,1.8374,1.8234,1.8566,1.955,1.9604,1.9942,2.0811,2.1466,2.2132,2.2794,2.354,2.4203,2.4744,2.4938,2.5054,2.5211,2.5422,2.5633,2.5824,2.5998,2.6159,2.6238,2.6415,2.6451,2.6435,2.6912,2.7944,2.9407,3.0178,3.0429,3.0472,3.0517,3.0585,3.0924,3.1353,3.1759,3.2074,3.2265,3.3054,3.4356,3.4838,3.5214,3.6158,3.6836,3.5695,3.47,3.3929,3.3393,3.3393,3.3422,3.3422,3.343,3.3437,3.3266,3.3302,3.3156,3.3232,3.3549,3.3573,3.3601,3.3485,3.3386,3.3466,0.8327,0.8671,0.869,0.8693,0.8742,0.8994,0.9189,0.9378,0.986,1.0274,1.0681,1.1626,1.225,1.2673,1.3445,1.4193,1.491,1.5541,1.5873,1.6072,1.6245,1.626,1.6026,1.5406,1.493,1.4698,1.4407,1.468,1.5303,1.554,1.5668,1.5849,1.6053,1.6069,1.5999,1.6518,1.6764,1.6262,1.6622,1.6716,1.6367,1.6208,1.6467,1.7006,1.7079,1.7237,1.7818,1.828,1.8506,1.8524,1.8119,1.7977,1.819,1.877,1.9208,1.9387,1.9689,2.0059,2.0724,2.1407,2.2128,2.2904,2.3625,2.4309,2.4889,2.4995,2.5041,2.5103,2.5285,2.5429,2.5499,2.5668,2.5906,2.6175,2.6266,2.6327,2.6486,2.7339,2.8405,2.938,3.0096,3.0252,3.0034,3.0012,3.0267,3.0279,3.1054,3.1777,3.1809,3.1986,3.2555,3.3626,3.4032,3.4578,3.54,3.5697,3.4898,3.4285,3.3759,3.3374,3.3378,3.3393,3.3393,3.3393,3.3393,3.3408,3.3437,3.3466,3.3477,3.3499,3.3527,3.3534,3.3534,3.3534,3.3541,0.8516,0.8789,0.882,0.877,0.8746,0.9132,0.9397,0.9606,1.0218,1.0569,1.0887,1.1614,1.2107,1.245,1.3,1.3854,1.4832,1.5162,1.5573,1.5941,1.6339,1.6526,1.6431,1.5732,1.5001,1.4603,1.4385,1.4486,1.4861,1.5061,1.5284,1.55,1.571,1.5811,1.5826,1.627,1.6296,1.6186,1.6571,1.6705,1.6476,1.6391,1.6643,1.7111,1.7222,1.7693,1.8486,1.8783,1.887,1.8822,1.846,1.834,1.8584,1.9087,1.9426,1.9691,1.9963,2.0426,2.0935,2.1576,2.2127,2.2778,2.3584,2.423,2.4614,2.4801,2.5031,2.5113,2.522,2.5333,2.5422,2.5517,2.5733,2.5927,2.6043,2.637,2.6938,2.8042,2.9019,2.9642,2.9775,2.9516,2.937,2.8973,2.9465,2.9441,3.0231,3.1165,3.1168,3.1511,3.2089,3.2643,3.314,3.3797,3.4552,3.4412,3.3932,3.3701,3.352,3.3376,3.3341,3.3378,3.3393,3.3393,3.3393,3.3393,3.3422,3.343,3.3433,3.3455,3.3462,3.3455,3.3466,3.3448,3.3455,0.8821,0.8985,0.9,0.8907,0.8813,0.9189,0.9582,0.996,1.0387,1.0762,1.1167,1.1614,1.1762,1.1688,1.2298,1.2977,1.343,1.4314,1.5411,1.6234,1.6667,1.6829,1.6768,1.6049,1.5211,1.4452,1.4311,1.4337,1.4424,1.4554,1.4871,1.5207,1.5508,1.5744,1.5682,1.5357,1.5766,1.6248,1.6156,1.6432,1.7039,1.7147,1.7375,1.7856,1.8093,1.8474,1.8895,1.8925,1.8907,1.892,1.8723,1.888,1.9293,1.9084,1.9423,2.0202,2.0425,2.0785,2.1337,2.1769,2.2208,2.242,2.3332,2.4084,2.4214,2.469,2.5045,2.5182,2.523,2.5333,2.547,2.5527,2.5549,2.5624,2.594,2.6705,2.8129,2.89,2.9556,3.0003,2.9367,2.8492,2.8591,2.7794,2.7901,2.8298,2.8943,2.9756,3.0416,3.0999,3.1308,3.1755,3.2217,3.2685,3.3323,3.322,3.2824,3.3027,3.2965,3.3035,3.3203,3.3308,3.3393,3.3393,3.3393,3.3393,3.34,3.3397,3.3397,3.3404,3.3397,3.34,3.34,3.3397,3.3422,0.8961,0.901,0.9005,0.9062,0.9199,0.9582,0.9954,1.0368,1.0756,1.0987,1.1149,1.1267,1.1465,1.1632,1.1855,1.2725,1.3947,1.4466,1.5587,1.6929,1.6891,1.6411,1.5991,1.5596,1.5246,1.4861,1.4525,1.4316,1.4295,1.4173,1.4222,1.437,1.4938,1.5191,1.5267,1.5666,1.5851,1.5853,1.6101,1.6068,1.603,1.6215,1.6406,1.6741,1.6738,1.7074,1.7749,1.8341,1.8476,1.825,1.8603,1.8622,1.8608,1.9073,1.9591,1.9933,2.0344,2.0775,2.1286,2.1554,2.1851,2.2291,2.2972,2.3608,2.4099,2.465,2.4976,2.5074,2.5074,2.5103,2.5152,2.5182,2.5298,2.5658,2.6192,2.7079,2.804,2.8887,2.9678,3.0274,3.0075,2.9417,2.8661,2.8407,2.8363,2.8493,2.8984,2.9712,3.0301,3.0698,3.109,3.0927,3.1204,3.1557,3.1837,3.1805,3.1866,3.2211,3.2345,3.2473,3.2807,3.32,3.3308,3.3393,3.3393,3.3393,3.3393,3.34,3.3393,3.3393,3.3393,3.3393,3.3393,3.34,3.34,0.9115,0.9143,0.9216,0.9267,0.9375,0.9903,1.0293,1.055,1.0925,1.1117,1.1117,1.1117,1.1254,1.1558,1.1669,1.2718,1.4325,1.4645,1.5763,1.7206,1.7195,1.6577,1.587,1.5518,1.5333,1.5182,1.4917,1.4597,1.4345,1.4145,1.4055,1.4022,1.4383,1.4645,1.4727,1.5175,1.541,1.5282,1.5681,1.58,1.5538,1.5715,1.6008,1.6197,1.6031,1.6209,1.6979,1.7652,1.8128,1.8521,1.8771,1.8741,1.8737,1.9279,1.9809,2.0014,2.0559,2.106,2.129,2.1397,2.1554,2.1945,2.2475,2.3222,2.3908,2.4455,2.4691,2.5296,2.5145,2.5027,2.4995,2.4995,2.5113,2.5413,2.6425,2.743,2.8142,2.8943,2.9694,3.0191,3.0174,2.9671,2.8525,2.8548,2.8482,2.8495,2.8757,2.9563,3.0313,3.0606,3.0784,3.0681,3.062,3.0975,3.1187,3.1173,3.1269,3.1549,3.1821,3.1958,3.2519,3.3021,3.3233,3.3334,3.3364,3.3393,3.3393,3.3393,3.3393,3.3393,3.3393,3.3393,3.3393,3.3393,3.3393,0.9186,0.9194,0.9468,0.9534,0.9568,1.02,1.0581,1.0696,1.1015,1.1135,1.1117,1.113,1.1279,1.1446,1.1885,1.2803,1.4386,1.4841,1.6018,1.7003,1.7207,1.6709,1.6187,1.5896,1.5615,1.5345,1.5381,1.497,1.4542,1.4443,1.4204,1.3972,1.4078,1.4186,1.432,1.4437,1.4488,1.4761,1.5181,1.5393,1.5371,1.5568,1.5777,1.5835,1.5753,1.5939,1.6545,1.7169,1.791,1.9369,1.903,1.9097,1.951,1.9673,1.9947,2.0382,2.0857,2.1223,2.1506,2.1587,2.1602,2.1867,2.2323,2.2817,2.3744,2.4092,2.4515,2.5248,2.5151,2.4924,2.4995,2.4995,2.5045,2.527,2.6388,2.7348,2.8175,2.8893,2.96,3.0156,2.9677,2.9029,2.8401,2.7843,2.758,2.8286,2.8667,2.9311,3.004,3.0506,3.0603,3.0551,3.051,3.0499,3.0609,3.0661,3.079,3.0995,3.1305,3.1612,3.2309,3.2774,3.307,3.3226,3.3248,3.3308,3.3393,3.3393,3.3378,3.3393,3.3393,3.3393,3.3393,3.3393,3.3393,0.852,0.8424,0.9266,0.9796,1.0119,1.0611,1.0989,1.1278,1.1374,1.1285,1.1166,1.1267,1.1446,1.1663,1.2395,1.351,1.4476,1.5206,1.6315,1.725,1.6738,1.6603,1.6443,1.624,1.594,1.5624,1.5444,1.5154,1.4774,1.4477,1.4172,1.3881,1.389,1.3987,1.4152,1.421,1.4326,1.4488,1.4749,1.4888,1.4959,1.5131,1.5245,1.5164,1.5094,1.5315,1.5919,1.6731,1.7489,1.8067,1.8679,1.9257,1.9662,1.9754,2.0028,2.0477,2.0696,2.1157,2.1884,2.2115,2.2293,2.2696,2.3113,2.3603,2.3352,2.3864,2.4151,2.4472,2.4374,2.4538,2.4886,2.4985,2.5045,2.528,2.5671,2.6246,2.7036,2.8148,2.8875,2.901,2.877,2.8243,2.7907,2.7552,2.758,2.8066,2.8553,2.9092,2.9738,3.0402,3.0489,3.0489,3.0489,3.0489,3.0499,3.0551,3.063,3.0702,3.0928,3.1208,3.1905,3.2334,3.2544,3.2856,3.3132,3.3211,3.3241,3.3323,3.3301,3.3356,3.3378,3.3378,3.3371,3.3378,3.3393,0.8295,0.8482,0.9503,1.0188,1.0615,1.1127,1.1441,1.1507,1.1508,1.1352,1.1191,1.1298,1.1502,1.1744,1.2365,1.3146,1.4142,1.5099,1.5903,1.6478,1.6264,1.6236,1.6182,1.6193,1.6014,1.5736,1.5668,1.5425,1.5096,1.4774,1.4466,1.4039,1.3888,1.3868,1.3999,1.4069,1.4163,1.4291,1.4408,1.4535,1.4696,1.4719,1.4887,1.4935,1.5088,1.5437,1.5948,1.6799,1.7739,1.8551,1.9343,1.9827,1.997,2.0043,2.0323,2.0818,2.125,2.1534,2.2196,2.2571,2.2829,2.3175,2.3517,2.3634,2.3593,2.382,2.3988,2.4139,2.4186,2.4245,2.4686,2.4756,2.4876,2.5243,2.5769,2.61,2.6186,2.7048,2.8005,2.8171,2.815,2.7733,2.7382,2.7139,2.7401,2.7776,2.8181,2.8751,2.9824,3.039,3.0468,3.0489,3.0489,3.0489,3.0489,3.051,3.0551,3.0609,3.0675,3.0938,3.1355,3.1677,3.195,3.2343,3.2758,3.2938,3.2993,3.3111,3.3196,3.3218,3.3241,3.3311,3.3349,3.3364,3.3386,0.8216,0.863,0.9874,1.0615,1.1046,1.166,1.1826,1.1645,1.1567,1.1467,1.1271,1.1403,1.1595,1.1799,1.2206,1.2824,1.3709,1.442,1.5214,1.5703,1.5954,1.596,1.5921,1.6099,1.6106,1.5801,1.5812,1.5669,1.5355,1.5159,1.4803,1.4349,1.4049,1.3912,1.3875,1.3915,1.4067,1.4207,1.4386,1.4533,1.4786,1.4774,1.4989,1.5392,1.5674,1.6038,1.6501,1.7286,1.8213,1.9494,2.0465,2.0746,2.0677,2.0657,2.0837,2.1448,2.1852,2.2283,2.2701,2.3074,2.3385,2.3445,2.3541,2.3579,2.3806,2.3657,2.3655,2.3819,2.3916,2.4083,2.4385,2.4787,2.4935,2.5322,2.6356,2.6419,2.5837,2.6144,2.6862,2.7284,2.7181,2.6793,2.6771,2.6694,2.7102,2.751,2.7909,2.8514,2.9587,3.0295,3.0369,3.0447,3.0464,3.0479,3.0489,3.0489,3.052,3.0531,3.0568,3.0706,3.0908,3.1081,3.1414,3.1968,3.2343,3.2504,3.267,3.2784,3.288,3.2982,3.3086,3.3142,3.3244,3.3341,3.3356,0.7643,0.7868,0.9942,1.0976,1.1318,1.1954,1.2195,1.2123,1.1906,1.1768,1.1667,1.1652,1.1744,1.2077,1.2897,1.3655,1.3998,1.4212,1.4482,1.5099,1.5434,1.5583,1.5887,1.61,1.6212,1.6072,1.5944,1.5672,1.5454,1.5393,1.5064,1.4469,1.4235,1.4087,1.3899,1.3855,1.405,1.4348,1.4584,1.4835,1.5029,1.5426,1.5802,1.6238,1.6478,1.6737,1.725,1.8027,1.8711,1.9079,2.0479,2.1169,2.1374,2.1498,2.1661,2.1867,2.2144,2.2653,2.3312,2.3757,2.4205,2.4543,2.4529,2.4014,2.3631,2.3296,2.3196,2.3122,2.353,2.394,2.4005,2.4851,2.5545,2.5947,2.6456,2.6961,2.6656,2.6519,2.6326,2.6516,2.6198,2.5936,2.6048,2.6238,2.6595,2.7144,2.7767,2.8394,2.9329,2.994,3.021,3.0306,3.0401,3.0453,3.0489,3.0489,3.0499,3.0499,3.051,3.051,3.0634,3.0582,3.0895,3.1445,3.1815,3.2012,3.2188,3.2403,3.2595,3.2744,3.2848,3.2961,3.3088,3.318,3.3256,0.7617,0.8053,1.019,1.1303,1.1678,1.2245,1.2412,1.2262,1.2035,1.1874,1.1799,1.1734,1.1818,1.2114,1.2556,1.3153,1.3408,1.3452,1.3659,1.4178,1.4532,1.4915,1.5364,1.5659,1.576,1.5751,1.58,1.5795,1.5568,1.5515,1.5248,1.4777,1.4449,1.4217,1.412,1.4089,1.4317,1.4656,1.4936,1.5164,1.5461,1.6117,1.6781,1.7188,1.7504,1.777,1.8083,1.8677,1.9287,1.9764,2.0653,2.1375,2.1784,2.2021,2.2163,2.2392,2.2684,2.3085,2.3781,2.4161,2.4596,2.4785,2.4706,2.415,2.343,2.3043,2.282,2.2909,2.3005,2.3701,2.4179,2.5089,2.5576,2.6015,2.6732,2.7143,2.7025,2.6948,2.6592,2.6089,2.5738,2.5574,2.5443,2.569,2.6042,2.6698,2.7501,2.8276,2.907,2.9491,2.987,3.0114,3.0204,3.0311,3.0384,3.0426,3.0437,3.0447,3.0489,3.0489,3.0489,3.0499,3.0593,3.0905,3.1194,3.15,3.1758,3.1985,3.2231,3.2462,3.2596,3.2719,3.2916,3.3034,3.3104,0.7827,0.834,1.0453,1.1552,1.1946,1.234,1.243,1.2276,1.2009,1.1878,1.1857,1.1815,1.1892,1.2077,1.2243,1.2452,1.2562,1.2728,1.2966,1.3332,1.3846,1.4241,1.4547,1.4889,1.5272,1.5575,1.5644,1.5837,1.5813,1.5769,1.5492,1.5154,1.4738,1.4511,1.448,1.4451,1.4816,1.5055,1.5322,1.5513,1.613,1.6881,1.7697,1.8184,1.8628,1.8825,1.903,1.9335,1.974,2.0216,2.081,2.1435,2.2053,2.2303,2.2592,2.3036,2.3468,2.3656,2.4033,2.4374,2.4688,2.4608,2.4299,2.377,2.3077,2.2634,2.2502,2.2863,2.3124,2.3455,2.4197,2.5024,2.5491,2.5948,2.6771,2.7477,2.7284,2.7158,2.7059,2.6463,2.5701,2.5382,2.5375,2.5891,2.6391,2.6332,2.7084,2.779,2.851,2.9005,2.9394,2.9767,3.0,3.014,3.0236,3.0332,3.0359,3.0359,3.0426,3.0489,3.0489,3.0489,3.0593,3.0675,3.0757,3.1061,3.1315,3.157,3.1766,3.1985,3.2249,3.2463,3.258,3.277,3.2916,0.8175,0.8537,1.0614,1.163,1.1888,1.199,1.2135,1.2234,1.1958,1.1919,1.2036,1.2003,1.2058,1.2212,1.2268,1.2323,1.2353,1.2445,1.2654,1.3025,1.3624,1.4141,1.4621,1.5261,1.533,1.5445,1.546,1.5639,1.5794,1.6026,1.5983,1.5597,1.5421,1.5331,1.4935,1.4997,1.5016,1.5277,1.5631,1.6304,1.7127,1.7599,1.8227,1.8861,1.9211,1.9453,1.9715,1.9889,2.0056,2.0154,2.0733,2.1389,2.2063,2.2717,2.3295,2.3642,2.3801,2.3798,2.4282,2.4546,2.451,2.4242,2.4014,2.3459,2.2657,2.2033,2.1914,2.2366,2.2808,2.3365,2.4119,2.513,2.5656,2.6104,2.6636,2.731,2.7458,2.7328,2.7223,2.7288,2.6656,2.5931,2.5535,2.6198,2.6762,2.6614,2.6656,2.7369,2.8042,2.8599,2.9155,2.957,2.9777,2.9924,3.0038,3.0151,3.0242,3.0253,3.0348,3.0447,3.0489,3.0489,3.0489,3.0551,3.0609,3.0692,3.0978,3.1186,3.1303,3.1534,3.1858,3.2065,3.2223,3.2429,3.2665,0.8304,0.857,1.0638,1.1555,1.1695,1.1834,1.1966,1.2013,1.1899,1.192,1.2075,1.2021,1.2114,1.2268,1.2305,1.2305,1.2323,1.2409,1.2618,1.2881,1.3371,1.3814,1.4264,1.4739,1.502,1.5162,1.5259,1.5343,1.5598,1.5834,1.5948,1.5742,1.5701,1.5587,1.5507,1.5684,1.5804,1.6033,1.646,1.7208,1.7958,1.838,1.8787,1.9539,1.9625,1.9814,2.0009,2.0102,2.0102,2.0151,2.0453,2.0844,2.142,2.1906,2.2342,2.2907,2.293,2.331,2.4093,2.4245,2.4049,2.3702,2.3353,2.2631,2.1914,2.1616,2.1655,2.225,2.2823,2.3389,2.4085,2.5173,2.5665,2.609,2.6386,2.6743,2.7189,2.747,2.7434,2.7553,2.7614,2.6945,2.6398,2.6719,2.6983,2.653,2.6635,2.7184,2.7843,2.8453,2.8992,2.9518,2.9622,2.9705,2.9821,2.993,3.0076,3.0135,3.021,3.0311,3.0458,3.0489,3.0573,3.0551,3.0586,3.0663,3.0793,3.0905,3.1088,3.1274,3.1466,3.172,3.1966,3.2126,3.2467,0.829,0.867,1.0584,1.1442,1.1514,1.1653,1.1777,1.1866,1.1805,1.1897,1.2043,1.2088,1.2176,1.2286,1.2305,1.2305,1.2298,1.2464,1.2673,1.2874,1.3091,1.3417,1.3818,1.4185,1.4349,1.4565,1.459,1.4699,1.4896,1.5198,1.5459,1.5671,1.6029,1.6042,1.6153,1.6456,1.673,1.6777,1.7114,1.7758,1.8421,1.8696,1.9126,1.9532,1.9802,1.9884,2.0025,2.0042,2.0053,2.0107,1.9965,2.0277,2.0872,2.0964,2.1384,2.1936,2.2224,2.2657,2.3282,2.3518,2.3403,2.3004,2.2536,2.1917,2.1601,2.1412,2.178,2.2509,2.2888,2.3539,2.4286,2.5191,2.5411,2.5699,2.5946,2.6229,2.6546,2.6898,2.7358,2.7677,2.7867,2.8146,2.7733,2.7595,2.7292,2.6598,2.6662,2.7115,2.7731,2.8426,2.8881,2.9391,2.9403,2.9436,2.9526,2.9655,2.9826,3.0,3.0092,3.0168,3.0275,3.0595,3.0831,3.0764,3.0778,3.1227,3.1688,3.1281,3.0895,3.1008,3.1186,3.1513,3.1755,3.1978,3.2465,0.7993,0.8813,1.0436,1.1235,1.1478,1.1243,1.1405,1.174,1.1721,1.1838,1.2062,1.2164,1.2268,1.2305,1.2305,1.2305,1.2305,1.2316,1.2581,1.2808,1.2966,1.3211,1.3534,1.3699,1.3693,1.3705,1.3864,1.3897,1.3891,1.434,1.4891,1.556,1.6188,1.6669,1.6956,1.7172,1.7513,1.7549,1.7731,1.7928,1.8437,1.8715,1.8974,1.9312,1.9522,1.9704,1.9911,1.9857,1.9879,1.9949,1.9617,1.9651,2.0098,2.0061,2.0423,2.1008,2.1611,2.1992,2.2395,2.2655,2.2472,2.2045,2.1679,2.1438,2.1364,2.14,2.1942,2.2809,2.3134,2.3757,2.4448,2.5034,2.5202,2.53,2.5495,2.5633,2.5987,2.6455,2.6946,2.7583,2.7905,2.8025,2.818,2.7863,2.7742,2.7112,2.7067,2.7478,2.7936,2.8525,2.8861,2.9195,2.9183,2.9195,2.919,2.935,2.9549,2.9806,2.996,3.001,3.007,3.0468,3.1172,3.1408,3.1545,3.2073,3.2359,3.1821,3.1329,3.091,3.1009,3.1726,3.2238,3.2579,3.3058,0.7959,0.8799,0.9911,1.0708,1.1249,1.1135,1.1203,1.1395,1.1608,1.1892,1.2194,1.2249,1.2305,1.2305,1.2305,1.2305,1.2305,1.2305,1.2562,1.2783,1.2955,1.3145,1.3427,1.3632,1.3715,1.3519,1.3478,1.3362,1.3311,1.367,1.4357,1.5199,1.6128,1.6863,1.7297,1.7688,1.798,1.8297,1.8272,1.8353,1.8738,1.8898,1.9058,1.9276,1.9351,1.9522,1.9644,1.942,1.9442,1.9387,1.9088,1.9155,1.9309,1.9194,1.9416,2.0003,2.0612,2.1168,2.1529,2.1838,2.1914,2.1474,2.1252,2.127,2.1453,2.1663,2.2049,2.2699,2.3337,2.4028,2.4258,2.476,2.5033,2.5005,2.5061,2.5188,2.5578,2.6128,2.6693,2.7398,2.7521,2.7569,2.7753,2.7868,2.7804,2.7695,2.7733,2.7841,2.8284,2.862,2.894,2.9114,2.9114,2.9114,2.9126,2.9213,2.9312,2.9617,2.9906,3.0103,3.0311,3.1061,3.1681,3.196,3.2229,3.2572,3.2601,3.221,3.1895,3.171,3.1926,3.2404,3.2834,3.3222,3.3775,0.7768,0.8742,0.9306,1.0137,1.1037,1.1117,1.1149,1.1223,1.1484,1.1836,1.2212,1.2268,1.2305,1.2305,1.2305,1.2305,1.2305,1.2323,1.2588,1.2771,1.2955,1.3163,1.3429,1.3535,1.3477,1.3372,1.3201,1.3032,1.2886,1.3294,1.3964,1.4804,1.5747,1.6705,1.7663,1.8051,1.8273,1.8295,1.8703,1.8512,1.8794,1.8727,1.8961,1.9048,1.9015,1.9158,1.9275,1.9178,1.9014,1.8912,1.8694,1.8393,1.8397,1.841,1.8448,1.8895,1.9523,2.0287,2.0839,2.1445,2.185,2.1743,2.17,2.1709,2.1798,2.2156,2.2532,2.2894,2.3595,2.4109,2.4217,2.4759,2.4991,2.4991,2.4991,2.5131,2.5574,2.6092,2.6638,2.7215,2.7287,2.7464,2.7517,2.7711,2.7729,2.7887,2.831,2.837,2.8557,2.8846,2.9004,2.9114,2.9114,2.9114,2.9114,2.9215,2.9352,2.9811,3.0111,3.0492,3.0874,3.1609,3.2207,3.2534,3.2779,3.3012,3.3217,3.3336,3.3055,3.2652,3.2845,3.2965,3.355,3.3977,3.4603,0.7253,0.8646,0.8742,0.9666,1.0962,1.1117,1.1186,1.1335,1.1428,1.1688,1.2058,1.2212,1.2305,1.2305,1.2305,1.2305,1.2305,1.2323,1.2526,1.2826,1.2918,1.3145,1.3288,1.3331,1.3277,1.2998,1.2883,1.2756,1.2568,1.2952,1.3619,1.4497,1.5539,1.6683,1.8013,1.8674,1.8287,1.7379,1.8365,1.8341,1.8138,1.802,1.8324,1.8519,1.8476,1.8603,1.8738,1.8763,1.8628,1.8572,1.8109,1.7855,1.7854,1.7736,1.7826,1.8228,1.8875,1.9738,2.0715,2.179,2.2269,2.2326,2.2234,2.2366,2.2605,2.2858,2.3018,2.3379,2.3916,2.428,2.4592,2.4865,2.4935,2.5004,2.5003,2.5264,2.5722,2.6178,2.6755,2.7177,2.74,2.7567,2.7524,2.7532,2.7586,2.7923,2.8654,2.8896,2.8806,2.8937,2.9036,2.9114,2.913,2.9319,2.9335,2.924,2.9406,2.9899,3.047,3.0974,3.1451,3.2091,3.2618,3.3044,3.3384,3.3682,3.423,3.4762,3.4149,3.3537,3.3294,3.3457,3.4089,3.4676,3.5209,0.6914,0.7959,0.847,0.9306,1.0306,1.0869,1.1149,1.1248,1.1484,1.1818,1.2157,1.2286,1.2305,1.2305,1.2305,1.2305,1.2305,1.2323,1.2526,1.2863,1.29,1.3163,1.3332,1.3342,1.3214,1.302,1.2838,1.2699,1.2528,1.2874,1.3434,1.4286,1.5305,1.6615,1.7431,1.7828,1.7242,1.7035,1.7379,1.7474,1.7303,1.7276,1.7385,1.7719,1.7818,1.7951,1.8093,1.8063,1.8149,1.8076,1.756,1.7431,1.7568,1.753,1.7841,1.8329,1.9054,2.0677,2.1805,2.2723,2.27,2.2697,2.2775,2.2855,2.271,2.3547,2.3775,2.3936,2.4417,2.4688,2.4758,2.4806,2.4876,2.4999,2.5136,2.5546,2.5988,2.644,2.6912,2.7214,2.7462,2.7248,2.7128,2.7228,2.7295,2.7404,2.7963,2.8339,2.8345,2.8729,2.8967,2.9079,2.9177,2.9457,2.9599,2.9694,3.0073,3.0698,3.1263,3.1807,3.2273,3.2628,3.3061,3.3487,3.3916,3.4362,3.4667,3.4878,3.4745,3.4379,3.4041,3.42,3.4927,3.5307,3.5578,0.6779,0.758,0.8379,0.916,0.9954,1.0756,1.113,1.1254,1.1607,1.1966,1.2169,1.2268,1.2305,1.2305,1.2305,1.2305,1.2305,1.2305,1.2434,1.279,1.2874,1.3083,1.3309,1.3473,1.3375,1.3188,1.3137,1.3042,1.2918,1.3072,1.3613,1.432,1.4924,1.5589,1.6341,1.662,1.6551,1.6403,1.6499,1.6865,1.6593,1.6424,1.6453,1.6748,1.6975,1.7159,1.7225,1.7377,1.7581,1.7433,1.7348,1.7234,1.7539,1.7818,1.8037,1.8504,1.9471,2.1001,2.215,2.3261,2.3304,2.3398,2.3434,2.3604,2.3719,2.4552,2.4503,2.464,2.4989,2.4848,2.4693,2.4715,2.4896,2.5047,2.5456,2.5853,2.6564,2.7028,2.7329,2.7569,2.7474,2.7174,2.6891,2.6865,2.6973,2.7088,2.7215,2.7571,2.7915,2.8298,2.8732,2.8928,2.9281,2.969,3.0046,3.0354,3.0812,3.1476,3.1947,3.2386,3.2705,3.2995,3.3473,3.386,3.4063,3.4312,3.472,3.4861,3.4755,3.4719,3.4604,3.4998,3.5775,3.5871,3.5876,0.6741,0.7522,0.8341,0.9098,0.9916,1.0794,1.1279,1.1465,1.1818,1.2003,1.2046,1.2249,1.2305,1.2305,1.2305,1.2305,1.2305,1.2305,1.2452,1.2624,1.2771,1.2991,1.3218,1.3382,1.3411,1.3444,1.3433,1.3367,1.3448,1.3397,1.3793,1.4176,1.4171,1.4625,1.5196,1.5647,1.5629,1.5487,1.5805,1.6,1.5687,1.5394,1.5504,1.5727,1.592,1.6159,1.6452,1.6914,1.7287,1.7417,1.7492,1.7631,1.7841,1.8103,1.8186,1.8601,1.9581,2.0707,2.1987,2.3101,2.4092,2.4327,2.483,2.5261,2.5434,2.5478,2.5315,2.5071,2.5143,2.4804,2.4572,2.4783,2.4995,2.5348,2.577,2.6425,2.7246,2.7683,2.7945,2.7999,2.7798,2.7526,2.7255,2.7126,2.6948,2.6806,2.6905,2.7048,2.7393,2.7708,2.8168,2.8751,2.9206,2.9946,3.036,3.0826,3.1511,3.2174,3.2297,3.2658,3.3008,3.3256,3.3497,3.3733,3.3962,3.425,3.4635,3.4816,3.4847,3.4823,3.4811,3.5095,3.5627,3.5864,3.5975,0.6432,0.6718,0.7518,0.8399,0.9439,1.1031,1.1781,1.1855,1.1984,1.2077,1.2224,1.2268,1.2305,1.2305,1.2305,1.2305,1.2305,1.2323,1.2427,1.2581,1.2716,1.2936,1.3127,1.3284,1.3382,1.3455,1.3492,1.3492,1.3477,1.3492,1.3528,1.3695,1.371,1.3891,1.4217,1.4605,1.4587,1.4739,1.521,1.5089,1.4855,1.4547,1.4588,1.4563,1.491,1.5191,1.5607,1.6506,1.6997,1.7363,1.7765,1.8025,1.8078,1.8485,1.8802,1.9372,1.9942,2.0528,2.1726,2.2771,2.3906,2.515,2.5807,2.5873,2.6033,2.6086,2.601,2.5662,2.5494,2.5317,2.5019,2.5072,2.5375,2.5794,2.6232,2.6818,2.7543,2.7889,2.8136,2.8176,2.7976,2.7976,2.7676,2.7313,2.7109,2.6791,2.6685,2.6834,2.6953,2.7309,2.7973,2.8602,2.9317,3.0099,3.0839,3.1354,3.2126,3.2777,3.2837,3.2898,3.3103,3.3317,3.345,3.3645,3.3873,3.4176,3.4521,3.4659,3.4744,3.4863,3.4892,3.5155,3.5424,3.5649,3.594,0.628,0.6416,0.7253,0.8408,0.9793,1.1012,1.1706,1.204,1.2102,1.2194,1.2286,1.2305,1.2305,1.2305,1.2305,1.2305,1.2305,1.2323,1.2409,1.2581,1.268,1.2936,1.3119,1.3266,1.3401,1.3473,1.3492,1.3492,1.3492,1.3492,1.351,1.3546,1.3492,1.3601,1.3855,1.4145,1.4274,1.4407,1.453,1.4365,1.4187,1.3966,1.3696,1.3589,1.402,1.4376,1.4869,1.5957,1.6668,1.7309,1.7898,1.8338,1.8659,1.9329,1.9746,2.0276,2.0488,2.1279,2.2404,2.3278,2.4441,2.5544,2.6468,2.673,2.6749,2.6801,2.6454,2.6094,2.6075,2.5984,2.5649,2.5459,2.5875,2.6293,2.6731,2.7173,2.7589,2.7966,2.8128,2.8239,2.8266,2.8324,2.8085,2.7662,2.7486,2.7517,2.7371,2.7189,2.7125,2.7129,2.8,2.8895,2.9596,3.0326,3.1065,3.176,3.2458,3.2977,3.3106,3.3182,3.3293,3.3332,3.3424,3.3607,3.3813,3.4101,3.4374,3.4497,3.4594,3.4727,3.4863,3.5013,3.5223,3.5436,3.5766,0.6319,0.6412,0.7403,0.8822,1.0475,1.0756,1.1372,1.2176,1.2231,1.2286,1.2305,1.2305,1.2305,1.2305,1.2305,1.2305,1.2323,1.2342,1.2452,1.2618,1.2764,1.2991,1.3193,1.3364,1.3401,1.3455,1.3492,1.3492,1.3492,1.3492,1.3492,1.3492,1.3492,1.3564,1.3736,1.3909,1.407,1.415,1.4334,1.4371,1.402,1.3719,1.3419,1.318,1.3425,1.3798,1.4466,1.5305,1.6202,1.7205,1.8132,1.8744,1.9501,2.0149,2.0569,2.0801,2.0866,2.1568,2.2521,2.3403,2.4522,2.5679,2.6812,2.6903,2.6846,2.7163,2.6866,2.6497,2.6415,2.6308,2.6039,2.5989,2.6256,2.6642,2.7078,2.7367,2.763,2.795,2.813,2.8257,2.8406,2.8449,2.8397,2.7976,2.7649,2.8017,2.78,2.7412,2.7446,2.7248,2.784,2.89,2.9365,3.0069,3.121,3.1929,3.2669,3.3118,3.3227,3.3293,3.3293,3.3332,3.3385,3.3516,3.3633,3.3911,3.4147,3.4238,3.4362,3.4582,3.4703,3.4828,3.5001,3.5183,3.5481,0.6396,0.6641,0.7778,0.8575,0.914,1.0464,1.1143,1.1446,1.2058,1.2305,1.2305,1.2305,1.2305,1.2305,1.2305,1.2305,1.2342,1.2434,1.2551,1.268,1.2845,1.3046,1.3174,1.3309,1.339,1.3455,1.3492,1.3477,1.344,1.3455,1.3477,1.3484,1.3462,1.3495,1.36,1.3781,1.3906,1.3886,1.4149,1.4151,1.3813,1.3418,1.3076,1.2972,1.3108,1.3603,1.4455,1.5773,1.6789,1.7846,1.9189,1.9864,2.0245,2.0443,2.0591,2.0751,2.0991,2.1621,2.2314,2.3152,2.3943,2.4543,2.5305,2.5975,2.6509,2.7142,2.729,2.6906,2.669,2.6611,2.6559,2.6572,2.6638,2.7007,2.7324,2.7505,2.7673,2.7888,2.8131,2.8311,2.8476,2.8514,2.8492,2.8315,2.8017,2.7662,2.7255,2.7094,2.7571,2.7603,2.7615,2.8423,2.874,2.9522,3.0909,3.184,3.2462,3.2998,3.32,3.3253,3.328,3.3319,3.3346,3.3332,3.345,3.3707,3.386,3.3848,3.3996,3.4321,3.4509,3.4611,3.472,3.4883,3.516,0.6544,0.6811,0.7553,0.8122,0.8746,1.0008,1.0769,1.1205,1.1954,1.2305,1.2305,1.2305,1.2305,1.2305,1.2305,1.2378,1.2415,1.2551,1.2735,1.2881,1.2973,1.3156,1.3255,1.3328,1.3408,1.3492,1.3484,1.3473,1.3349,1.3272,1.3265,1.3287,1.3297,1.3348,1.3416,1.362,1.3697,1.358,1.3959,1.3929,1.3697,1.3526,1.3354,1.3243,1.3292,1.3745,1.4684,1.5995,1.7052,1.8338,1.9766,2.0476,2.0811,2.1081,2.1227,2.1366,2.1536,2.1758,2.232,2.2794,2.335,2.4023,2.4547,2.551,2.6299,2.6875,2.7179,2.691,2.7124,2.7092,2.7079,2.7092,2.7118,2.734,2.7419,2.7501,2.7686,2.7868,2.8046,2.8177,2.8376,2.8557,2.8546,2.8519,2.8275,2.8261,2.7691,2.7556,2.7895,2.7976,2.7993,2.81,2.8527,2.962,3.1243,3.183,3.2069,3.2574,3.3062,3.3158,3.32,3.3253,3.3309,3.3322,3.3361,3.3477,3.3565,3.3617,3.3822,3.4147,3.4288,3.4378,3.4472,3.4594,3.4871,0.6753,0.6965,0.7176,0.7733,0.8585,0.941,1.0196,1.0975,1.1781,1.2194,1.2305,1.2305,1.2305,1.2305,1.2305,1.2452,1.2581,1.2661,1.2881,1.3083,1.3193,1.3309,1.3401,1.3473,1.3492,1.3492,1.3484,1.3287,1.3075,1.3067,1.306,1.2987,1.3015,1.3064,1.3269,1.3518,1.3646,1.3544,1.3679,1.3814,1.3849,1.3932,1.3733,1.3641,1.3723,1.416,1.5002,1.6032,1.71,1.8622,2.0147,2.0894,2.1288,2.1539,2.172,2.1845,2.1899,2.2304,2.2818,2.2896,2.3561,2.4205,2.4583,2.5057,2.5767,2.6316,2.6624,2.7015,2.7233,2.7464,2.7451,2.7438,2.7493,2.7506,2.749,2.7503,2.7669,2.7832,2.7964,2.8063,2.8262,2.8506,2.8541,2.8527,2.8573,2.8587,2.8587,2.8587,2.8532,2.8397,2.8318,2.8406,2.8648,2.9961,3.1259,3.1433,3.1363,3.2255,3.2722,3.2929,3.3105,3.3227,3.3293,3.3309,3.3346,3.3411,3.3477,3.3542,3.3771,3.3937,3.4025,3.4088,3.4226,3.4374,3.4594,0.6945,0.7165,0.7373,0.7576,0.7868,0.8618,0.9372,1.0196,1.0993,1.1651,1.2176,1.2305,1.2305,1.2305,1.2305,1.2434,1.2636,1.2771,1.2973,1.3181,1.3328,1.3444,1.3499,1.3492,1.3492,1.3477,1.3433,1.3272,1.2936,1.2904,1.2852,1.2648,1.2904,1.2916,1.2802,1.3114,1.3459,1.3392,1.3658,1.3927,1.3702,1.371,1.3662,1.3704,1.3887,1.4242,1.4937,1.6132,1.7409,1.8901,2.0456,2.1331,2.1652,2.1742,2.1852,2.1902,2.1997,2.2082,2.2362,2.24,2.2883,2.3106,2.3364,2.3683,2.448,2.5376,2.5836,2.6603,2.6926,2.739,2.746,2.7477,2.749,2.749,2.7503,2.7503,2.7586,2.7736,2.7855,2.7987,2.8134,2.83,2.8398,2.8446,2.8571,2.8571,2.8587,2.8587,2.8587,2.8587,2.8587,2.867,2.8769,2.92,3.0011,3.0315,3.0539,3.1534,3.2377,3.26,3.2875,3.3227,3.3293,3.328,3.328,3.3319,3.3398,3.345,3.3464,3.3578,3.3694,3.3809,3.3962,3.4126,3.4349]},{"header":{"parameterUnit":"m.s-1","parameterCategory":1,"la1":31.0,"la2":29.5877,"lo1":-88.7671,"lo2":-86.6584,"dy":0.0162,"dx":0.0185,"nx":115,"ny":88,"refTime":"2023-10-18T12:00:00:Z","depth":0,"parameterNumber":3,"parameterNumberName":"V-component_of_WINDS"},"data":[0.0,0.0,0.0,0.0,0.0,0.0,0.0,0.0,0.0,0.0,0.0,0.0,0.0,0.0,0.0,0.0,0.0,0.0,0.0,0.0,0.0,0.0,0.0,0.0,0.0,0.0,0.0,0.0,0.0,0.0,0.0,0.0,0.0,0.0,0.0,0.0,0.0,0.0,0.0,0.0,0.0,0.0,0.0,0.0,0.0,0.0,0.0,0.0,0.0,0.0,0.0,0.0,0.0,0.0,0.0,0.0,0.0,0.0,0.0,0.0,0.0,0.0,0.0,0.0,0.0,0.0,0.0,0.0,0.0,0.0,0.0,0.0,0.0,0.0,0.0,0.0,0.0,0.0,0.0,0.0,0.0,0.0,0.0,0.0,0.0,0.0,0.0,0.0,0.0,0.0,0.0,0.0,0.0,0.0,0.0,0.0,0.0,0.0,0.0,0.0,0.0,0.0,0.0,0.0,0.0,0.0,0.0,0.0,0.0,0.0,0.0,0.0,0.0,0.0,0.0,0.0,0.0,0.0,0.0,0.0,0.0,0.0,0.0,0.0,0.0,0.0,0.0,0.0,0.0,0.0,0.0,0.0,0.0,0.0,0.0,0.0,0.0,0.0,0.0,0.0,0.0,0.0,0.0,0.0,0.0,0.0,0.0,0.0,0.0,0.0,0.0,0.0,0.0,0.0,0.0,0.0,0.0,0.0,0.0,0.0,0.0,0.0,0.0,0.0,0.0,0.0,0.0,0.0,0.0,0.0,0.0,0.0,0.0,0.0,0.0,0.0,0.0,0.0,0.0,0.0,0.0,0.0,0.0,0.0,0.0,0.0,0.0,0.0,0.0,0.0,0.0,0.0,0.0,0.0,0.0,0.0,0.0,0.0,0.0,0.0,0.0,0.0,0.0,0.0,0.0,0.0,0.0,0.0,0.0,0.0,0.0,0.0,0.0,0.0,0.0,0.0,0.0,0.0,0.0,0.0,0.0,0.0,0.0,0.0,0.0,0.0,0.0,0.0,0.0,0.0,0.0,0.0,0.0,0.0,0.0,0.0,0.0,0.0,0.0,0.0,0.0,0.0,0.0,0.0,0.0,0.0,0.0,0.0,0.0,0.0,0.0,0.0,0.0,0.0,0.0,0.0,0.0,0.0,0.0,0.0,0.0,0.0,0.0,0.0,0.0,0.0,0.0,0.0,0.0,0.0,0.0,0.0,0.0,0.0,0.0,0.0,0.0,0.0,0.0,0.0,0.0,0.0,0.0,0.0,0.0,0.0,0.0,0.0,0.0,0.0,0.0,0.0,0.0,0.0,0.0,0.0,0.0,0.0,0.0,0.0,0.0,0.0,0.0,0.0,0.0,0.0,0.0,0.0,0.0,0.0,0.0,0.0,0.0,0.0,0.0,0.0,0.0,0.0,0.0,0.0,0.0,0.0,0.0,0.0,0.0,0.0,0.0,0.0,0.0,0.0,0.0,0.0,0.0,0.0,0.0,0.0,0.0,0.0,0.0,0.0,0.0,0.0,0.0,0.0,0.0,0.0,0.0,0.0,0.0,0.0,0.0,0.0,0.0,0.0,0.0,0.0,0.0,0.0,0.0,0.0,0.0,0.0,0.0,0.0,0.0,0.0,0.0,0.0,0.0,0.0,0.0,0.0,0.0,0.0,0.0,0.0,0.0,0.0,0.0,0.0,0.0,0.0,0.0,0.0,0.0,0.0,0.0,0.0,0.0,0.0,0.0,0.0,0.0,0.0,0.0,0.0,0.0,0.0,0.0,0.0,0.0,0.0,0.0,0.0,0.0,0.0,0.0,0.0,0.0,0.0,0.0,0.0,0.0,0.0,0.0,0.0,0.0,0.0,0.0,0.0,0.0,0.0,0.0,0.0,0.0,0.0,0.0,0.0,0.0,0.0,0.0,0.0,0.0,0.0,0.0,0.0,0.0,0.0,0.0,0.0,0.0,0.0,0.0,0.0,0.0,0.0,0.0,0.0,0.0,0.0,0.0,0.0,0.0,0.0,0.0,0.0,0.0,0.0,0.0,0.0,0.0,0.0,0.0,0.0,0.0,0.0,0.0,0.0,0.0,0.0,0.0,0.0,0.0,0.0,0.0,0.0,0.0,0.0,0.0,0.0,0.0,0.0,0.0,0.0,0.0,0.0,0.0,0.0,0.0,0.0,0.0,0.0,0.0,0.0,0.0,0.0,0.0,0.0,0.0,0.0,0.0,0.0,0.0,0.0,0.0,0.0,0.0,0.0,0.0,0.0,0.0,0.0,0.0,0.0,0.0,0.0,0.0,0.0,0.0,0.0,0.0,0.0,0.0,0.0,0.0,0.0,0.0,0.0,0.0,0.0,0.0,0.0,0.0,0.0,0.0,0.0,0.0,0.0,0.0,0.0,0.0,0.0,0.0,0.0,0.0,0.0,0.0,0.0,0.0,0.0,0.0,0.0,0.0,0.0,0.0,0.0,0.0,0.0,0.0,0.0,0.0,0.0,0.0,0.0,0.0,0.0,0.0,0.0,0.0,0.0,0.0,0.0,0.0,0.0,0.0,0.0,0.0,0.0,0.0,0.0,0.0,0.0,0.0,0.0,0.0,0.0,0.0,0.0,0.0,0.0,0.0,0.0,0.0,0.0,0.0,0.0,0.0,0.0,0.0,0.0,0.0,0.0,0.0,0.0,0.0,0.0,0.0,0.0,0.0,0.0,0.0,0.0,0.0,0.0,0.0,0.0,0.0,0.0,0.0,0.0,0.0,0.0,0.0,0.0,0.0,0.0,0.0,0.0,0.0,0.0,0.0,0.0,0.0,0.0,0.0,0.0,0.0,0.0,0.0,0.0,0.0,0.0,0.0,0.0,0.0,0.0,0.0,0.0,0.0,0.0,0.0,0.0,0.0,0.0,0.0,0.0,0.0,0.0,0.0,0.0,0.0,0.0,0.0,0.0,0.0,0.0,0.0,0.0,0.0,0.0,0.0,0.0,0.0,0.0,0.0,0.0,0.0,0.0,0.0,0.0,0.0,0.0,0.0,0.0,0.0,0.0,0.0,0.0,0.0,0.0,0.0,0.0,0.0,0.0,0.0,0.0,0.0,0.0,0.0,0.0,0.0,0.0,0.0,0.0,0.0,0.0,0.0,0.0,0.0,0.0,0.0,0.0,0.0,0.0,0.0,0.0,0.0,0.0,0.0,0.0,0.0,0.0,0.0,0.0,0.0,0.0,0.0,0.0,0.0,0.0,0.0,0.0,0.0,0.0,0.0,0.0,0.0,0.0,0.0,0.0,0.0,0.0,0.0,0.0,0.0,0.0,0.0,0.0,0.0,0.0,0.0,0.0,0.0,0.0,0.0,0.0,0.0,0.0,0.0,0.0,0.0,0.0,0.0,0.0,0.0,0.0,0.0,0.0,0.0,0.0,0.0,0.0,0.0,0.0,0.0,0.0,0.0,0.0,0.0,0.0,0.0,0.0,0.0,0.0,0.0,0.0,0.0,0.0,0.0,0.0,0.0,0.0,0.0,0.0,0.0,0.0,0.0,0.0,0.0,0.0,0.0,0.0,0.0,0.0,0.0,0.0,0.0,0.0,0.0,0.0,0.0,0.0,0.0,0.0,0.0,0.0,0.0,0.0,0.0,0.0,0.0,0.0,0.0,0.0,0.0,0.0,0.0,0.0,0.0,0.0,0.0,0.0,0.0,0.0,0.0,0.0,0.0,0.0,0.0,0.0,0.0,0.0,0.0,0.0,0.0,0.0,0.0,0.0,0.0,0.0,0.0,0.0,0.0,0.0,0.0,0.0,0.0,0.0,0.0,0.0,0.0,0.0,0.0,0.0,0.0,0.0,0.0,0.0,0.0,0.0,0.0,0.0,0.0,0.0,0.0,0.0,0.0,0.0,0.0,0.0,0.0,0.0,0.0,0.0,0.0,0.0,0.0,0.0,0.0,0.0,0.0,0.0,0.0,0.0,0.0,0.0,0.0,0.0,0.0,0.0,0.0,0.0,0.0,0.0,0.0,0.0,0.0,0.0,0.0,0.0,0.0,0.0,0.0,0.0,0.0,0.0,0.0,0.0,0.0,0.0,0.0,0.0,0.0,0.0,0.0,0.0,0.0,0.0,0.0,0.0,0.0,0.0,0.0,0.0,0.0,0.0,0.0,0.0,0.0,0.0,0.0,0.0,0.0,0.0,0.0,0.0,0.0,0.0,0.0,0.0,0.0,0.0,0.0,0.0,0.0,0.0,0.0,0.0,0.0,0.0,0.0,0.0,0.0,0.0,0.0,0.0,0.5103,0.0,0.0,0.0,0.0,0.0,0.0,0.0,0.0,0.0,0.0,0.0,0.0,0.0,0.0,0.0,0.0,0.0,0.0,0.0,0.0,0.0,0.0,0.0,0.0,0.0,0.0,0.0,0.0,0.0,0.0,0.0,0.0,0.0,0.0,0.0,0.0,0.0,0.0,0.0,0.0,0.0,0.0,0.0,0.0,0.0,0.0,0.0,0.0,0.0,0.0,0.0,0.0,0.0,0.0,0.0,0.0,0.0,0.0,0.0,0.0,0.0,0.0,0.0,0.0,0.0,0.0,0.0,0.0,0.0,0.0,0.0,0.0,0.0,0.0,0.0,0.0,0.0,0.0,0.0,0.0,0.0,0.0,0.0,0.0,0.0,0.0,0.0,0.0,0.0,0.0,0.0,0.0,0.0,0.0,0.0,0.0,0.0,0.0,0.0,0.0,0.0,0.0,0.0,0.0,0.0,0.0,0.0,0.0,0.0,0.0,0.4956,0.499,0.5209,0.5219,0.4956,0.0,0.0,0.0,0.0,0.0,0.0,0.0,0.0,0.0,0.0,0.0,0.0,0.0,0.0,0.0,0.0,0.0,0.0,0.0,0.0,0.0,0.0,0.0,0.0,0.0,0.0,0.0,0.0,0.0,0.0,0.0,0.0,0.0,0.0,0.0,0.0,0.0,0.0,0.0,0.0,0.0,0.0,0.0,0.0,0.0,0.0,0.0,0.0,0.0,0.0,0.0,0.0,0.0,0.0,0.0,0.0,0.0,0.0,0.0,0.0,0.0,0.0,0.0,0.0,0.0,0.0,0.0,0.0,0.0,0.0,0.0,0.0,0.0,0.0,0.0,0.0,0.0,0.0,0.0,0.0,0.0,0.0,0.0,0.0,0.0,0.0,0.0,0.0,0.0,0.0,0.0,0.0,0.0,0.0,0.0,0.0,0.0,0.0,0.0,0.0,0.0,0.0,0.0,0.0,0.0,0.0,0.0,0.0,0.0,0.0,0.0,0.0,0.5133,0.5179,0.5043,0.0,0.0,0.0,0.0,0.0,0.0,0.0,0.0,0.0,0.0,0.0,0.0,0.0,0.0,0.0,0.0,0.0,0.0,0.0,0.0,0.0,0.0,0.0,0.0,0.0,0.0,0.0,0.0,0.0,0.0,0.0,0.0,0.0,0.0,0.0,0.0,0.0,0.0,0.0,0.0,0.0,0.0,0.0,0.0,0.0,0.0,0.0,0.0,0.0,0.0,0.0,0.0,0.0,0.0,0.0,0.0,0.0,0.0,0.0,0.0,0.0,0.0,0.0,0.0,0.0,0.0,0.0,0.0,0.0,0.0,0.0,0.0,0.0,0.0,0.0,0.0,0.0,0.0,0.0,0.0,0.0,0.0,0.0,0.0,0.0,0.0,0.0,0.0,0.0,0.0,0.0,0.0,0.0,0.0,0.0,0.0,0.0,0.0,0.0,0.0,0.0,0.0,0.0,0.0,0.0,0.0,0.0,0.0,0.0,0.0,0.4972,0.5327,0.5381,0.0,0.5443,0.0,0.0,0.0,0.0,0.0,0.0,0.0,0.0,0.0,0.0,0.0,0.0,0.0,0.0,0.0,0.0,0.0,0.0,0.0,0.0,0.0,0.0,0.0,0.0,0.0,0.0,0.0,0.0,0.0,0.0,0.0,0.0,0.0,0.0,0.0,0.0,0.0,0.0,0.0,0.0,0.0,0.0,0.0,0.0,0.0,0.0,0.0,0.0,0.0,0.0,0.0,0.0,0.0,0.0,0.0,0.0,0.0,0.0,0.0,0.0,0.0,0.0,0.0,0.0,0.0,0.0,0.0,0.0,0.0,0.0,0.0,0.0,0.0,0.0,0.0,0.0,0.0,0.0,0.0,0.0,0.0,0.0,0.0,0.0,0.0,0.0,0.0,0.0,0.0,0.0,0.0,0.0,0.0,0.0,0.0,0.0,0.0,0.0,0.0,0.0,0.0,0.0,0.0,0.0,0.0,0.0,0.0,0.0,0.0,0.0,0.5238,0.5393,0.5402,0.543,0.0,0.0,0.0,0.0,0.0,0.0,0.0,0.0,0.0,0.0,0.0,0.0,0.0,0.0,0.0,0.0,0.0,0.0,0.0,0.0,0.0,0.0,0.0,0.0,0.0,0.0,0.0,0.0,0.0,0.0,0.0,0.0,0.0,0.0,0.0,0.0,0.0,0.0,0.0,0.0,0.0,0.0,0.0,0.0,0.0,0.0,0.0,0.0,0.0,0.0,0.0,0.0,0.0,0.0,0.0,0.0,0.0,0.0,0.0,0.0,0.0,0.0,0.0,0.0,0.0,0.0,0.0,0.0,0.0,0.0,0.0,0.0,0.0,0.0,0.0,0.0,0.0,0.0,0.0,0.0,0.0,0.0,0.0,0.0,0.0,0.0,0.0,0.0,0.0,0.0,0.0,0.0,0.0,0.0,0.0,0.0,0.0,0.0,0.0,0.0,0.0,0.0,0.0,0.0,0.0,0.0,0.0,0.0,0.0,0.0,0.5296,0.5461,0.5546,0.5565,0.5542,0.5502,0.0,0.0,0.0,0.0,0.0,0.0,0.0,0.0,0.0,0.0,0.0,0.0,0.0,0.0,0.0,0.0,0.0,0.0,0.0,0.0,0.0,0.0,0.0,0.0,0.0,0.0,0.0,0.0,0.0,0.0,0.0,0.0,0.0,0.0,0.0,0.0,0.0,0.0,0.0,0.0,0.0,0.0,0.0,0.0,0.0,0.0,0.0,0.0,0.0,0.0,0.0,0.0,0.0,0.0,0.0,0.0,0.0,0.0,0.0,0.0,0.0,0.0,0.0,0.0,0.0,0.0,0.0,0.0,0.0,0.0,0.0,0.0,0.0,0.0,0.0,0.0,0.0,0.0,0.0,0.0,0.0,0.0,0.0,0.0,0.0,0.0,0.0,0.0,0.0,0.0,0.0,0.0,0.0,0.0,0.0,0.0,0.0,0.0,0.0,0.0,0.0,0.0,0.0,0.0,0.0,0.0,0.0,0.0,0.5697,0.5523,0.5602,0.5957,0.5981,0.5829,0.0,0.0,0.0,0.0,0.0,0.0,0.0,0.0,0.0,0.0,0.0,0.0,0.0,0.0,0.0,0.0,0.0,0.0,0.0,0.0,0.0,0.0,0.0,0.0,0.0,0.0,0.0,0.0,0.0,0.0,0.0,0.0,0.0,0.0,0.0,0.0,0.0,0.0,0.0,0.0,0.0,0.0,0.0,0.0,0.0,0.0,0.0,0.0,0.0,0.0,0.0,0.0,0.0,0.0,0.0,0.0,0.0,0.0,0.0,0.0,0.0,0.0,0.0,0.0,0.0,0.0,0.0,0.0,0.0,0.0,0.0,0.0,0.0,0.0,0.0,0.0,0.0,0.0,0.0,0.0,0.0,0.0,0.0,0.0,0.0,0.0,0.0,0.0,0.0,0.0,0.0,0.0,0.0,0.0,0.0,0.0,0.0,0.0,0.0,0.0,0.0,0.0,0.0,0.0,0.0,0.0,0.0,0.0,0.0,0.4963,0.5242,0.5723,0.6343,0.5893,0.5688,0.0,0.0,0.0,0.0,0.0,0.0,0.0,0.0,0.0,0.0,0.0,0.0,0.0,0.0,0.0,0.0,0.0,0.0,0.0,0.0,0.0,0.0,0.0,0.0,0.0,0.0,0.0,0.0,0.0,0.0,0.0,0.0,0.0,0.0,0.0,0.0,0.0,0.0,0.0,0.0,0.0,0.0,0.0,0.0,0.0,0.0,0.0,0.0,0.0,0.0,0.0,0.0,0.0,0.0,0.0,0.0,0.0,0.0,0.0,0.0,0.0,0.0,0.0,0.0,0.0,0.0,0.0,0.0,0.0,0.0,0.0,0.0,0.0,0.0,0.0,0.0,0.0,0.0,0.0,0.0,0.0,0.0,0.0,0.0,0.0,0.0,0.0,0.0,0.0,0.0,0.0,0.0,0.0,0.0,0.0,0.0,0.0,0.0,0.0,0.0,0.0,0.0,0.0,0.0,0.0,0.0,0.0,0.0,0.0,0.4923,0.0,0.5903,0.6334,0.5838,0.5592,0.0,0.0,0.0,0.0,0.0,0.0,0.0,0.0,0.0,0.0,0.0,0.0,0.0,0.0,0.0,0.0,0.0,0.0,0.0,0.0,0.0,0.0,0.0,0.0,0.0,0.0,0.0,0.0,0.0,0.0,0.0,0.0,0.0,0.0,0.0,0.0,0.0,0.0,0.0,0.0,0.0,0.0,0.0,0.0,0.0,0.0,0.0,0.0,0.0,0.0,0.0,0.0,0.0,0.0,0.0,0.0,0.0,0.0,0.0,0.0,0.0,0.0,0.0,0.0,0.0,0.0,0.0,0.0,0.0,0.0,0.0,0.0,0.0,0.0,0.0,0.0,0.0,0.0,0.0,0.0,0.0,0.0,0.0,0.0,0.0,0.0,0.0,0.0,0.0,0.0,0.0,0.0,0.0,0.0,0.0,0.0,0.0,0.0,0.0,0.0,0.0,0.0,0.0,0.0,0.0,0.0,0.0,0.0,0.482,0.5731,0.6083,0.6156,0.5939,0.5885,0.5561,0.0,0.0,0.0,0.0,0.0,0.0,0.0,0.0,0.0,0.0,0.0,0.0,0.0,0.0,0.0,0.0,0.0,0.0,0.0,0.0,0.0,0.0,0.0,0.0,0.0,0.0,0.0,0.0,0.0,0.0,0.0,0.0,0.0,0.0,0.0,0.0,0.0,0.0,0.0,0.0,0.0,0.0,0.0,0.0,0.0,0.0,0.0,0.0,0.0,0.0,0.0,0.0,0.0,0.0,0.0,0.0,0.0,0.0,0.0,0.0,0.0,0.0,0.0,0.0,0.0,0.0,0.0,0.0,0.0,0.0,0.0,0.0,0.0,0.0,0.0,0.0,0.0,0.0,0.0,0.0,0.0,0.0,0.0,0.0,0.0,0.0,0.0,0.0,0.0,0.0,0.0,0.0,0.0,0.0,0.0,0.0,0.0,0.0,0.0,0.0,0.0,0.0,0.0,0.0,0.0,0.0,0.0,0.0,0.0,0.5327,0.5698,0.6109,0.6539,0.5865,0.5631,0.0,0.0,0.0,0.0,0.0,0.0,0.0,0.0,0.0,0.0,0.0,0.0,0.0,0.0,0.0,0.0,0.0,0.0,0.0,0.0,0.0,0.0,0.0,0.0,0.0,0.0,0.0,0.0,0.0,0.0,0.0,0.0,0.0,0.0,0.0,0.0,0.0,0.0,0.0,0.0,0.0,0.0,0.0,0.0,0.0,0.0,0.0,0.0,0.0,0.0,0.0,0.0,0.0,0.0,0.0,0.0,0.0,0.0,0.0,0.0,0.0,0.0,0.0,0.0,0.0,0.0,0.0,0.0,0.0,0.0,0.0,0.0,0.0,0.0,0.0,0.0,0.0,0.0,0.0,0.0,0.0,0.0,0.0,0.0,0.0,0.0,0.0,0.0,0.0,0.0,0.0,0.0,0.0,0.0,0.0,0.0,0.0,0.0,0.0,0.0,0.0,0.0,0.0,0.0,0.0,0.0,0.0,0.0,0.0,0.5374,0.606,0.657,0.686,0.6079,0.579,0.6034,0.0,0.0,0.0,0.0,0.0,0.0,0.0,0.0,0.0,0.0,0.0,0.0,0.0,0.0,0.0,0.0,0.0,0.0,0.0,0.0,0.0,0.0,0.0,0.0,0.0,0.0,0.0,0.0,0.0,0.0,0.0,0.0,0.0,0.0,0.0,0.0,0.0,0.0,0.0,0.0,0.0,0.0,0.0,0.0,0.0,0.0,0.0,0.0,0.0,0.0,0.0,0.0,0.0,0.0,0.0,0.0,0.0,0.0,0.0,0.0,0.0,0.0,0.0,0.0,0.0,0.0,0.0,0.0,0.0,0.0,0.0,0.0,0.0,0.0,0.0,0.0,0.0,0.0,0.0,0.0,0.0,0.0,0.0,0.0,0.0,0.0,0.0,0.0,0.0,0.0,0.0,0.0,0.0,0.0,0.0,0.0,0.0,0.0,0.0,0.0,0.0,0.0,0.0,0.0,0.0,0.0,0.0,0.0,0.5732,0.7041,0.7468,0.6928,0.6502,0.6026,0.0,0.0,0.0,0.0,0.0,0.0,0.0,0.0,0.0,0.0,0.0,0.0,0.0,0.0,0.0,0.0,0.0,0.0,0.0,0.0,0.0,0.0,0.0,0.0,0.0,0.0,0.0,0.0,0.0,0.0,0.0,0.0,0.0,0.0,0.0,0.0,0.0,0.0,0.0,0.0,0.0,0.0,0.0,0.0,0.0,0.0,0.0,0.0,0.0,0.0,0.0,0.0,0.0,0.0,0.0,0.0,0.0,0.0,0.0,0.0,0.0,0.0,0.0,0.0,0.0,0.0,0.0,0.0,0.0,0.0,0.0,0.0,0.0,0.0,0.0,0.0,0.0,0.0,0.0,0.0,0.0,0.0,0.0,0.0,0.0,0.0,0.0,0.0,0.0,0.0,0.0,0.0,0.0,0.0,0.0,0.0,0.0,0.0,0.0,0.0,0.0,0.0,0.0,0.0,0.0,0.0,0.0,0.0,0.0,0.6285,0.7621,0.8281,0.8104,0.694,0.6471,0.0,0.0,0.0,0.0,0.0,0.0,0.0,0.0,0.0,0.0,0.0,0.0,0.0,0.0,0.0,0.0,0.0,0.0,0.0,0.0,0.0,0.0,0.0,0.0,0.0,0.0,0.0,0.0,0.0,0.0,0.0,0.0,0.0,0.0,0.0,0.0,0.0,0.0,0.0,0.0,0.0,0.0,0.0,0.0,0.0,0.0,0.0,0.0,0.0,0.0,0.0,0.0,0.0,0.0,0.0,0.0,0.0,0.0,0.0,0.0,0.0,0.0,0.0,0.0,0.0,0.0,0.0,0.0,0.0,0.0,0.0,0.0,0.0,0.0,0.0,0.0,0.0,0.0,0.0,0.0,0.0,0.0,0.0,0.0,0.0,0.0,0.0,0.0,0.0,0.0,0.0,0.0,0.0,0.0,0.0,0.0,0.0,0.0,0.0,0.0,0.0,0.0,0.0,0.0,0.0,0.0,0.0,0.0,0.6526,0.6546,0.7905,0.8718,0.8886,0.78,0.7122,0.0,0.0,0.0,0.0,0.0,0.0,0.0,0.0,0.0,0.0,0.0,0.0,0.0,0.0,0.0,0.0,0.0,0.0,0.0,0.0,0.0,0.0,0.0,0.0,0.0,0.0,0.0,0.0,0.0,0.0,0.0,0.0,0.0,0.0,0.0,0.0,0.0,0.0,0.0,0.0,0.0,0.0,0.0,0.0,0.0,0.0,0.0,0.0,0.0,0.0,0.0,0.0,0.0,0.0,0.0,0.0,0.0,0.0,0.0,0.0,0.0,0.0,0.0,0.0,0.0,0.0,0.0,0.0,0.0,0.0,0.0,0.0,0.0,0.0,0.0,0.0,0.0,0.0,0.0,0.0,0.0,0.0,0.0,0.0,0.0,0.0,0.0,0.0,0.0,0.0,0.0,0.0,0.0,0.0,0.0,0.0,0.0,0.0,0.0,0.0,0.0,0.0,0.0,0.0,0.0,0.0,0.0,0.0,0.6498,0.6747,0.8028,0.8879,0.9192,0.8686,0.7783,0.0,0.0,0.0,0.0,0.0,0.0,0.0,0.0,0.0,0.0,0.0,0.0,0.0,0.0,0.0,0.0,0.0,0.0,0.0,0.0,0.0,0.0,0.0,0.0,0.0,0.0,0.0,0.0,0.0,0.0,0.0,0.0,0.0,0.0,0.0,0.0,0.0,0.0,0.0,0.0,0.0,0.0,0.0,0.0,0.0,0.0,0.0,0.0,0.0,0.0,0.0,0.0,0.0,0.0,0.0,0.0,0.0,0.0,0.0,0.0,0.0,0.0,0.0,0.0,0.0,0.0,0.0,0.0,0.0,0.0,0.0,0.0,0.0,0.0,0.0,0.0,0.0,0.0,0.0,0.0,0.0,0.0,0.0,0.0,0.0,0.0,0.0,0.0,0.0,0.0,0.0,0.0,0.0,0.0,0.0,0.0,0.0,0.0,0.0,0.0,0.0,0.0,0.0,0.0,0.0,0.0,0.0,0.0,0.6544,0.7011,0.8162,0.8802,0.8807,0.8056,0.7585,0.0,0.0,0.0,0.0,0.0,0.0,0.0,0.0,0.0,0.0,0.0,0.0,0.0,0.0,0.0,0.0,0.0,0.0,0.0,0.0,0.0,0.0,0.0,0.0,0.0,0.0,0.0,0.0,0.0,0.0,0.0,0.0,0.0,0.0,0.0,0.0,0.0,0.0,0.0,0.0,0.0,0.0,0.0,0.0,0.0,0.0,0.0,0.0,0.0399,0.0,0.0,0.0,0.0,0.0,0.0,0.0,0.0,0.0,0.0,0.0,0.0,0.0,0.0,0.0,0.0,0.0,0.0,0.0,0.0,0.0,0.0,0.0,0.0,0.0,0.0,0.0,0.0,0.0,0.0,0.0,0.0,0.0,0.0,0.0,0.0,0.0,0.0,0.0,0.0,0.0,0.0,0.0,0.0,0.0,0.0,0.0,0.0,0.0,0.0,0.0,0.0,0.0,0.0,0.0,0.0,0.0,0.0,0.0,0.7279,0.7713,0.8425,0.8842,0.8899,0.8271,0.7776,0.0,0.0,0.0,0.0,0.0,0.0,0.0,0.0,0.0,0.0,0.0,0.0,0.0,0.0,0.0,0.0,0.0,0.0,0.0,0.0,0.0,0.0,0.0,0.0,0.0,0.0,0.0,0.0,0.0,0.0,0.0,0.0,0.0,0.0,0.0,0.0,0.0,0.0,0.0,0.0,0.0,0.0,0.0,0.0,0.0,0.0,0.0,0.0,0.0,0.0,0.0,0.0,0.0,0.0,0.0,0.0,0.0,0.0,0.0,0.0,0.0,0.0,0.0,0.0,0.0,0.0,0.0,0.0,0.0,0.0,0.0,0.0,0.0,0.0,0.0,0.0,0.0,0.0,0.0,0.0,0.0,0.0,0.0,0.0,0.0,0.0,0.0,0.0,0.0,0.0,0.0,0.0,0.0,0.0,0.0,0.0,0.0,0.0,0.0,0.0,0.0,0.0,0.0,0.0,0.0,0.0,0.0,0.7336,0.7989,0.8437,0.8719,0.9,0.9228,0.8941,0.8255,0.7156,0.0,0.0,0.0,0.0,0.0,0.0,0.0,0.0,0.0,0.0,0.0,0.0,0.0,0.0,0.0,0.0,0.0,0.0,0.0,0.0,0.0,0.0,0.0,0.0,0.0,0.0,0.0,0.0,0.0,0.0,0.0,0.0,0.0,0.0,0.0,0.0,0.0,0.0,0.0421,0.0483,0.0,0.0,0.0,0.0,0.0,0.0,0.0,0.0,0.0867,0.0,0.0,0.0,0.0,0.0,0.0,0.0,0.0,0.0,0.0,0.0,0.0,0.0,0.0,0.0,0.0,0.0,0.0,0.0,0.0,0.0,0.0,0.0,0.0,0.0,0.0,0.0,0.0,0.0,0.0,0.0,0.0,0.0,0.0,0.0,0.0,0.0,0.0,0.0,0.0,0.0,0.0,0.0,0.0,0.0,0.0,0.0,0.0,0.0,0.0,0.0,0.0,0.0,0.0,0.0,0.0,0.7354,0.722,0.764,0.8621,0.9024,0.9289,0.9469,0.9817,0.9118,0.7304,0.0,0.0,0.0,0.0,0.0,0.0,0.0,0.0,0.0,0.0,0.0,0.0,0.0,0.0,0.0,0.0,0.0,0.0,0.0,0.0,0.0,0.0,0.0,0.0,0.0,0.0,0.0,0.0,0.0,0.0,0.0,0.0,0.0,0.0,0.0,0.0,0.0,0.0,0.0,0.0546,0.0549,0.0,0.0,0.0,0.0,0.0,0.0,0.0,0.0,0.0938,0.0,0.0,0.0,0.0,0.0,0.0,0.0,0.0,0.0,0.0,0.0,0.0,0.0,0.0,0.0,0.0,0.0,0.0,0.0,0.0,0.0,0.0,0.0,0.0,0.0,0.0,0.0,0.0,0.0,0.0,0.0,0.0,0.0,0.0,0.0,0.0,0.0,0.0,0.0,0.0,0.0,0.0,0.0,0.0,0.0,0.0,0.0,0.0,0.0,0.0,0.0,0.0,0.0,0.0,0.0,0.7283,0.7696,0.8245,0.8994,0.9178,0.9328,0.9488,0.9214,0.8446,0.0,0.0,0.0,0.0,0.0,0.0,0.0,0.0,0.0,0.0,0.0,0.0,0.0,0.0,0.0,0.0,0.0,0.0,0.0,0.0,0.0,0.0,0.0,0.0,0.0,0.0,0.0,0.0,0.0,0.0,0.0,0.0,0.0,0.0,0.0,0.0,0.0,0.0,0.0,0.0,0.0547,0.0611,0.0613,0.0,0.0,0.0,0.0,0.0,0.0,0.1275,0.1294,0.0,0.0,0.0,0.0,0.0,0.0,0.0,0.0,0.0,0.0,0.0,0.0,0.0,0.0,0.0,0.0,0.0,0.0,0.0,0.0,0.0,0.0,0.0,0.0,0.0,0.0,0.0,0.0,0.0,0.0,0.0,0.0,0.0,0.0,0.0,0.0,0.0,0.0,0.0,0.0,0.0,0.0,0.0,0.0,0.0,0.0,0.0,0.0,0.0,0.0,0.0,0.0,0.0,0.0,0.0,0.7093,0.8074,0.8847,0.9363,0.9367,0.9437,0.9578,0.87,0.7866,0.0,0.0,0.0,0.0,0.0,0.0,0.0,0.0,0.0,0.0,0.0,0.0,0.0,0.0,0.0,0.0,0.0,0.0,0.0,0.0,0.0,0.0,0.0,0.0,0.0,0.0,0.0,0.0,0.0,0.0,0.0,0.0,0.0,0.0,0.0,0.0,0.0,0.0,0.0,0.0,0.0,0.0817,0.0971,0.0775,0.0,0.0,0.0,0.0,0.1432,0.151,0.0,0.0,0.0,0.0,0.0,0.0,0.0,0.0,0.0,0.0,0.0,0.0,0.0,0.0,0.0,0.0,0.0,0.0,0.0,0.0,0.0,0.0,0.0,0.0,0.0,0.0,0.0,0.0,0.0,0.0,0.0,0.0,0.0,0.0,0.0,0.0,0.0,0.0,0.0,0.0,0.0,0.0,0.0,0.0,0.0,0.0,0.0,0.0,0.0,0.0,0.0,0.0,0.0,0.0,0.0,0.0,0.6996,0.7786,0.8646,0.961,0.9813,0.9921,0.9941,0.9535,0.8618,0.0,0.0,0.0,0.0,0.0,0.0,0.0,0.0,0.0,0.0,0.0,0.0,0.0,0.0,0.0,0.0,0.0,0.0,0.0,0.0,0.0,0.0,0.0,0.0,0.0,0.0,0.0,0.0,0.0,0.0,0.0,0.0,0.0,0.0,0.0,0.0,0.0,0.0,0.0,0.0,0.0,0.1466,0.1881,0.1673,0.1684,0.0,0.0,0.0744,0.1825,0.1683,0.0,0.0,0.0,0.0,0.0,0.0,0.0,0.0,0.0,0.0,0.0,0.0,0.0,0.0,0.0,0.0,0.0,0.0,0.0,0.0,0.0,0.0,0.0,0.0,0.0,0.0,0.0,0.0,0.0,0.0,0.0,0.0,0.0,0.0,0.0,0.0,0.0,0.0,0.0,0.0,0.0,0.0,0.0,0.0,0.0,0.0,0.0,0.0,0.0,0.0,0.0,0.0,0.0,0.0,0.0,0.6533,0.7127,0.8162,0.9049,0.9676,0.9803,0.9921,1.0009,0.9091,0.8178,0.0,0.0,0.0,0.0,0.0,0.0,0.0,0.0,0.0,0.0,0.0,0.0,0.0,0.0,0.0,0.0,0.0,0.0,0.0,0.0,0.0,0.0,0.0,0.0,0.0,0.0,0.0,0.0,0.0,0.0,0.0,0.0,0.0,0.0,0.0,0.0,0.0,0.0,0.0,0.0,0.0,0.0,0.2034,0.2453,0.0,0.0,0.0,0.2076,0.1937,0.0,0.0,0.0,0.0,0.0,0.0,0.0,0.0,0.0,0.0,0.0,0.0,0.0,0.0,0.0,0.0,0.0,0.0,0.0,0.0,0.0,0.0,0.0,0.0,0.0,0.0,0.0,0.0,0.0,0.0,0.0,0.0,0.0,0.0,0.0,0.0,0.0,0.0,0.0,0.0,0.0,0.0,0.0,0.0,0.0,0.0,0.0,0.0,0.0,0.0,0.0,0.0,0.0,0.0,0.0,0.0,0.0,0.7199,0.8574,0.945,0.9764,0.9872,0.9941,1.001,0.8836,0.0,0.0,0.0,0.0,0.0,0.0,0.0,0.0,0.0,0.0,0.0,0.0,0.0,0.0,0.0,0.0,0.0,0.0,0.0,0.0,0.0,0.0,0.0,0.0,0.0,0.0,0.0,0.2724,0.0,0.0,0.0,0.0,0.0,0.0,0.0,0.0,0.0,0.0,0.0,0.0,0.0,0.0,0.1729,0.2465,0.3156,0.2894,0.0,0.0,0.3425,0.231,0.2487,0.2591,0.0,0.0,0.0,0.0,0.0,0.0,0.0,0.0,0.0,0.0,0.0,0.0,0.0,0.0,0.0,0.0,0.0,0.0,0.0,0.0,0.0,0.0,0.0,0.0,0.0,0.0,0.0,0.0,0.0,0.0,0.0,0.0,0.0,0.0,0.0,0.0,0.0,0.0,0.0,0.0,0.0,0.0,0.0,0.0,0.0,0.0,0.0,0.0,0.0,0.0,0.0,0.0,0.0,0.0,0.0,0.715,0.8736,0.9704,0.9971,1.0157,1.0215,1.0089,0.9396,0.8514,0.0,0.0,0.0,0.0,0.0,0.0,0.0,0.0,0.0,0.0,0.0,0.0,0.0,0.0,0.0,0.0,0.0,0.0,0.0,0.0,0.0,0.0,0.0,0.0,0.0,0.0,0.0,0.0,0.0,0.0,0.0,0.0,0.0,0.0,0.0,0.0,0.0,0.0,0.0,0.0,0.0,0.2147,0.3664,0.3722,0.3286,0.0,0.0,0.4098,0.3153,0.2984,0.2759,0.2113,0.0,0.0,0.0,0.0,0.0,0.0,0.0,0.0,0.0,0.0,0.0,0.0,0.0,0.0,0.0,0.0,0.0,0.0,0.0,0.0,0.0,0.0,0.0,0.0,0.0,0.0,0.0,0.0,0.0,0.0,0.0,0.0,0.0,0.0,0.0,0.0,0.0,0.0,0.0,0.0,0.0,0.0,0.0,0.0,0.0,0.0,0.0,0.0,0.0,0.0,0.0,0.0,0.0,0.7374,0.762,0.901,0.9887,1.0225,1.0157,1.0098,1.0098,0.9661,0.8924,0.0,0.0,0.0,0.0,0.0,0.0,0.0,0.0,0.0,0.0,0.0,0.0,0.0,0.0,0.0,0.0,0.0,0.0,0.0,0.0,0.0,0.0,0.0,0.0,0.0,0.0,0.0,0.0,0.2627,0.2483,0.2134,0.0,0.0,0.0,0.0,0.0,0.0,0.0,0.0,0.0,0.0,0.2858,0.3978,0.3506,0.0,0.0,0.349,0.4097,0.3819,0.3664,0.3429,0.3049,0.2828,0.0,0.0,0.0,0.0,0.0,0.0,0.0,0.0,0.0,0.0,0.0,0.0,0.0,0.0,0.0,0.0,0.0,0.0,0.0,0.0,0.0,0.0,0.0,0.0,0.0,0.0,0.0,0.0,0.0,0.0,0.0,0.0,0.0,0.0,0.0,0.0,0.0,0.0,0.0,0.0,0.0,0.0,0.0,0.0,0.0,0.0,0.0,0.0,0.0,0.0,0.0,0.0,0.7824,0.8004,0.9483,1.0341,1.0553,1.037,1.0235,1.0157,0.9974,0.9345,0.0,0.0,0.0,0.0,0.0,0.0,0.0,0.0,0.0,0.0,0.0,0.0,0.0,0.0,0.0,0.0,0.0,0.0,0.0,0.0,0.0,0.0,0.0,0.0,0.0,0.0,0.0,0.0,0.2657,0.2479,0.2184,0.0,0.0,0.0,0.0,0.0,0.0,0.0,0.0,0.0,0.0,0.3347,0.4093,0.3652,0.3218,0.316,0.3724,0.4175,0.4192,0.4077,0.3907,0.3716,0.0,0.0,0.0,0.0,0.0,0.0,0.0,0.0,0.0,0.0,0.0,0.0,0.0,0.0,0.0,0.0,0.0,0.0,0.0,0.0,0.0,0.0,0.0,0.0,0.0,0.0,0.0,0.0,0.0,0.0,0.8678,0.0,0.0,0.0,0.0,0.0,0.0,0.0,0.0,0.0,0.0,0.0,0.0,0.0,0.0,0.0,0.0,0.0,0.0,0.0,0.0,0.0,0.0,0.8134,0.8218,1.0218,1.1152,1.0937,1.0898,1.0708,1.0341,1.0425,0.9854,0.8548,0.0,0.0,0.0,0.0,0.0,0.0,0.0,0.0,0.0,0.0,0.0,0.0,0.0,0.0,0.0,0.0,0.0,0.0,0.0,0.0,0.0,0.0,0.0,0.0,0.0,0.0,0.2903,0.2545,0.232,0.0,0.0,0.0,0.0,0.0,0.0,0.0,0.0,0.0,0.0,0.3389,0.3445,0.41,0.4345,0.4344,0.4185,0.4331,0.4408,0.4235,0.4184,0.4118,0.0,0.0,0.0,0.0,0.0,0.0,0.0,0.0,0.0,0.0,0.0,0.0,0.0,0.0,0.0,0.0,0.0,0.0,0.0,0.0,0.0,0.0,0.0,0.0,0.0,0.0,0.0,1.2328,1.1339,0.0,0.0,0.0,0.0,0.0,0.0,0.0,0.0,0.0,0.0,0.0,1.4302,1.4393,0.0,0.0,0.0,0.0,0.0,0.0,0.0,0.0,0.0,0.0,0.0,0.0,0.8481,0.9044,1.0868,1.1918,1.2082,1.1831,1.1537,1.1171,1.1194,1.0624,0.9349,0.0,0.0,0.0,0.0,0.0,0.0,0.0,0.0,0.0,0.0,0.0,0.0,0.0,0.0,0.0,0.0,0.0,0.0,0.0,0.0,0.0,0.0,0.0,0.0,0.0,0.309,0.0,0.0,0.0,0.0,0.0,0.0,0.0,0.0,0.0,0.0,0.0,0.339,0.3668,0.3801,0.4007,0.4343,0.4456,0.4472,0.0,0.0,0.0,0.0,0.0,0.0,0.0,0.0,0.0,0.0,0.0,0.0,0.0,0.0,0.3929,0.3236,0.308,0.3075,0.3123,0.0,0.0,0.0,0.0,0.0,0.0,0.0,0.0,0.0,0.0,0.0,0.0,0.0,0.0,1.4971,0.0,1.3884,0.0,0.0,0.0,0.0,0.0,0.0,0.0,0.0,1.6152,1.6943,1.672,1.675,1.632,0.0,1.4409,1.2685,0.0,0.0,0.0,0.0,0.0,0.0,0.0,0.0,0.8861,0.9694,1.1536,1.281,1.3366,1.2772,1.2238,1.1898,1.1657,1.1171,1.0447,0.9758,0.8906,0.0,0.0,0.0,0.0,0.0,0.0,0.0,0.0,0.0,0.0,0.0,0.0,0.0,0.0,0.0,0.0,0.0,0.0,0.0,0.0,0.0,0.0,0.0,0.3578,0.0,0.0,0.0,0.0,0.0,0.0,0.0,0.0,0.0,0.3195,0.3671,0.4108,0.4173,0.4304,0.4432,0.4549,0.0,0.0,0.0,0.0,0.0,0.0,0.0,0.4483,0.4606,0.4531,0.4466,0.4563,0.4681,0.4721,0.4583,0.0,0.0,0.3742,0.3536,0.3485,0.3536,0.343,0.3377,0.3437,0.3402,0.3299,0.0,0.0,0.0,0.0,0.0,0.0,0.0,0.0,1.6903,1.6848,0.0,1.6415,0.0,0.0,0.0,0.0,0.0,1.6132,0.0,0.0,1.9549,2.0351,1.9406,1.9129,1.8911,1.8715,1.8218,1.6872,1.4663,1.1103,0.0,0.0,0.0,0.0,0.0,0.0,0.9311,1.0217,1.2316,1.3845,1.476,1.367,1.2852,1.2424,1.1809,1.1611,1.1771,1.0901,1.0022,0.9177,0.7853,0.0,0.0,0.0,0.0,0.0,0.0,0.0,0.0,0.0,0.0,0.0,0.0,0.0,0.0,0.0,0.0,0.0,0.0,0.0,0.0,0.4679,0.0,0.0,0.0,0.0,0.0,0.0,0.0,0.0,0.0,0.0,0.4338,0.4499,0.4747,0.5048,0.0,0.0,0.0,0.0,0.4719,0.4712,0.4826,0.4906,0.4914,0.4903,0.4894,0.4901,0.0,0.0,0.4738,0.4836,0.4872,0.4749,0.483,0.4815,0.4563,0.4226,0.4072,0.4183,0.42,0.4264,0.4477,0.4576,0.4617,2.2797,0.0,0.0,0.0,0.0,1.9255,2.0239,2.1871,2.127,2.0709,2.0193,1.9492,0.0,0.0,0.0,0.0,0.0,0.0,1.751,1.8362,1.9611,2.0162,2.0099,1.9986,1.9771,1.9452,1.8644,1.7885,1.7099,1.4724,1.2,0.9045,0.0,0.0,0.0,0.0,1.087,1.1814,1.3762,1.5104,1.5699,1.4695,1.3762,1.298,1.2886,1.2726,1.2525,1.2237,1.1604,1.0567,0.977,0.0,0.0,0.0,0.0,0.0,0.0,0.0,0.0,0.0,0.0,0.0,0.0,0.0,0.0,0.0,0.0,0.0,0.0,0.0,0.4308,0.4435,0.4545,0.0,0.0,0.0,0.0,0.0,0.0,0.0,0.0,0.0,0.5188,0.5201,0.5198,0.0,0.0,0.501,0.4865,0.4923,0.4953,0.4855,0.4945,0.0,0.0,0.4972,0.5092,0.5248,0.5341,0.5345,0.5228,0.5222,0.5202,0.5018,0.5028,0.499,0.483,0.4724,0.4648,0.4685,0.4629,0.4616,0.4752,0.4782,0.476,2.5251,2.1953,2.2027,2.2059,2.2072,2.1932,2.291,2.4596,2.4094,2.3804,2.3662,2.3009,2.1456,1.9169,1.8251,0.0,0.0,0.0,1.8973,1.9978,2.0168,2.0359,2.0486,2.0287,2.0043,1.9729,1.9042,1.8626,1.8489,1.6935,1.4851,1.2274,0.0,0.0,1.055,1.1387,1.2295,1.3291,1.4679,1.5665,1.6235,1.5226,1.4331,1.3628,1.3497,1.3339,1.3125,1.312,1.2751,1.1959,1.1116,1.0039,0.0,0.0,0.0,0.0,0.0,0.0,0.0,0.0,0.0,0.0,0.0,0.6249,0.0,0.0,0.0,0.0,0.5451,0.5734,0.5822,0.6027,0.0,0.0,0.0,0.0,0.0,0.0,0.0,0.6069,0.6248,0.6323,0.6326,0.6251,0.6055,0.5655,0.5468,0.5362,0.5227,0.0,0.5327,0.5299,0.5429,0.5514,0.5506,0.5569,0.561,0.5595,0.5593,0.5549,0.5426,0.5395,0.5361,0.5266,0.5223,0.5196,0.5111,0.5138,0.5085,0.4882,0.4806,0.4799,0.4811,0.4843,0.4906,2.6191,2.5235,2.5832,2.5468,2.4535,2.4416,2.4843,2.5579,2.5517,2.5949,2.6657,2.645,2.5316,2.351,2.1404,0.0,2.1164,2.0853,2.1075,2.1678,2.1103,2.0785,2.0668,2.0233,1.9911,1.9723,1.9426,1.9191,1.895,1.8007,1.7163,1.6372,1.4062,1.2944,1.3085,1.3071,1.3624,1.4754,1.5248,1.5816,1.6408,1.5426,1.4661,1.4203,1.3791,1.3574,1.3611,1.3602,1.3505,1.3271,1.2009,1.1123,1.0649,0.0,0.0,0.0,0.0,0.0,0.0,0.0,0.0,0.0,0.0,0.0,0.0,0.0,0.0,0.0,0.7205,0.0,0.845,0.8533,0.0,0.0,0.0,0.7134,0.7598,0.7474,0.7524,0.7961,0.0,0.0,0.7514,0.7393,0.7017,0.6077,0.584,0.574,0.5737,0.5739,0.582,0.6023,0.6141,0.6261,0.641,0.6422,0.6257,0.6017,0.5787,0.5662,0.5524,0.5432,0.5428,0.5402,0.5425,0.5422,0.5408,0.5516,0.5429,0.487,0.4853,0.4892,0.4861,0.4921,0.5045,2.7539,2.5964,2.6111,2.5585,2.4637,2.4464,2.4861,2.5588,2.5541,2.5954,2.6683,2.6644,2.626,2.5638,2.4741,2.4393,2.4423,2.3196,2.2614,2.2527,2.156,2.0892,2.0485,2.0304,2.0069,1.9777,1.9444,1.9228,1.9059,1.8267,1.7748,1.7483,1.6543,1.564,1.4747,1.4578,1.5004,1.6042,1.6278,1.6286,1.6037,1.5792,1.5157,1.4228,1.4144,1.3942,1.3602,1.3716,1.3847,1.3984,1.282,1.1926,1.1515,0.9408,0.0,0.0,0.0,0.0,0.0,0.0,0.0,0.0,0.0,0.8456,0.6166,0.0,0.7177,0.0,0.8061,0.8439,0.8359,0.836,0.0,0.0,0.7903,0.7914,0.89,0.8267,0.8043,0.8809,0.8117,0.7664,0.7845,0.7364,0.69,0.6542,0.6278,0.6074,0.608,0.6077,0.6351,0.6986,0.6767,0.6598,0.7184,0.6884,0.6552,0.6441,0.6313,0.6163,0.6043,0.5769,0.555,0.555,0.555,0.5554,0.555,0.5686,0.5641,0.5201,0.5099,0.5191,0.5332,0.5066,0.4897,2.8257,2.6873,2.7239,2.699,2.6212,2.4919,2.4815,2.5569,2.59,2.6458,2.7187,2.7394,2.7202,2.6687,2.6255,2.5764,2.5229,2.4296,2.3585,2.3047,2.2258,2.148,2.0722,2.0673,2.0462,2.0115,1.9953,1.9681,1.9314,1.8865,1.8475,1.8149,1.7727,1.7129,1.6392,1.6017,1.6061,1.6498,1.669,1.6583,1.6166,1.5967,1.544,1.4591,1.4368,1.4087,1.3624,1.367,1.3707,1.3651,1.2712,1.2151,1.2034,1.0458,0.9572,0.0,0.0,0.0,0.0,0.0,0.0,0.0,0.0,0.0,0.0,0.0,0.8376,0.846,0.9051,0.94,0.9363,0.9533,0.9741,0.9996,0.9497,0.9523,1.0504,0.9772,0.9435,1.0058,0.9538,0.9107,0.9035,0.8672,0.8284,0.795,0.77,0.7263,0.662,0.677,0.7324,0.7852,0.7888,0.7992,0.8562,0.824,0.7783,0.7383,0.712,0.6781,0.6306,0.5933,0.5736,0.5736,0.5736,0.5703,0.5613,0.5723,0.5677,0.5401,0.5238,0.5172,0.5129,0.4934,0.4884,2.883,2.8026,2.8763,2.8841,2.8283,2.5964,2.5282,2.5853,2.6435,2.7156,2.7967,2.8348,2.8052,2.7302,2.6892,2.6229,2.5337,2.4969,2.4397,2.3639,2.3073,2.2269,2.1271,2.1134,2.0902,2.0571,2.0539,2.0212,1.9639,1.9415,1.9006,1.8474,1.8059,1.7808,1.7639,1.7157,1.6791,1.6565,1.6747,1.6749,1.6554,1.6149,1.5645,1.5034,1.4633,1.4169,1.3628,1.3679,1.3552,1.32,1.2621,1.2433,1.2659,1.1586,1.1245,0.0,1.0968,0.0,0.0,0.0,0.0,0.0,0.0,0.0,0.0,0.9767,0.9849,0.9448,1.0066,1.0559,1.0742,1.1092,1.143,1.1693,1.1282,1.1221,1.183,1.1294,1.0995,1.1305,1.124,1.0935,1.0429,1.0311,1.0029,0.9509,0.9338,0.8788,0.7553,0.7878,0.8462,0.868,0.9338,0.9689,0.9734,0.9667,0.9277,0.8536,0.8142,0.7544,0.6714,0.6466,0.6294,0.6118,0.613,0.6073,0.5796,0.5776,0.5706,0.5484,0.534,0.5122,0.4801,0.4762,0.4863,3.0618,2.9726,2.9901,2.9714,2.9322,2.8736,2.8119,2.7401,2.687,2.7398,2.8673,2.8682,2.8541,2.8283,2.8067,2.7861,2.7597,2.6417,2.5737,2.5415,2.3631,2.2594,2.2191,2.1408,2.0975,2.0878,2.033,1.9934,1.9743,1.9076,1.8597,1.8329,1.7932,1.7642,1.7453,0.0,0.0,0.0,1.6695,1.6663,1.6823,1.6729,1.6161,1.506,1.5072,0.0,1.3688,1.4102,1.4528,1.475,1.4585,0.0,0.0,0.0,0.0,0.0,0.0,0.0,0.0,0.0,0.0,0.0,1.1805,1.1235,1.0425,1.0863,1.0878,1.0208,1.0916,1.1372,1.1215,1.125,1.1345,1.1441,1.1378,1.1426,1.1626,1.1388,1.1292,1.1499,1.0944,1.0605,1.0828,1.0408,1.0084,1.0131,1.0178,1.0006,0.9405,0.9322,0.9663,1.0418,1.0694,1.0569,0.9997,0.9933,0.9898,0.9561,0.9403,0.891,0.8173,0.8203,0.7964,0.7075,0.706,0.7052,0.6574,0.6282,0.5982,0.572,0.5487,0.5299,0.5095,0.4894,0.4755,3.2001,0.0,3.1967,3.1932,0.0,3.1196,3.0776,3.0331,2.8975,2.8799,2.9454,2.8919,2.8644,2.8542,2.838,2.8025,2.7535,2.6753,2.6062,2.5461,2.4299,2.3378,2.2675,2.2298,2.1798,2.1198,2.0926,2.0525,2.0046,1.9681,1.9216,1.8683,1.8428,1.8242,1.8137,1.7706,1.7313,1.695,1.6884,1.6852,1.691,1.691,1.6455,1.5541,1.5653,0.0,0.0,0.0,0.0,0.0,0.0,0.0,0.0,1.4132,0.0,1.4202,1.3106,1.2647,1.3094,1.2568,1.2666,1.3679,1.3532,1.2904,1.1778,1.1737,1.1532,1.106,1.1382,1.1515,1.1326,1.1301,1.1328,1.1396,1.1415,1.1446,1.156,1.1508,1.149,1.156,1.1202,1.1094,1.1425,1.1222,1.1129,1.1394,1.1521,1.1511,1.1349,1.0869,1.0801,1.1551,1.1688,1.1577,1.1192,1.1081,1.0894,1.0585,1.0327,0.9875,0.9132,0.8786,0.8384,0.7716,0.739,0.7017,0.6643,0.6286,0.5978,0.5763,0.562,0.548,0.5351,0.5103,0.4973,3.3355,3.3394,3.4052,3.4167,3.3859,3.3278,3.3058,3.3023,0.0,0.0,0.0,2.9076,2.8594,2.8466,2.834,2.7832,2.703,2.6722,2.6121,2.5245,2.4856,2.4166,2.3243,2.3383,2.2854,2.1745,2.1767,2.1327,2.0441,2.0396,1.9997,1.9273,1.9071,1.8959,1.8831,1.8402,1.7835,1.7238,1.7267,1.7185,1.6918,1.6918,1.6648,1.6037,1.616,1.6068,1.5681,1.5691,1.5598,1.5354,1.5278,1.5341,1.5611,1.5402,1.5738,1.664,1.5661,1.5222,1.5635,1.4836,1.4511,1.494,1.4755,1.4199,1.3165,1.2505,1.2063,1.1869,1.1656,1.1495,1.1425,1.1404,1.1468,1.1659,1.1585,1.1583,1.1719,1.163,1.1591,1.1591,1.1576,1.1722,1.2014,1.204,1.2274,1.2701,1.2767,1.2849,1.283,1.2168,1.1773,1.2206,1.2268,1.2305,1.2261,1.2212,1.2021,1.1397,1.1181,1.0785,1.0025,0.9346,0.8882,0.8659,0.7805,0.7272,0.6861,0.6408,0.5974,0.5801,0.574,0.5669,0.5495,0.5392,0.5316,3.5044,3.5044,3.5104,3.4988,3.4736,3.4628,3.4306,3.3654,3.1201,3.0088,2.9946,2.8951,2.8497,2.8418,2.8277,2.8069,2.7787,2.6975,2.6461,2.6141,2.5183,2.462,2.4443,2.4192,2.3683,2.2954,2.2385,2.1706,2.095,2.0515,2.0106,1.9725,1.9513,1.9196,1.8779,1.8759,1.8634,1.8365,1.7915,1.7474,1.7002,1.6992,1.6721,1.6219,1.6319,1.6114,1.5554,1.6169,1.6596,1.6725,1.7273,1.7501,1.7297,1.764,1.7595,1.6756,1.5895,1.5587,1.5973,1.5264,1.493,1.5193,1.5209,1.4892,1.4217,1.3272,1.2624,1.246,1.1968,1.1735,1.187,1.179,1.1976,1.2578,1.2243,1.2038,1.2256,1.1881,1.1591,1.1591,1.1591,1.1826,1.2297,1.2397,1.2648,1.3207,1.3302,1.3306,1.3135,1.29,1.2673,1.2599,1.2562,1.2489,1.236,1.2298,1.2231,1.2157,1.2056,1.174,1.1002,1.1083,1.09,1.0079,0.9349,0.8829,0.8256,0.7159,0.6472,0.6209,0.5984,0.5738,0.57,0.5744,0.5696,3.5357,3.535,3.5312,3.5223,3.5096,3.4769,3.4453,3.3993,3.2142,3.1007,3.0407,2.9092,2.8679,2.8932,2.8371,2.8064,2.794,2.6961,2.6172,2.56,2.4999,2.4452,2.4024,2.4126,2.381,2.3095,2.2678,2.2167,2.1575,2.0919,2.0379,2.0035,1.9885,1.9681,1.9439,1.9479,1.9232,1.876,1.8199,1.7764,1.7447,1.722,1.7009,1.6758,1.6789,1.6763,1.6596,1.6811,1.7176,1.7624,1.7865,1.8011,1.8095,1.8102,1.7981,1.767,1.6662,1.6227,1.6666,1.5785,1.5222,1.5198,1.5199,1.4971,1.4454,1.3683,1.3005,1.2452,1.2129,1.2026,1.2184,1.2168,1.2209,1.2422,1.2162,1.2009,1.1994,1.1805,1.1607,1.1591,1.1591,1.1825,1.2429,1.2509,1.275,1.3353,1.3492,1.3455,1.3364,1.3266,1.3101,1.2838,1.2746,1.2673,1.25,1.2464,1.2415,1.2323,1.2305,1.2157,1.1768,1.1836,1.139,1.0785,1.0019,0.9342,0.8905,0.7875,0.7132,0.6889,0.6433,0.6145,0.6093,0.6149,0.6081,3.5358,3.5848,3.5446,3.536,3.5433,3.4704,3.4334,3.4144,3.2896,3.1844,3.0806,2.939,2.893,2.9138,2.8361,2.7968,2.7798,2.686,2.5889,2.5017,2.479,2.4234,2.356,2.4111,2.4044,2.3348,2.3241,2.2916,2.2246,2.1711,2.1149,2.0619,2.0305,2.0115,2.0076,2.0034,1.9729,1.9164,1.8577,1.8079,1.775,1.7437,1.7238,1.7222,1.7209,1.7258,1.7416,1.7321,1.7496,1.7999,1.8026,1.817,1.839,1.8145,1.8075,1.8205,1.7289,1.6703,1.6744,1.5966,1.5356,1.5131,1.5108,1.4937,1.4585,1.4183,1.3522,1.2656,1.2404,1.2412,1.2579,1.2582,1.2467,1.234,1.2206,1.2073,1.1849,1.1675,1.1591,1.1591,1.165,1.1913,1.2356,1.255,1.2852,1.3353,1.3492,1.3492,1.3492,1.3492,1.3364,1.3138,1.2984,1.2893,1.2709,1.2654,1.2599,1.2452,1.2445,1.2415,1.2268,1.1799,1.1477,1.131,1.0459,0.9789,0.9456,0.8642,0.7946,0.773,0.7316,0.696,0.6963,0.6588,0.6395,3.5523,3.7164,3.5865,3.5603,3.5983,3.4833,3.4259,3.4055,3.3048,3.1908,3.0806,2.9904,2.9139,2.8508,2.8173,2.7904,2.7713,2.6809,2.588,2.5001,2.4763,2.4274,2.3641,2.4631,2.4787,2.4169,2.4514,2.3976,2.2801,2.3112,2.2804,2.1735,2.0778,2.027,2.0261,2.0159,2.0048,1.9977,1.9406,1.8583,1.7598,1.7485,1.7383,1.7222,1.7209,1.7209,1.7272,1.7372,1.7496,1.7601,1.8131,1.8389,1.8266,1.8361,1.8268,1.7892,1.7403,1.6723,1.5802,1.5458,1.5255,1.5131,1.5119,1.5096,1.5026,1.4983,1.4505,1.3552,1.298,1.2987,1.3247,1.3136,1.3119,1.3241,1.2811,1.2435,1.2366,1.1926,1.1591,1.1591,1.1835,1.2114,1.2443,1.275,1.3097,1.3433,1.3492,1.3492,1.3492,1.3492,1.3499,1.3419,1.3291,1.3101,1.2918,1.2881,1.2845,1.282,1.2845,1.2746,1.2562,1.2489,1.2397,1.1953,1.1458,1.0731,1.0243,0.9593,0.8901,0.8558,0.8343,0.8257,0.8139,0.7398,0.6709,3.6368,3.7547,3.5901,3.5346,3.5451,3.4785,3.4156,3.3644,3.3579,3.2692,3.1313,3.0757,2.9976,2.895,2.8188,2.8038,2.8323,2.7384,2.6438,2.5601,2.5025,2.4328,2.3682,2.3822,2.3824,2.3617,2.4124,2.4042,2.3375,2.2887,2.233,2.1693,2.0774,2.0296,2.0296,2.0252,2.0133,1.9918,1.9681,1.914,1.8423,1.8187,1.8002,1.7814,1.7774,1.7727,1.7645,1.7683,1.7774,1.7919,1.818,1.8343,1.839,1.8527,1.8498,1.8205,1.757,1.6839,1.6031,1.5624,1.5368,1.521,1.5441,1.5447,1.5169,1.56,1.5577,1.4863,1.4358,1.4246,1.449,1.4318,1.4098,1.3891,1.348,1.3101,1.2804,1.2405,1.2089,1.1941,1.2149,1.234,1.2545,1.2972,1.3316,1.3477,1.3492,1.3492,1.3492,1.3492,1.3492,1.3499,1.3419,1.3309,1.3145,1.309,1.3028,1.2955,1.2918,1.2838,1.2801,1.2654,1.2562,1.2496,1.199,1.1466,1.1047,1.0424,0.9788,0.9453,0.9125,0.9023,0.904,0.8423,0.8028,3.7124,3.775,3.6496,3.5691,3.538,3.4833,3.4255,3.3754,3.4132,3.3417,3.1949,3.1697,3.0803,2.945,2.8229,2.8137,2.8704,2.7776,2.6948,2.6281,2.5487,2.454,2.36,2.3484,2.3297,2.3242,2.3901,2.428,2.4135,2.2962,2.2233,2.193,2.1108,2.055,2.0371,2.0313,2.0194,1.9953,1.9901,1.9672,1.9253,1.8983,1.8611,1.8159,1.8159,1.8069,1.7798,1.7848,1.7973,1.8103,1.8173,1.8262,1.841,1.8585,1.8556,1.8145,1.7444,1.6744,1.6129,1.5724,1.5482,1.5498,1.5752,1.5859,1.5869,1.6356,1.66,1.639,1.5894,1.563,1.5395,1.5079,1.4706,1.4404,1.4007,1.3586,1.3413,1.3125,1.2837,1.264,1.2909,1.2975,1.3013,1.338,1.3641,1.3528,1.3492,1.3492,1.3492,1.3492,1.3521,1.3601,1.3631,1.3532,1.3349,1.3291,1.32,1.3145,1.3083,1.309,1.3017,1.2845,1.2709,1.2696,1.2362,1.2096,1.1778,1.1227,1.0732,1.0408,1.0045,0.9823,1.0013,0.9485,0.928,3.7468,3.8677,3.7959,3.6952,3.615,3.5073,3.4566,3.4403,3.4559,3.3836,3.2724,3.2582,3.1542,2.9724,2.845,2.814,2.8663,2.7802,2.7227,2.6918,2.6202,2.4999,2.3502,2.391,2.375,2.3147,2.4265,2.5147,2.5553,2.4166,2.3327,2.3085,2.2027,2.1184,2.0641,2.0459,2.0311,2.0252,2.0196,2.0063,2.0004,1.9815,1.9109,1.8078,1.8075,1.8039,1.7642,1.7788,1.7932,1.7922,1.8123,1.8222,1.8252,1.8527,1.8313,1.75,1.6903,1.6272,1.5735,1.5593,1.5635,1.5822,1.5958,1.6301,1.6983,1.7231,1.7465,1.7886,1.7285,1.6648,1.5795,1.5264,1.4894,1.4839,1.4201,1.4043,1.4365,1.4058,1.3894,1.3784,1.3979,1.4162,1.407,1.4045,1.3967,1.3739,1.3564,1.3528,1.3546,1.3528,1.3627,1.3854,1.3927,1.385,1.3587,1.3517,1.3495,1.3433,1.34,1.3382,1.3273,1.3145,1.3035,1.2936,1.2782,1.262,1.2461,1.2192,1.1802,1.1379,1.0857,1.0703,1.1024,1.0119,0.9962,3.7273,3.7292,3.6957,3.6274,3.5448,3.4983,3.4508,3.4073,3.4537,3.4127,3.3161,3.2773,3.2095,3.1142,2.9791,2.878,2.8173,2.7931,2.7832,2.7672,2.6932,2.594,2.4885,2.4033,2.3129,2.2696,2.3758,2.4908,2.5684,2.465,2.4026,2.369,2.2486,2.1643,2.1394,2.1174,2.0858,2.0517,2.069,2.0639,2.0177,2.0028,1.9597,1.8879,1.8793,1.8509,1.7955,1.8169,1.8278,1.8292,1.8351,1.839,1.84,1.8508,1.8392,1.7958,1.7441,1.6892,1.6363,1.6216,1.6137,1.6055,1.6559,1.6957,1.736,1.7668,1.7917,1.7984,1.7769,1.7217,1.6705,1.6108,1.5667,1.5415,1.5157,1.4878,1.4775,1.4656,1.4586,1.4691,1.4995,1.5299,1.533,1.5215,1.4956,1.4742,1.4266,1.3967,1.3855,1.3692,1.3719,1.3924,1.4008,1.4037,1.4177,1.3942,1.3818,1.374,1.3678,1.3514,1.3382,1.3255,1.3145,1.3101,1.3046,1.2882,1.2649,1.2441,1.2205,1.2257,1.1754,1.1619,1.2081,1.1265,1.1207,3.6925,3.64,3.6321,3.579,3.5012,3.4922,3.4586,3.4136,3.4573,3.4372,3.3676,3.3149,3.2717,3.2144,3.1074,2.991,2.8756,2.8668,2.8725,2.8819,2.8032,2.719,2.6225,2.4697,2.3504,2.2912,2.3309,2.4289,2.5385,2.4859,2.4513,2.4335,2.3213,2.2547,2.2297,2.1867,2.1438,2.1227,2.1122,2.0897,2.0759,2.0546,2.0331,2.01,1.9879,1.9305,1.8418,1.8449,1.8488,1.8488,1.8488,1.8616,1.881,1.864,1.8601,1.8689,1.8248,1.7763,1.741,1.7127,1.6943,1.6859,1.7136,1.7442,1.7611,1.7928,1.8023,1.7934,1.7686,1.7396,1.7064,1.6648,1.6273,1.5957,1.5803,1.5643,1.5439,1.5532,1.5703,1.5905,1.6016,1.619,1.6152,1.5618,1.5385,1.5497,1.4839,1.4456,1.4675,1.4561,1.4361,1.4554,1.4619,1.4668,1.4641,1.444,1.4071,1.3935,1.3675,1.3543,1.3473,1.3364,1.3291,1.3273,1.3168,1.2991,1.2823,1.2606,1.2672,1.2858,1.2634,1.2349,1.2503,1.2512,1.2304,3.6362,3.6288,3.6279,3.5714,3.4955,3.4903,3.4864,3.4738,3.4746,3.4572,3.4206,3.385,3.3243,3.2599,3.1967,3.1319,3.0636,2.9969,2.9859,3.0147,2.9391,2.8525,2.7536,2.5925,2.4768,2.4023,2.3316,2.3621,2.4806,2.4718,2.4622,2.4574,2.4229,2.3611,2.3186,2.2441,2.2168,2.2104,2.1281,2.116,2.1997,2.1317,2.1038,2.1276,2.1074,2.0258,1.882,1.8646,1.8582,1.8568,1.8512,1.8838,1.9236,1.8965,1.8914,1.9423,1.9118,1.8822,1.8656,1.8172,1.8043,1.803,1.7799,1.7726,1.7978,1.8077,1.8016,1.7797,1.7493,1.7148,1.6931,1.6662,1.6445,1.6355,1.6029,1.5933,1.6259,1.6714,1.7124,1.7344,1.7182,1.6694,1.6202,1.5823,1.5605,1.5714,1.5334,1.5212,1.5817,1.5737,1.581,1.5793,1.5534,1.5311,1.5139,1.4929,1.4467,1.4064,1.373,1.3492,1.3492,1.3419,1.3419,1.3401,1.3382,1.323,1.3139,1.2977,1.2944,1.3046,1.2929,1.2856,1.2833,1.2816,1.2826,3.5802,3.6203,3.5595,3.5192,3.4898,3.4854,3.4824,3.4773,3.4599,3.4478,3.4334,3.4005,3.3598,3.3232,3.2864,3.2399,3.1838,3.1513,3.1194,3.0629,2.965,2.8703,2.7689,2.6219,2.5002,2.4162,2.3309,2.3323,2.3992,2.4072,2.4012,2.3917,2.3827,2.3628,2.3415,2.3292,2.2995,2.2153,2.1884,2.1565,2.102,2.0698,2.0818,2.1212,2.0649,2.0338,2.0793,1.9754,1.9164,1.9119,1.8722,1.8616,1.8898,1.9479,1.9653,1.9366,1.9561,1.9434,1.9158,1.9191,1.8962,1.861,1.8521,1.8401,1.8145,1.8098,1.8068,1.7947,1.7725,1.7518,1.7382,1.7131,1.6804,1.6455,1.6273,1.6212,1.651,1.7063,1.7642,1.807,1.8285,1.8177,1.778,1.7197,1.6864,1.6762,1.6187,1.5974,1.6471,1.6298,1.5988,1.6333,1.6073,1.5918,1.5761,1.5522,1.5106,1.4553,1.4091,1.359,1.3528,1.3492,1.3492,1.3492,1.3492,1.3455,1.3382,1.3309,1.3229,1.3174,1.3101,1.3083,1.3083,1.3083,1.3065,3.5818,3.6174,3.5623,3.5173,3.4917,3.4839,3.4768,3.4711,3.4495,3.4369,3.4269,3.403,3.3837,3.3691,3.3483,3.3139,3.2734,3.2561,3.2063,3.1203,3.0132,2.9247,2.8424,2.6707,2.5028,2.3831,2.3162,2.3099,2.344,2.3359,2.3423,2.3585,2.354,2.3496,2.3462,2.3371,2.2899,2.2329,2.2166,2.1746,2.1207,2.1051,2.1374,2.1827,2.1314,2.1535,2.24,2.0907,1.995,1.9834,1.9262,1.8971,1.9224,1.9743,1.9985,2.0082,2.0226,2.0426,2.0327,2.0363,2.0143,1.9583,1.9291,1.9016,1.8548,1.8331,1.8082,1.7934,1.7783,1.7656,1.7493,1.7354,1.7032,1.6737,1.6591,1.6659,1.6894,1.7522,1.8133,1.85,1.8583,1.8444,1.8197,1.7538,1.7552,1.7364,1.693,1.6811,1.7254,1.7198,1.7197,1.7152,1.7,1.6782,1.648,1.6138,1.5733,1.5159,1.4553,1.3996,1.3619,1.3528,1.3492,1.3492,1.3492,1.3492,1.3419,1.3401,1.3339,1.3284,1.3266,1.3284,1.3309,1.3302,1.3284,3.6307,3.6206,3.6182,3.5642,3.4941,3.4824,3.4697,3.4591,3.4444,3.4329,3.4179,3.403,3.3979,3.4004,3.3788,3.3533,3.3292,3.2921,3.2401,3.1689,3.0777,2.9974,2.9042,2.711,2.5221,2.3671,2.307,2.2916,2.3,2.2709,2.29,2.3333,2.3346,2.3423,2.3277,2.2742,2.2674,2.2621,2.2109,2.188,2.1957,2.1972,2.2314,2.288,2.2493,2.2586,2.3024,2.1746,2.0769,2.0625,1.9686,1.9508,1.9978,1.9719,2.007,2.092,2.122,2.1524,2.1832,2.1485,2.1144,2.0862,1.9927,1.92,1.9067,1.8479,1.803,1.7838,1.7769,1.7656,1.7423,1.734,1.7273,1.7162,1.6967,1.7115,1.7641,1.8103,1.8491,1.877,1.835,1.7761,1.7823,1.6845,1.6931,1.7256,1.7284,1.7637,1.8321,1.8374,1.8465,1.8241,1.7858,1.7448,1.7071,1.6972,1.6545,1.5775,1.5219,1.4686,1.3902,1.3648,1.3492,1.3492,1.3492,1.3492,1.3473,1.343,1.343,1.3411,1.343,1.3473,1.3473,1.343,1.3419,3.6795,3.622,3.6201,3.5684,3.4861,3.4697,3.4572,3.445,3.431,3.4258,3.4185,3.4167,3.408,3.4023,3.3947,3.3588,3.3057,3.2876,3.236,3.1589,3.0788,2.9267,2.7732,2.6379,2.5405,2.4611,2.3558,2.2883,2.285,2.2327,2.211,2.2154,2.2622,2.2735,2.2661,2.2768,2.2663,2.2303,2.1859,2.1372,2.1033,2.0965,2.1212,2.1817,2.1375,2.1707,2.2667,2.1834,2.0474,1.9273,1.9369,1.9242,1.9228,1.9729,2.0288,2.0664,2.1136,2.1561,2.2018,2.203,2.1708,2.1199,2.0459,1.9722,1.9212,1.8533,1.8125,1.7989,1.7989,1.7947,1.7879,1.7838,1.7673,1.7286,1.7295,1.7544,1.7928,1.827,1.859,1.8963,1.8839,1.8382,1.7822,1.76,1.7487,1.7611,1.7631,1.7787,1.866,1.8835,1.8565,1.8721,1.8449,1.8036,1.7738,1.7675,1.728,1.6457,1.5929,1.5576,1.4671,1.3858,1.3648,1.3492,1.3492,1.3492,1.3492,1.3473,1.3492,1.3492,1.3492,1.3492,1.3492,1.3473,1.3473,3.716,3.667,3.6289,3.5591,3.4835,3.4607,3.4473,3.4374,3.4257,3.4216,3.4216,3.4216,3.413,3.4049,3.4011,3.357,3.2895,3.2797,3.2274,3.1484,3.0664,2.9151,2.7418,2.6312,2.574,2.533,2.4372,2.3559,2.2957,2.2391,2.2008,2.1774,2.1912,2.1996,2.1989,2.2157,2.2161,2.1774,2.1657,2.1377,2.0573,2.0807,2.1099,2.1446,2.1082,2.1388,2.183,2.1366,2.0445,1.9581,1.9396,1.9344,1.9402,1.9964,2.0512,2.0748,2.1336,2.1856,2.2095,2.2182,2.203,2.1612,2.1004,2.05,1.9972,1.9171,1.8543,1.8548,1.829,1.8121,1.8098,1.8098,1.7934,1.7712,1.7929,1.8113,1.8058,1.8218,1.86,1.8911,1.8901,1.8563,1.7781,1.7817,1.7776,1.7719,1.7666,1.8183,1.8827,1.8686,1.8657,1.8825,1.8925,1.8566,1.8325,1.8271,1.8144,1.7331,1.6742,1.6394,1.5251,1.423,1.3829,1.3637,1.3564,1.3492,1.3492,1.3492,1.3492,1.3492,1.3492,1.3492,1.3492,1.3492,1.3492,3.7364,3.7221,3.6366,3.5581,3.4944,3.4643,3.461,3.4513,3.4474,3.4333,3.4216,3.4191,3.4142,3.4086,3.3915,3.3517,3.289,3.2708,3.217,3.1439,3.0568,2.9346,2.8002,2.7087,2.6345,2.5665,2.5347,2.4339,2.3386,2.2918,2.2376,2.1853,2.1575,2.1457,2.1533,2.1454,2.1254,2.1328,2.163,2.1432,2.0844,2.1111,2.137,2.1375,2.1484,2.1273,2.1129,2.0828,2.0558,2.0366,1.9771,1.9733,2.0203,2.0372,2.0678,2.1153,2.1645,2.2025,2.2294,2.2379,2.2419,2.2325,2.1841,2.1324,2.103,2.0148,1.9348,1.9004,1.8547,1.8296,1.8098,1.8098,1.803,1.7983,1.8499,1.8447,1.8079,1.8186,1.8676,1.9004,1.8702,1.8228,1.7833,1.7398,1.7192,1.7869,1.7848,1.8182,1.8748,1.8924,1.8915,1.8998,1.9065,1.9081,1.8942,1.8858,1.8684,1.8303,1.7689,1.7052,1.5693,1.4742,1.4165,1.3848,1.3793,1.3648,1.3492,1.3492,1.3528,1.3492,1.3492,1.3492,1.3492,1.3492,1.3492,3.7181,3.6581,3.6156,3.5854,3.5581,3.5397,3.5322,3.5231,3.52,3.4798,3.4302,3.4167,3.4086,3.3992,3.3711,3.328,3.285,3.2562,3.2064,3.1482,3.0827,2.9876,2.8733,2.7813,2.706,2.6294,2.5514,2.473,2.3932,2.3197,2.2489,2.1841,2.1673,2.1564,2.1433,2.1418,2.134,2.1278,2.1336,2.1263,2.1045,2.0994,2.1177,2.1259,2.1357,2.1079,2.07,2.0707,2.0636,2.0264,1.9943,2.0094,2.0383,2.0456,2.0762,2.1251,2.1502,2.198,2.2662,2.2901,2.3136,2.3426,2.2987,2.2398,2.1896,2.116,2.0198,1.9466,1.9022,1.8681,1.8247,1.8111,1.803,1.7969,1.8059,1.8123,1.8001,1.8586,1.9044,1.9088,1.8706,1.8298,1.8384,1.7531,1.7486,1.7923,1.8103,1.8201,1.8605,1.909,1.9098,1.9098,1.9098,1.9098,1.9081,1.8998,1.8908,1.8791,1.8378,1.7859,1.6498,1.564,1.5197,1.4607,1.4021,1.3884,1.3811,1.3612,1.3666,1.3583,1.3528,1.3528,1.3546,1.3528,1.3492,3.6751,3.6287,3.6013,3.5825,3.5763,3.5975,3.5876,3.5547,3.5485,3.5002,3.4315,3.4136,3.4068,3.3985,3.3743,3.3426,3.3016,3.2612,3.2249,3.1739,3.1036,3.0099,2.9194,2.8224,2.7357,2.6614,2.6109,2.5388,2.4605,2.3817,2.3066,2.225,2.1906,2.1664,2.1556,2.151,2.1449,2.1388,2.1285,2.1222,2.1159,2.1095,2.1311,2.173,2.2004,2.2047,2.1825,2.2092,2.2102,2.1913,2.1743,2.1355,2.0953,2.0937,2.1183,2.1628,2.2053,2.2348,2.2985,2.322,2.346,2.4077,2.3879,2.3377,2.2635,2.1851,2.099,2.0121,1.9542,1.9028,1.8518,1.8423,1.8261,1.8089,1.836,1.8467,1.8208,1.8438,1.8801,1.8868,1.8654,1.8399,1.8081,1.7667,1.7837,1.8298,1.8214,1.8338,1.8908,1.9291,1.9131,1.9098,1.9098,1.9098,1.9098,1.9065,1.8998,1.8942,1.8798,1.8361,1.756,1.6932,1.6411,1.5622,1.4778,1.4471,1.4346,1.4119,1.392,1.3866,1.3811,1.3692,1.3601,1.3564,1.351,3.6128,3.6032,3.5832,3.5763,3.5918,3.6565,3.6532,3.5974,3.5733,3.5293,3.4433,3.4204,3.4036,3.3966,3.3822,3.3571,3.3199,3.2918,3.258,3.2195,3.1481,3.0577,2.967,2.8636,2.7687,2.6825,2.6478,2.5949,2.518,2.4497,2.3661,2.2908,2.2266,2.1891,2.1753,2.1634,2.1559,2.149,2.1606,2.1648,2.1666,2.1698,2.2118,2.2766,2.3211,2.3555,2.3567,2.3847,2.406,2.4073,2.4335,2.3579,2.2565,2.1863,2.1934,2.2405,2.2802,2.32,2.3584,2.3712,2.3927,2.4331,2.4672,2.4311,2.3369,2.2597,2.1771,2.0797,2.0023,1.9264,1.8944,1.8806,1.8641,1.8545,1.9149,1.9195,1.86,1.82,1.8397,1.8577,1.8485,1.8222,1.8185,1.7984,1.8323,1.8556,1.8451,1.8562,1.9168,1.944,1.9324,1.9164,1.9175,1.9115,1.9098,1.9098,1.9048,1.9031,1.9008,1.8747,1.8411,1.808,1.7413,1.6332,1.5622,1.533,1.5018,1.4768,1.4553,1.432,1.4129,1.4047,1.3855,1.3619,1.3583,3.5295,3.5306,3.555,3.6041,3.6733,3.7414,3.7603,3.738,3.6711,3.6017,3.5125,3.4388,3.3985,3.3868,3.3543,3.3221,3.3078,3.3029,3.2912,3.2612,3.2043,3.134,3.0197,2.9083,2.8258,2.7594,2.6899,2.6083,2.5531,2.4996,2.4166,2.3156,2.2726,2.2381,2.1922,2.1696,2.1686,2.1678,2.206,2.2386,2.2679,2.2978,2.3455,2.4103,2.4459,2.4756,2.5187,2.5478,2.5636,2.5608,2.5487,2.5173,2.4534,2.3693,2.3331,2.3245,2.3386,2.3819,2.4486,2.4709,2.5037,2.5443,2.5511,2.5031,2.4178,2.3603,2.2596,2.1397,2.0297,1.9473,1.933,1.9394,1.9097,1.9112,1.9376,1.9678,1.9367,1.9091,1.8756,1.8826,1.843,1.8055,1.8133,1.8202,1.8407,1.8677,1.8839,1.9062,1.9597,1.97,1.9572,1.9423,1.9274,1.9191,1.9098,1.9098,1.9081,1.9081,1.9065,1.9065,1.8865,1.8948,1.8358,1.7318,1.6628,1.6289,1.5939,1.5542,1.5134,1.4858,1.4625,1.4418,1.4173,1.3956,1.3775,3.5081,3.5144,3.5906,3.6472,3.6969,3.8039,3.8272,3.7807,3.7039,3.6208,3.5328,3.4443,3.3959,3.3855,3.3694,3.3444,3.3343,3.3346,3.3283,3.3001,3.2355,3.1447,3.0357,2.9257,2.8177,2.7351,2.6689,2.6352,2.5941,2.538,2.458,2.3677,2.3123,2.2669,2.2406,2.2357,2.2072,2.2012,2.2647,2.3547,2.4123,2.4465,2.4938,2.5512,2.5982,2.6345,2.6652,2.7239,2.729,2.7141,2.7283,2.6872,2.6135,2.5473,2.475,2.4224,2.4219,2.4567,2.5225,2.5377,2.5637,2.5834,2.5612,2.4954,2.421,2.3551,2.292,2.205,2.1523,2.0992,2.1158,2.0659,2.0367,2.0188,2.0281,2.0222,2.002,1.9895,1.9587,1.9151,1.8571,1.8263,1.8211,1.8303,1.8447,1.8738,1.9123,1.9547,1.9979,1.9915,1.9771,1.972,1.9545,1.938,1.9264,1.9198,1.9181,1.9164,1.9098,1.9098,1.9098,1.9081,1.8931,1.8341,1.7806,1.7259,1.682,1.6385,1.5895,1.5418,1.5178,1.4911,1.4569,1.4299,1.4137,3.5035,3.5077,3.6156,3.664,3.6904,3.8049,3.8328,3.7782,3.6822,3.6022,3.5308,3.4436,3.3934,3.3868,3.3809,3.3753,3.3712,3.365,3.3559,3.331,3.257,3.1522,3.0584,2.9262,2.8311,2.7811,2.6758,2.6554,2.6318,2.5796,2.5004,2.434,2.3586,2.3222,2.3172,2.3098,2.2679,2.2826,2.3398,2.4645,2.5595,2.5902,2.6299,2.7054,2.765,2.7942,2.818,2.8564,2.8689,2.8571,2.8577,2.8381,2.7203,2.6846,2.6219,2.5277,2.5304,2.5423,2.5632,2.574,2.5846,2.5733,2.5163,2.4561,2.3818,2.3159,2.2576,2.2517,2.2306,2.2355,2.2392,2.2237,2.182,2.1581,2.1438,2.1299,2.1006,2.0721,2.0367,1.9761,1.8888,1.8462,1.8373,1.8725,1.8934,1.8848,1.9207,1.9663,2.0032,2.0004,1.992,1.996,1.9857,1.9644,1.9495,1.9347,1.9341,1.9341,1.9198,1.9098,1.9098,1.9098,1.8931,1.8798,1.8664,1.8114,1.7672,1.7253,1.6846,1.6385,1.586,1.5462,1.5214,1.4848,1.4569,3.4975,3.4969,3.5477,3.6061,3.6656,3.6971,3.7417,3.7652,3.6263,3.5494,3.5268,3.4371,3.3875,3.384,3.382,3.38,3.3768,3.3734,3.3678,3.3494,3.3044,3.257,3.2036,3.0277,2.9254,2.8484,2.736,2.6716,2.658,2.628,2.5641,2.4961,2.4679,2.4505,2.3901,2.4,2.3827,2.3893,2.4477,2.5531,2.6627,2.681,2.7472,2.8294,2.8717,2.8908,2.9297,2.9556,2.9561,2.9565,2.9234,2.8806,2.8144,2.7619,2.7185,2.6518,2.606,2.5744,2.6068,2.6008,2.5772,2.5407,2.4922,2.4319,2.3436,2.279,2.247,2.2984,2.2684,2.2786,2.3215,2.3052,2.2849,2.2843,2.2825,2.2663,2.2359,2.1616,2.1245,2.068,1.9927,1.9035,1.8552,1.9034,1.9421,1.9292,1.93,1.9748,2.0118,2.0142,2.0131,2.0181,2.0156,1.9971,1.9764,1.9627,1.9522,1.9506,1.9357,1.9164,1.9098,1.9098,1.9098,1.8998,1.8942,1.8808,1.8293,1.7937,1.7733,1.7278,1.6673,1.6272,1.5956,1.5533,1.5124,3.4925,3.4941,3.5348,3.5696,3.6061,3.6488,3.6897,3.6903,3.5953,3.5369,3.5131,3.4302,3.3855,3.382,3.3807,3.3807,3.38,3.3748,3.3691,3.3612,3.3357,3.2943,3.1897,3.06,2.9677,2.8857,2.8141,2.7716,2.7326,2.6647,2.5961,2.5285,2.5127,2.4944,2.4787,2.5068,2.52,2.5564,2.631,2.734,2.802,2.8236,2.8553,2.9485,2.9475,2.9654,2.9805,2.9907,2.9907,2.9874,2.9621,2.9323,2.8685,2.7945,2.7194,2.6643,2.5662,2.5635,2.6322,2.5915,2.5509,2.5086,2.4501,2.3461,2.2742,2.2433,2.2449,2.3015,2.3275,2.3594,2.4059,2.4177,2.4169,2.4143,2.3994,2.3713,2.335,2.2745,2.2141,2.1551,2.0927,2.0029,1.929,1.948,1.9649,1.9275,1.933,1.9705,2.016,2.0483,2.0466,2.043,2.0382,2.0296,2.0091,1.9928,1.9742,1.9687,1.9572,1.938,1.9148,1.9098,1.9221,1.9183,1.9089,1.8929,1.8755,1.8455,1.8107,1.7784,1.7442,1.6933,1.6464,1.6281,1.5857,3.4948,3.4936,3.5099,3.5281,3.5504,3.5931,3.6178,3.6252,3.5408,3.4985,3.4791,3.4196,3.3854,3.3814,3.3807,3.3807,3.3788,3.3728,3.3671,3.3594,3.3447,3.3002,3.2114,3.0947,2.9791,2.8857,2.8252,2.7975,2.776,2.7417,2.6776,2.5856,2.5934,2.5766,2.5881,2.6336,2.6741,2.6849,2.8133,2.8907,2.9161,2.9102,2.9452,2.9863,3.006,3.0006,2.9935,2.9924,2.994,2.988,2.9599,2.9196,2.8629,2.7758,2.6914,2.6288,2.5426,2.533,2.5687,2.5497,2.5151,2.4615,2.3957,2.282,2.2393,2.2222,2.2627,2.3335,2.3702,2.4349,2.5012,2.5191,2.5135,2.4981,2.4838,2.4539,2.4166,2.3537,2.288,2.2213,2.1625,2.1066,2.0475,2.0234,1.992,1.9347,1.9393,1.97,2.0148,2.0653,2.0791,2.0748,2.0732,2.0683,2.0555,2.0334,2.0118,1.9927,1.9823,1.9708,1.9544,1.9515,1.9618,1.9504,1.9372,1.9465,1.9537,1.9005,1.8472,1.8243,1.7937,1.7356,1.6951,1.678,1.6519,3.5057,3.486,3.447,3.4773,3.5392,3.4668,3.4841,3.5409,3.453,3.4138,3.4122,3.3879,3.382,3.3807,3.3807,3.3807,3.3807,3.3782,3.3705,3.364,3.3559,3.3379,3.2574,3.1506,3.0398,2.9942,2.9027,2.8142,2.7862,2.8489,2.8117,2.7819,2.7277,2.7169,2.7267,2.7616,2.8094,2.8393,2.9472,2.9764,2.9612,2.9483,2.9712,3.0168,3.0242,3.0124,3.0011,2.993,2.9821,2.9751,2.9221,2.8726,2.8176,2.7359,2.6525,2.5914,2.5387,2.5188,2.5119,2.4832,2.4337,2.3667,2.302,2.2468,2.2268,2.2233,2.2796,2.3697,2.4008,2.4655,2.5345,2.5811,2.5702,2.5605,2.5384,2.5217,2.4823,2.4295,2.3631,2.2915,2.2396,2.1994,2.1795,2.1598,2.0528,1.9902,1.9666,1.9964,2.0297,2.0749,2.1017,2.109,2.1106,2.109,2.1063,2.0839,2.0523,2.039,2.0303,2.0194,2.0069,2.0071,2.0243,2.0129,2.0096,2.0212,2.0196,1.9619,1.9151,1.8826,1.8471,1.8133,1.7413,1.6937,1.6731,3.5085,3.4884,3.4564,3.4551,3.4686,3.4333,3.4352,3.4556,3.4197,3.3934,3.3847,3.3827,3.3807,3.3807,3.3807,3.3807,3.3807,3.3807,3.3712,3.3629,3.3584,3.3531,3.2871,3.2066,3.0987,3.0497,2.9659,2.9068,2.8791,2.9399,2.9396,2.908,2.8688,2.8239,2.8296,2.8583,2.9091,2.9676,3.0149,3.0283,3.0207,3.0061,3.0168,3.033,3.0375,3.0242,3.007,2.9656,2.9478,2.9187,2.8635,2.8166,2.7705,2.6878,2.6209,2.5689,2.5228,2.4867,2.4658,2.4254,2.3629,2.3078,2.2617,2.2439,2.2508,2.2604,2.2883,2.3531,2.4246,2.4963,2.5175,2.5668,2.5866,2.5893,2.5839,2.5715,2.5466,2.4958,2.4756,2.424,2.3713,2.3236,2.3107,2.2998,2.1674,2.0493,2.0311,2.0228,2.0549,2.0818,2.1075,2.1201,2.1201,2.1201,2.1185,2.1031,2.086,2.0834,2.0795,2.0786,2.0759,2.0976,2.1069,2.0929,2.073,2.0701,2.0545,2.0176,1.9833,1.9575,1.9373,1.9183,1.8317,1.7225,1.7001,3.5128,3.4898,3.4732,3.4498,3.4221,3.4216,3.4185,3.4161,3.4074,3.3953,3.384,3.382,3.3807,3.3807,3.3807,3.3807,3.3807,3.38,3.3723,3.3654,3.3584,3.3524,3.3081,3.2425,3.1559,3.103,3.0679,3.0241,2.9858,3.0575,3.0597,3.0352,3.005,2.964,2.8965,2.9277,2.9966,3.0637,3.0595,3.062,3.0631,3.0672,3.0528,3.052,3.0541,3.0474,3.0146,2.9674,2.9245,2.8845,2.8311,2.769,2.7146,2.6569,2.5922,2.5477,2.5073,2.4611,2.4454,2.4212,2.3715,2.3521,2.3347,2.3179,2.3122,2.3348,2.3692,2.3994,2.4675,2.5129,2.5242,2.5723,2.5907,2.5907,2.5907,2.5826,2.5939,2.5669,2.5752,2.5629,2.4977,2.4165,2.3867,2.3641,2.2706,2.1471,2.0877,2.073,2.0772,2.1006,2.1121,2.1201,2.1201,2.1201,2.1201,2.1129,2.1106,2.1337,2.1354,2.1525,2.1593,2.1801,2.1826,2.1585,2.1389,2.1209,2.1034,2.0881,2.063,2.0354,2.0004,1.9539,1.8597,1.7593,1.7441,3.5258,3.4922,3.4898,3.4633,3.4245,3.4216,3.4173,3.4124,3.4093,3.4004,3.3875,3.384,3.3807,3.3807,3.3807,3.3807,3.3807,3.38,3.3726,3.3633,3.3598,3.3531,3.3201,3.2636,3.2152,3.197,3.149,3.1035,3.0817,3.1462,3.1604,3.1491,3.1252,3.0968,2.9758,3.0177,3.0891,3.1433,3.0868,3.0905,3.1024,3.1093,3.0915,3.0821,3.0825,3.0771,3.0207,2.9453,2.896,2.8531,2.762,2.7039,2.6688,2.6202,2.5667,2.5263,2.4906,2.4704,2.4687,2.4819,2.4759,2.4418,2.4131,2.4169,2.432,2.4512,2.4603,2.4826,2.534,2.5614,2.5802,2.5946,2.5934,2.5949,2.5976,2.6105,2.6232,2.6523,2.6581,2.6794,2.586,2.493,2.4539,2.4118,2.3457,2.2561,2.169,2.1333,2.1291,2.1145,2.1242,2.1201,2.1213,2.1351,2.1362,2.1293,2.1365,2.1649,2.196,2.2196,2.2434,2.268,2.2575,2.2262,2.207,2.19,2.1807,2.1695,2.1313,2.0855,2.0129,1.9511,1.8629,1.8027,1.7843,3.5365,3.5085,3.4945,3.4732,3.4448,3.4275,3.4185,3.4173,3.4074,3.3959,3.386,3.3814,3.3807,3.3807,3.3807,3.3807,3.3807,3.38,3.3726,3.3619,3.3605,3.3524,3.331,3.3074,3.2705,3.2277,3.1825,3.148,3.096,3.1915,3.1938,3.1759,3.1953,3.1579,3.1047,3.1114,3.1509,3.1621,3.1433,3.1403,3.1498,3.149,3.1363,3.1198,3.1097,3.0704,3.0075,2.9155,2.8455,2.7968,2.6976,2.6429,2.6386,2.6082,2.6296,2.6268,2.6256,2.6674,2.6599,2.6518,2.597,2.5346,2.4854,2.486,2.4675,2.5417,2.5579,2.5696,2.6155,2.633,2.629,2.6111,2.6071,2.6143,2.6228,2.6511,2.6736,2.7141,2.7416,2.7723,2.7283,2.6777,2.6369,2.5558,2.4793,2.4086,2.3282,2.229,2.1997,2.1526,2.1336,2.1249,2.1247,2.1427,2.153,2.1599,2.1875,2.2278,2.2662,2.2977,2.3233,2.3408,2.3203,2.2827,2.2716,2.2609,2.2138,2.1768,2.1685,2.1275,2.0631,2.002,1.9335,1.8674,1.8152,3.5392,3.5189,3.4987,3.4791,3.4572,3.431,3.4191,3.413,3.4011,3.3908,3.3835,3.382,3.3807,3.3807,3.3807,3.3807,3.3807,3.3807,3.376,3.3647,3.3594,3.3534,3.3466,3.34,3.3103,3.2694,3.2567,3.2332,3.2024,3.2404,3.2414,3.2257,3.2327,3.2229,3.1942,3.1841,3.1921,3.202,3.1992,3.1845,3.1789,3.1635,3.1355,3.1088,3.0742,3.0213,2.9499,2.8636,2.7797,2.7266,2.681,2.6349,2.6592,2.7016,2.7316,2.7498,2.7615,2.7901,2.7752,2.7752,2.7255,2.6916,2.5997,2.5816,2.6055,2.6882,2.6741,2.6801,2.7063,2.6822,2.6538,2.6331,2.6321,2.6394,2.6679,2.6948,2.7538,2.7958,2.8238,2.8549,2.845,2.817,2.7846,2.7189,2.6304,2.5621,2.4911,2.3835,2.2757,2.2184,2.1651,2.1454,2.147,2.167,2.188,2.2053,2.2386,2.2868,2.3184,2.3476,2.3735,2.3835,2.3602,2.3353,2.3057,2.2684,2.2092,2.1757,2.1744,2.1616,2.1283,2.0667,2.0061,1.94,1.8725,3.5399,3.5201,3.4996,3.4787,3.4583,3.4299,3.4142,3.408,3.3959,3.3895,3.39,3.3827,3.3807,3.3807,3.3807,3.3807,3.3807,3.3807,3.3753,3.371,3.3654,3.357,3.3502,3.3437,3.3299,3.3328,3.3248,3.3085,3.3284,3.3158,3.2994,3.2896,3.2983,3.2848,3.2588,3.2395,3.2448,3.2516,3.2406,3.2179,3.1985,3.1563,3.1139,3.0742,3.0179,2.9608,2.8931,2.8185,2.7935,2.7739,2.7623,2.7742,2.8072,2.8623,2.8478,2.8372,2.8324,2.8435,2.8525,2.8591,2.8839,2.8641,2.8128,2.8241,2.8217,2.8204,2.793,2.7571,2.7559,2.7128,2.6757,2.6722,2.6658,2.6916,2.7215,2.7725,2.8399,2.8792,2.9001,2.9057,2.8817,2.8536,2.8255,2.7754,2.7244,2.6806,2.5982,2.4948,2.3891,2.2917,2.2381,2.1788,2.1834,2.1983,2.221,2.25,2.292,2.3403,2.3465,2.37,2.3982,2.4107,2.3838,2.3538,2.3205,2.2777,2.2225,2.194,2.1854,2.1707,2.1542,2.1114,2.044,1.9982,1.933,3.5456,3.5383,3.5182,3.4982,3.4696,3.4203,3.3972,3.3947,3.3901,3.3868,3.3815,3.382,3.3807,3.3807,3.3807,3.3807,3.3807,3.38,3.3741,3.3705,3.3675,3.3591,3.3538,3.3455,3.3437,3.3408,3.3393,3.3393,3.3357,3.3393,3.3378,3.3268,3.3304,3.3229,3.3091,3.29,3.2908,3.2862,3.2711,3.2358,3.1993,3.1554,3.1018,3.0446,2.9864,2.926,2.8485,2.8268,2.8044,2.7519,2.7819,2.8024,2.8106,2.8703,2.8987,2.9478,2.9496,2.9522,2.9529,2.9277,2.9423,2.994,2.9427,2.8925,2.8913,2.8971,2.8855,2.8406,2.819,2.7902,2.7513,2.7332,2.7451,2.7782,2.8068,2.8509,2.9087,2.9325,2.952,2.9401,2.916,2.897,2.869,2.8253,2.7798,2.7562,2.7037,2.6083,2.5079,2.4134,2.3239,2.265,2.2623,2.2888,2.2845,2.3068,2.3502,2.3869,2.3885,2.3902,2.4051,2.4123,2.397,2.3696,2.3335,2.2889,2.2365,2.2187,2.2054,2.1864,2.1671,2.128,2.0867,2.0401,1.9845,3.5503,3.5479,3.5258,3.494,3.4577,3.4209,3.3998,3.3881,3.388,3.3847,3.3814,3.3807,3.3807,3.3807,3.3807,3.3807,3.3807,3.38,3.3748,3.3705,3.3689,3.3591,3.352,3.3462,3.343,3.34,3.3393,3.3393,3.3393,3.3393,3.3386,3.3371,3.3393,3.3349,3.3244,3.3122,3.3024,3.2987,3.2827,3.2408,3.191,3.1367,3.0761,3.0123,2.9559,2.8755,2.815,2.8133,2.7809,2.7599,2.8128,2.8751,2.9218,3.0158,3.0516,3.0963,3.0917,3.0925,3.0872,3.044,3.0521,3.0578,3.0381,2.9915,2.974,2.9798,2.9348,2.8885,2.8928,2.8826,2.8392,2.809,2.8424,2.8757,2.9044,2.93,2.9553,2.9762,2.9771,2.9692,2.9559,2.9395,2.9083,2.8676,2.8493,2.8463,2.8251,2.7637,2.6568,2.5492,2.4502,2.3687,2.3753,2.3934,2.381,2.3636,2.3908,2.4125,2.408,2.4108,2.4189,2.4134,2.4007,2.3751,2.3457,2.3001,2.259,2.2402,2.2252,2.2044,2.1864,2.1587,2.1243,2.0847,2.0235,3.5497,3.546,3.5207,3.4818,3.4397,3.431,3.4111,3.3854,3.3834,3.3814,3.3807,3.3807,3.3807,3.3807,3.3807,3.3807,3.38,3.3793,3.3753,3.3691,3.3636,3.357,3.3491,3.3444,3.343,3.3408,3.3393,3.3393,3.3393,3.3393,3.3393,3.3393,3.3393,3.3364,3.3315,3.3221,3.3047,3.2737,3.2721,3.2469,3.1536,3.0814,3.005,2.9301,2.8586,2.7865,2.7568,2.7469,2.7541,2.8283,2.9089,2.9996,3.102,3.1858,3.217,3.2183,3.1978,3.2052,3.1941,3.1592,3.1528,3.1429,3.1116,3.0778,3.0646,3.0366,2.9871,2.9363,2.9305,2.9218,2.8855,2.8769,2.9001,2.9363,2.968,2.9865,3.0021,3.0071,2.9903,2.981,2.9641,2.9492,2.9406,2.897,2.8662,2.9012,2.8788,2.8293,2.796,2.6805,2.5933,2.4985,2.5163,2.5148,2.4357,2.4224,2.4312,2.4394,2.4279,2.4189,2.4189,2.4134,2.4061,2.3879,2.3714,2.3279,2.2897,2.2796,2.2609,2.2271,2.2082,2.1921,2.1606,2.1271,2.077,3.5483,3.5398,3.5086,3.4879,3.4715,3.436,3.4166,3.4086,3.3875,3.3807,3.3807,3.3807,3.3807,3.3807,3.3807,3.3807,3.3793,3.376,3.3737,3.3689,3.3626,3.3549,3.3499,3.3466,3.3455,3.3408,3.3393,3.3357,3.3266,3.3302,3.3357,3.3375,3.3321,3.3244,3.3243,3.3169,3.3011,3.2468,3.2588,3.2161,3.1115,3.0136,2.9283,2.8966,2.8475,2.8762,2.8912,2.9705,3.0018,3.0562,3.1352,3.1945,3.2398,3.2596,3.2595,3.2494,3.2595,3.2744,3.2773,3.2571,3.2432,3.2496,3.2279,3.1792,3.1349,3.0881,3.0409,2.9915,2.961,2.9523,2.9464,2.9479,2.9552,2.9929,3.0247,3.0347,3.0432,3.0235,3.0036,2.9866,2.9682,2.9591,2.9504,2.9321,2.9012,2.8676,2.8255,2.8057,2.852,2.7997,2.7434,2.6738,2.68,2.6553,2.5451,2.482,2.4909,2.4557,2.4316,2.4243,2.4207,2.4152,2.4116,2.4134,2.397,2.3574,2.3353,2.3372,2.312,2.2636,2.2384,2.2262,2.2092,2.1797,2.1309,3.5416,3.5346,3.5155,3.5008,3.4837,3.4475,3.4286,3.4167,3.3933,3.3807,3.3807,3.3807,3.3807,3.3807,3.3807,3.378,3.3766,3.3737,3.3668,3.3612,3.3577,3.3506,3.3488,3.3459,3.3448,3.3393,3.3375,3.3295,3.2987,3.285,3.2832,3.2886,3.2861,3.2882,3.2897,3.2982,3.2865,3.2089,3.2394,3.1939,3.1038,3.0515,2.9993,2.9701,2.955,2.9816,3.0149,3.089,3.1123,3.1722,3.2533,3.2967,3.3265,3.3533,3.3603,3.3538,3.3522,3.3425,3.3405,3.3321,3.3077,3.3027,3.2835,3.2142,3.1551,3.1087,3.0822,3.0382,3.0191,3.0089,3.0074,3.0089,3.0118,3.0364,3.0451,3.0509,3.0447,3.028,3.0142,3.0019,2.9804,2.9604,2.956,2.9532,2.9279,2.9265,2.8675,2.8535,2.8886,2.897,2.8517,2.8192,2.8095,2.7201,2.5783,2.5432,2.5508,2.5052,2.4437,2.434,2.4316,2.4243,2.42,2.4182,2.4127,2.3934,2.3776,2.3703,2.3409,2.2897,2.2721,2.262,2.244,2.2252,2.1816,3.5357,3.5316,3.5273,3.5155,3.4917,3.4663,3.442,3.4221,3.3972,3.3847,3.3807,3.3807,3.3807,3.3807,3.3807,3.3753,3.3705,3.3696,3.3612,3.3534,3.3491,3.3466,3.343,3.34,3.3393,3.3393,3.3375,3.2886,3.2361,3.2343,3.2325,3.2144,3.2111,3.2133,3.2282,3.2686,3.2844,3.2103,3.1983,3.2009,3.1803,3.1617,3.0936,3.0593,3.0642,3.0894,3.1102,3.1464,3.1742,3.2459,3.3489,3.3765,3.4026,3.4261,3.4424,3.4414,3.4333,3.4141,3.3989,3.3865,3.3454,3.3087,3.2808,3.2472,3.1962,3.1536,3.1277,3.094,3.0748,3.0569,3.0554,3.0539,3.0568,3.0583,3.0598,3.0612,3.0462,3.034,3.0218,3.0126,2.9913,2.968,2.962,2.9605,2.9588,2.9602,2.9602,2.9602,2.9546,2.9406,2.9101,2.8906,2.8804,2.7696,2.6434,2.6288,2.6462,2.5399,2.4826,2.4617,2.4413,2.4279,2.4189,2.42,2.4116,2.4025,2.3934,2.3842,2.3482,2.3242,2.3113,2.302,2.2815,2.259,2.2252,3.532,3.5316,3.5253,3.517,3.5126,3.4889,3.4674,3.442,3.4215,3.4017,3.3854,3.3807,3.3807,3.3807,3.3807,3.376,3.3684,3.3654,3.3577,3.3517,3.3459,3.3433,3.3411,3.3393,3.3393,3.3357,3.3248,3.285,3.2017,3.1988,3.1861,3.1354,3.1988,3.1919,3.1586,3.2155,3.2795,3.2083,3.2225,3.2514,3.1845,3.1437,3.0776,3.0735,3.1146,3.18,3.2493,3.3398,3.3984,3.4453,3.4555,3.4597,3.4651,3.471,3.4802,3.4839,3.478,3.4703,3.4476,3.4452,3.4086,3.3935,3.3758,3.3511,3.2933,3.2298,3.1905,3.1321,3.1043,3.0687,3.0598,3.0583,3.0598,3.0598,3.0612,3.0612,3.0537,3.0401,3.0266,3.0144,3.0006,2.9822,2.973,2.9683,2.9618,2.9618,2.9602,2.9602,2.9602,2.9602,2.9602,2.9495,2.9371,2.8915,2.7986,2.7627,2.7438,2.6227,2.5211,2.4987,2.4689,2.4279,2.4189,2.4207,2.4207,2.4152,2.4043,2.397,2.3952,2.3758,2.3593,2.3427,2.3205,2.2964,2.2628]}]]